<?xml version="1.0" encoding="utf-8"?>
<gpx xmlns:xsi="http://www.w3.org/2001/XMLSchema-instance" xmlns:xsd="http://www.w3.org/2001/XMLSchema" version="1.1" creator="Shapelink.com" xmlns="http://www.topografix.com/GPX/1/1" xmlns:gpxtpx="http://www.garmin.com/xmlschemas/TrackPointExtension/v1">
  <metadata>
    <name>Cykling 23.50 km, 2016-04-29</name>
    <desc></desc>
    <author><name>Alexander Engvall</name></author> 
    <time>2016-04-29T17:07:30Z</time>
  </metadata>
  <trk>
    <name>Cykling 23.50 km, 2016-04-29</name>
    <trkseg>
      <trkpt lat="59.333581993206" lon="18.059659090533">
        <ele>0</ele>
        <time>2016-04-29T17:07:30Z</time>
      </trkpt>
      <trkpt lat="59.333581993206" lon="18.059659090533">
        <ele>0</ele>
        <time>2016-04-29T17:07:32Z</time>
      </trkpt>
      <trkpt lat="59.333426508961" lon="18.059403610221">
        <ele>0</ele>
        <time>2016-04-29T17:07:37Z</time>
      </trkpt>
      <trkpt lat="59.333354424621" lon="18.059132874851">
        <ele>0</ele>
        <time>2016-04-29T17:07:39Z</time>
      </trkpt>
      <trkpt lat="59.333239927867" lon="18.059012510767">
        <ele>0</ele>
        <time>2016-04-29T17:07:42Z</time>
      </trkpt>
      <trkpt lat="59.333156863238" lon="18.059025167436">
        <ele>0</ele>
        <time>2016-04-29T17:07:44Z</time>
      </trkpt>
      <trkpt lat="59.333116713937" lon="18.059057353932">
        <ele>0</ele>
        <time>2016-04-29T17:07:45Z</time>
      </trkpt>
      <trkpt lat="59.332917559993" lon="18.059227925597">
        <ele>0</ele>
        <time>2016-04-29T17:07:48Z</time>
      </trkpt>
      <trkpt lat="59.332857042675" lon="18.059282491766">
        <ele>0</ele>
        <time>2016-04-29T17:07:49Z</time>
      </trkpt>
      <trkpt lat="59.332613799937" lon="18.059491787809">
        <ele>0</ele>
        <time>2016-04-29T17:07:53Z</time>
      </trkpt>
      <trkpt lat="59.332498632631" lon="18.059399670728">
        <ele>0</ele>
        <time>2016-04-29T17:07:56Z</time>
      </trkpt>
      <trkpt lat="59.33242579392" lon="18.059206384114">
        <ele>0</ele>
        <time>2016-04-29T17:07:58Z</time>
      </trkpt>
      <trkpt lat="59.332348596621" lon="18.058986945972">
        <ele>0</ele>
        <time>2016-04-29T17:08:00Z</time>
      </trkpt>
      <trkpt lat="59.332243319957" lon="18.058666589754">
        <ele>0</ele>
        <time>2016-04-29T17:08:03Z</time>
      </trkpt>
      <trkpt lat="59.332211384918" lon="18.05855544576">
        <ele>0</ele>
        <time>2016-04-29T17:08:04Z</time>
      </trkpt>
      <trkpt lat="59.33218774796" lon="18.05848168504">
        <ele>0</ele>
        <time>2016-04-29T17:08:05Z</time>
      </trkpt>
      <trkpt lat="59.332170397427" lon="18.058435668409">
        <ele>0</ele>
        <time>2016-04-29T17:08:06Z</time>
      </trkpt>
      <trkpt lat="59.332153968903" lon="18.058405493569">
        <ele>0</ele>
        <time>2016-04-29T17:08:07Z</time>
      </trkpt>
      <trkpt lat="59.332086075513" lon="18.058280267983">
        <ele>0</ele>
        <time>2016-04-29T17:08:11Z</time>
      </trkpt>
      <trkpt lat="59.332059588709" lon="18.05815059999">
        <ele>0</ele>
        <time>2016-04-29T17:08:13Z</time>
      </trkpt>
      <trkpt lat="59.332039220692" lon="18.058062087126">
        <ele>0</ele>
        <time>2016-04-29T17:08:14Z</time>
      </trkpt>
      <trkpt lat="59.331983313419" lon="18.057930491296">
        <ele>0</ele>
        <time>2016-04-29T17:08:16Z</time>
      </trkpt>
      <trkpt lat="59.331926484137" lon="18.057908949813">
        <ele>0</ele>
        <time>2016-04-29T17:08:18Z</time>
      </trkpt>
      <trkpt lat="59.33188851413" lon="18.057933089685">
        <ele>0</ele>
        <time>2016-04-29T17:08:19Z</time>
      </trkpt>
      <trkpt lat="59.331845682621" lon="18.057973406624">
        <ele>0</ele>
        <time>2016-04-29T17:08:20Z</time>
      </trkpt>
      <trkpt lat="59.331793128108" lon="18.058015819038">
        <ele>0</ele>
        <time>2016-04-29T17:08:21Z</time>
      </trkpt>
      <trkpt lat="59.331515771037" lon="18.058243052347">
        <ele>0</ele>
        <time>2016-04-29T17:08:25Z</time>
      </trkpt>
      <trkpt lat="59.331448045285" lon="18.058294601032">
        <ele>0</ele>
        <time>2016-04-29T17:08:26Z</time>
      </trkpt>
      <trkpt lat="59.331386605958" lon="18.058343048414">
        <ele>0</ele>
        <time>2016-04-29T17:08:27Z</time>
      </trkpt>
      <trkpt lat="59.331329189943" lon="18.058390741425">
        <ele>0</ele>
        <time>2016-04-29T17:08:28Z</time>
      </trkpt>
      <trkpt lat="59.331274707593" lon="18.058433572934">
        <ele>0</ele>
        <time>2016-04-29T17:08:29Z</time>
      </trkpt>
      <trkpt lat="59.331168341282" lon="18.058538598141">
        <ele>0</ele>
        <time>2016-04-29T17:08:31Z</time>
      </trkpt>
      <trkpt lat="59.331075218373" lon="18.058626356634">
        <ele>0</ele>
        <time>2016-04-29T17:08:33Z</time>
      </trkpt>
      <trkpt lat="59.331030123751" lon="18.058677150948">
        <ele>0</ele>
        <time>2016-04-29T17:08:34Z</time>
      </trkpt>
      <trkpt lat="59.330985196767" lon="18.058724424864">
        <ele>0</ele>
        <time>2016-04-29T17:08:35Z</time>
      </trkpt>
      <trkpt lat="59.330944963647" lon="18.058769268029">
        <ele>0</ele>
        <time>2016-04-29T17:08:36Z</time>
      </trkpt>
      <trkpt lat="59.330891738582" lon="18.058823750379">
        <ele>0</ele>
        <time>2016-04-29T17:08:37Z</time>
      </trkpt>
      <trkpt lat="59.330842033915" lon="18.058899522755">
        <ele>0</ele>
        <time>2016-04-29T17:08:38Z</time>
      </trkpt>
      <trkpt lat="59.330787635384" lon="18.058969930715">
        <ele>0</ele>
        <time>2016-04-29T17:08:39Z</time>
      </trkpt>
      <trkpt lat="59.330510194494" lon="18.059177550378">
        <ele>0</ele>
        <time>2016-04-29T17:08:43Z</time>
      </trkpt>
      <trkpt lat="59.330453029936" lon="18.059215520385">
        <ele>0</ele>
        <time>2016-04-29T17:08:44Z</time>
      </trkpt>
      <trkpt lat="59.330294192931" lon="18.059341584161">
        <ele>0</ele>
        <time>2016-04-29T17:08:47Z</time>
      </trkpt>
      <trkpt lat="59.330214481062" lon="18.059413668501">
        <ele>0</ele>
        <time>2016-04-29T17:08:49Z</time>
      </trkpt>
      <trkpt lat="59.330146336215" lon="18.059480053149">
        <ele>0</ele>
        <time>2016-04-29T17:08:51Z</time>
      </trkpt>
      <trkpt lat="59.330058074808" lon="18.059567644004">
        <ele>0</ele>
        <time>2016-04-29T17:08:53Z</time>
      </trkpt>
      <trkpt lat="59.330006861399" lon="18.059620952888">
        <ele>0</ele>
        <time>2016-04-29T17:08:54Z</time>
      </trkpt>
      <trkpt lat="59.32995061885" lon="18.059676776342">
        <ele>0</ele>
        <time>2016-04-29T17:08:55Z</time>
      </trkpt>
      <trkpt lat="59.329886413496" lon="18.059736371651">
        <ele>0</ele>
        <time>2016-04-29T17:08:56Z</time>
      </trkpt>
      <trkpt lat="59.329822124323" lon="18.059800074091">
        <ele>0</ele>
        <time>2016-04-29T17:08:57Z</time>
      </trkpt>
      <trkpt lat="59.329608050597" lon="18.059988080108">
        <ele>0</ele>
        <time>2016-04-29T17:09:00Z</time>
      </trkpt>
      <trkpt lat="59.329543509967" lon="18.060064355398">
        <ele>0</ele>
        <time>2016-04-29T17:09:01Z</time>
      </trkpt>
      <trkpt lat="59.329483495563" lon="18.060143061439">
        <ele>0</ele>
        <time>2016-04-29T17:09:02Z</time>
      </trkpt>
      <trkpt lat="59.329416943277" lon="18.060188323699">
        <ele>0</ele>
        <time>2016-04-29T17:09:03Z</time>
      </trkpt>
      <trkpt lat="59.329351480638" lon="18.060239704746">
        <ele>0</ele>
        <time>2016-04-29T17:09:04Z</time>
      </trkpt>
      <trkpt lat="59.329280569764" lon="18.060284883187">
        <ele>0</ele>
        <time>2016-04-29T17:09:05Z</time>
      </trkpt>
      <trkpt lat="59.329208988338" lon="18.060342802116">
        <ele>0</ele>
        <time>2016-04-29T17:09:06Z</time>
      </trkpt>
      <trkpt lat="59.329143944794" lon="18.060418155397">
        <ele>0</ele>
        <time>2016-04-29T17:09:07Z</time>
      </trkpt>
      <trkpt lat="59.32907135754" lon="18.060469452625">
        <ele>0</ele>
        <time>2016-04-29T17:09:08Z</time>
      </trkpt>
      <trkpt lat="59.328701212836" lon="18.060773045043">
        <ele>0</ele>
        <time>2016-04-29T17:09:14Z</time>
      </trkpt>
      <trkpt lat="59.328642288079" lon="18.060797352553">
        <ele>0</ele>
        <time>2016-04-29T17:09:15Z</time>
      </trkpt>
      <trkpt lat="59.328494431363" lon="18.060762819125">
        <ele>0</ele>
        <time>2016-04-29T17:09:18Z</time>
      </trkpt>
      <trkpt lat="59.328356549108" lon="18.060436679396">
        <ele>0</ele>
        <time>2016-04-29T17:09:21Z</time>
      </trkpt>
      <trkpt lat="59.32829267903" lon="18.060107270726">
        <ele>0</ele>
        <time>2016-04-29T17:09:23Z</time>
      </trkpt>
      <trkpt lat="59.328229228047" lon="18.059773587287">
        <ele>0</ele>
        <time>2016-04-29T17:09:25Z</time>
      </trkpt>
      <trkpt lat="59.328199137026" lon="18.059610056418">
        <ele>0</ele>
        <time>2016-04-29T17:09:26Z</time>
      </trkpt>
      <trkpt lat="59.328169716557" lon="18.059450967956">
        <ele>0</ele>
        <time>2016-04-29T17:09:27Z</time>
      </trkpt>
      <trkpt lat="59.328139374079" lon="18.059304200887">
        <ele>0</ele>
        <time>2016-04-29T17:09:28Z</time>
      </trkpt>
      <trkpt lat="59.328114898931" lon="18.059148968099">
        <ele>0</ele>
        <time>2016-04-29T17:09:29Z</time>
      </trkpt>
      <trkpt lat="59.328114647474" lon="18.059003458315">
        <ele>0</ele>
        <time>2016-04-29T17:09:30Z</time>
      </trkpt>
      <trkpt lat="59.328187570004" lon="18.058630547584">
        <ele>0</ele>
        <time>2016-04-29T17:09:33Z</time>
      </trkpt>
      <trkpt lat="59.328218583034" lon="18.058517056658">
        <ele>0</ele>
        <time>2016-04-29T17:09:34Z</time>
      </trkpt>
      <trkpt lat="59.328261330724" lon="18.058416054763">
        <ele>0</ele>
        <time>2016-04-29T17:09:35Z</time>
      </trkpt>
      <trkpt lat="59.328302653491" lon="18.058322009845">
        <ele>0</ele>
        <time>2016-04-29T17:09:36Z</time>
      </trkpt>
      <trkpt lat="59.328346658466" lon="18.058232658791">
        <ele>0</ele>
        <time>2016-04-29T17:09:37Z</time>
      </trkpt>
      <trkpt lat="59.328380940437" lon="18.058150767628">
        <ele>0</ele>
        <time>2016-04-29T17:09:38Z</time>
      </trkpt>
      <trkpt lat="59.328399464436" lon="18.058062925316">
        <ele>0</ele>
        <time>2016-04-29T17:09:39Z</time>
      </trkpt>
      <trkpt lat="59.328397201323" lon="18.05796368362">
        <ele>0</ele>
        <time>2016-04-29T17:09:40Z</time>
      </trkpt>
      <trkpt lat="59.328378006772" lon="18.057704934367">
        <ele>0</ele>
        <time>2016-04-29T17:09:43Z</time>
      </trkpt>
      <trkpt lat="59.328342802792" lon="18.057618600797">
        <ele>0</ele>
        <time>2016-04-29T17:09:44Z</time>
      </trkpt>
      <trkpt lat="59.3282113746" lon="18.057487843157">
        <ele>0</ele>
        <time>2016-04-29T17:09:47Z</time>
      </trkpt>
      <trkpt lat="59.328142056287" lon="18.057219873814">
        <ele>0</ele>
        <time>2016-04-29T17:09:50Z</time>
      </trkpt>
      <trkpt lat="59.328130656903" lon="18.057101437567">
        <ele>0</ele>
        <time>2016-04-29T17:09:51Z</time>
      </trkpt>
      <trkpt lat="59.32811414456" lon="18.056971853393">
        <ele>0</ele>
        <time>2016-04-29T17:09:52Z</time>
      </trkpt>
      <trkpt lat="59.328099643873" lon="18.056831624206">
        <ele>0</ele>
        <time>2016-04-29T17:09:53Z</time>
      </trkpt>
      <trkpt lat="59.328082963892" lon="18.056708577914">
        <ele>0</ele>
        <time>2016-04-29T17:09:54Z</time>
      </trkpt>
      <trkpt lat="59.328070139585" lon="18.05657899374">
        <ele>0</ele>
        <time>2016-04-29T17:09:55Z</time>
      </trkpt>
      <trkpt lat="59.328021524565" lon="18.056179680024">
        <ele>0</ele>
        <time>2016-04-29T17:09:58Z</time>
      </trkpt>
      <trkpt lat="59.327999396349" lon="18.056041378674">
        <ele>0</ele>
        <time>2016-04-29T17:09:59Z</time>
      </trkpt>
      <trkpt lat="59.327982464911" lon="18.055909699025">
        <ele>0</ele>
        <time>2016-04-29T17:10:00Z</time>
      </trkpt>
      <trkpt lat="59.327965365835" lon="18.055758489549">
        <ele>0</ele>
        <time>2016-04-29T17:10:01Z</time>
      </trkpt>
      <trkpt lat="59.327948853492" lon="18.055616667801">
        <ele>0</ele>
        <time>2016-04-29T17:10:02Z</time>
      </trkpt>
      <trkpt lat="59.327920187394" lon="18.055406198292">
        <ele>0</ele>
        <time>2016-04-29T17:10:05Z</time>
      </trkpt>
      <trkpt lat="59.327908536553" lon="18.055283403457">
        <ele>0</ele>
        <time>2016-04-29T17:10:06Z</time>
      </trkpt>
      <trkpt lat="59.327898310635" lon="18.055145772659">
        <ele>0</ele>
        <time>2016-04-29T17:10:07Z</time>
      </trkpt>
      <trkpt lat="59.327885067233" lon="18.054996239563">
        <ele>0</ele>
        <time>2016-04-29T17:10:08Z</time>
      </trkpt>
      <trkpt lat="59.327870985641" lon="18.054838659843">
        <ele>0</ele>
        <time>2016-04-29T17:10:09Z</time>
      </trkpt>
      <trkpt lat="59.327826058657" lon="18.054330549065">
        <ele>0</ele>
        <time>2016-04-29T17:10:12Z</time>
      </trkpt>
      <trkpt lat="59.327816419472" lon="18.054164000712">
        <ele>0</ele>
        <time>2016-04-29T17:10:13Z</time>
      </trkpt>
      <trkpt lat="59.327808121391" lon="18.053998290549">
        <ele>0</ele>
        <time>2016-04-29T17:10:14Z</time>
      </trkpt>
      <trkpt lat="59.327809378676" lon="18.053836268422">
        <ele>0</ele>
        <time>2016-04-29T17:10:15Z</time>
      </trkpt>
      <trkpt lat="59.327806025916" lon="18.05370316385">
        <ele>0</ele>
        <time>2016-04-29T17:10:16Z</time>
      </trkpt>
      <trkpt lat="59.327799236577" lon="18.053512307987">
        <ele>0</ele>
        <time>2016-04-29T17:10:18Z</time>
      </trkpt>
      <trkpt lat="59.327796805826" lon="18.053441313294">
        <ele>0</ele>
        <time>2016-04-29T17:10:21Z</time>
      </trkpt>
      <trkpt lat="59.327796805826" lon="18.053441313294">
        <ele>0</ele>
        <time>2016-04-29T17:10:22Z</time>
      </trkpt>
      <trkpt lat="59.327793453066" lon="18.053412731015">
        <ele>0</ele>
        <time>2016-04-29T17:10:38Z</time>
      </trkpt>
      <trkpt lat="59.327821113336" lon="18.053281302823">
        <ele>0</ele>
        <time>2016-04-29T17:10:40Z</time>
      </trkpt>
      <trkpt lat="59.327801834966" lon="18.053209218483">
        <ele>0</ele>
        <time>2016-04-29T17:10:41Z</time>
      </trkpt>
      <trkpt lat="59.327716088129" lon="18.053104360914">
        <ele>0</ele>
        <time>2016-04-29T17:10:43Z</time>
      </trkpt>
      <trkpt lat="59.327493800141" lon="18.053014506946">
        <ele>0</ele>
        <time>2016-04-29T17:10:47Z</time>
      </trkpt>
      <trkpt lat="59.327337812982" lon="18.053029845823">
        <ele>0</ele>
        <time>2016-04-29T17:10:50Z</time>
      </trkpt>
      <trkpt lat="59.327283665908" lon="18.053041915759">
        <ele>0</ele>
        <time>2016-04-29T17:10:51Z</time>
      </trkpt>
      <trkpt lat="59.327230524662" lon="18.053057506093">
        <ele>0</ele>
        <time>2016-04-29T17:10:52Z</time>
      </trkpt>
      <trkpt lat="59.327175204122" lon="18.053051471125">
        <ele>0</ele>
        <time>2016-04-29T17:10:53Z</time>
      </trkpt>
      <trkpt lat="59.327130528595" lon="18.052972932722">
        <ele>0</ele>
        <time>2016-04-29T17:10:54Z</time>
      </trkpt>
      <trkpt lat="59.32711921303" lon="18.052852568638">
        <ele>0</ele>
        <time>2016-04-29T17:10:55Z</time>
      </trkpt>
      <trkpt lat="59.327103538877" lon="18.052606643692">
        <ele>0</ele>
        <time>2016-04-29T17:10:57Z</time>
      </trkpt>
      <trkpt lat="59.327091468941" lon="18.052476556604">
        <ele>0</ele>
        <time>2016-04-29T17:10:58Z</time>
      </trkpt>
      <trkpt lat="59.327064982137" lon="18.052210850374">
        <ele>0</ele>
        <time>2016-04-29T17:11:00Z</time>
      </trkpt>
      <trkpt lat="59.327024665198" lon="18.051929721448">
        <ele>0</ele>
        <time>2016-04-29T17:11:02Z</time>
      </trkpt>
      <trkpt lat="59.326963477328" lon="18.051511464638">
        <ele>0</ele>
        <time>2016-04-29T17:11:05Z</time>
      </trkpt>
      <trkpt lat="59.326880831794" lon="18.050628180016">
        <ele>0</ele>
        <time>2016-04-29T17:11:11Z</time>
      </trkpt>
      <trkpt lat="59.326863648899" lon="18.050492812331">
        <ele>0</ele>
        <time>2016-04-29T17:11:12Z</time>
      </trkpt>
      <trkpt lat="59.326769855438" lon="18.050294077482">
        <ele>0</ele>
        <time>2016-04-29T17:11:15Z</time>
      </trkpt>
      <trkpt lat="59.326770861266" lon="18.050055025694">
        <ele>0</ele>
        <time>2016-04-29T17:11:18Z</time>
      </trkpt>
      <trkpt lat="59.326766754135" lon="18.049550938228">
        <ele>0</ele>
        <time>2016-04-29T17:11:22Z</time>
      </trkpt>
      <trkpt lat="59.326730460508" lon="18.048742587792">
        <ele>0</ele>
        <time>2016-04-29T17:11:28Z</time>
      </trkpt>
      <trkpt lat="59.326721743332" lon="18.048012524302">
        <ele>0</ele>
        <time>2016-04-29T17:11:33Z</time>
      </trkpt>
      <trkpt lat="59.326711936509" lon="18.047544227549">
        <ele>0</ele>
        <time>2016-04-29T17:11:36Z</time>
      </trkpt>
      <trkpt lat="59.326706739731" lon="18.047066962163">
        <ele>0</ele>
        <time>2016-04-29T17:11:39Z</time>
      </trkpt>
      <trkpt lat="59.326692406682" lon="18.046614507201">
        <ele>0</ele>
        <time>2016-04-29T17:11:42Z</time>
      </trkpt>
      <trkpt lat="59.326671535751" lon="18.046321056882">
        <ele>0</ele>
        <time>2016-04-29T17:11:44Z</time>
      </trkpt>
      <trkpt lat="59.326645719499" lon="18.046008831107">
        <ele>0</ele>
        <time>2016-04-29T17:11:46Z</time>
      </trkpt>
      <trkpt lat="59.326671116656" lon="18.04570012573">
        <ele>0</ele>
        <time>2016-04-29T17:11:48Z</time>
      </trkpt>
      <trkpt lat="59.326675475244" lon="18.045212550607">
        <ele>0</ele>
        <time>2016-04-29T17:11:51Z</time>
      </trkpt>
      <trkpt lat="59.326679750013" lon="18.045045415521">
        <ele>0</ele>
        <time>2016-04-29T17:11:52Z</time>
      </trkpt>
      <trkpt lat="59.326688299551" lon="18.044062218651">
        <ele>0</ele>
        <time>2016-04-29T17:11:58Z</time>
      </trkpt>
      <trkpt lat="59.326683270411" lon="18.043386553692">
        <ele>0</ele>
        <time>2016-04-29T17:12:03Z</time>
      </trkpt>
      <trkpt lat="59.326685365886" lon="18.04324590541">
        <ele>0</ele>
        <time>2016-04-29T17:12:04Z</time>
      </trkpt>
      <trkpt lat="59.326686371714" lon="18.042630422493">
        <ele>0</ele>
        <time>2016-04-29T17:12:08Z</time>
      </trkpt>
      <trkpt lat="59.326642031463" lon="18.042133292004">
        <ele>0</ele>
        <time>2016-04-29T17:12:11Z</time>
      </trkpt>
      <trkpt lat="59.326596601565" lon="18.041990212971">
        <ele>0</ele>
        <time>2016-04-29T17:12:12Z</time>
      </trkpt>
      <trkpt lat="59.326530133098" lon="18.041407503283">
        <ele>0</ele>
        <time>2016-04-29T17:12:16Z</time>
      </trkpt>
      <trkpt lat="59.326633649563" lon="18.040785566303">
        <ele>0</ele>
        <time>2016-04-29T17:12:20Z</time>
      </trkpt>
      <trkpt lat="59.326701040039" lon="18.040480129867">
        <ele>0</ele>
        <time>2016-04-29T17:12:22Z</time>
      </trkpt>
      <trkpt lat="59.326769017248" lon="18.040195312905">
        <ele>0</ele>
        <time>2016-04-29T17:12:24Z</time>
      </trkpt>
      <trkpt lat="59.326925926416" lon="18.039340107648">
        <ele>0</ele>
        <time>2016-04-29T17:12:30Z</time>
      </trkpt>
      <trkpt lat="59.327006644113" lon="18.038737113762">
        <ele>0</ele>
        <time>2016-04-29T17:12:35Z</time>
      </trkpt>
      <trkpt lat="59.327121979057" lon="18.038306116464">
        <ele>0</ele>
        <time>2016-04-29T17:12:40Z</time>
      </trkpt>
      <trkpt lat="59.327235553802" lon="18.037835053684">
        <ele>0</ele>
        <time>2016-04-29T17:12:45Z</time>
      </trkpt>
      <trkpt lat="59.32729020379" lon="18.037573538404">
        <ele>0</ele>
        <time>2016-04-29T17:12:47Z</time>
      </trkpt>
      <trkpt lat="59.327339908457" lon="18.037303473586">
        <ele>0</ele>
        <time>2016-04-29T17:12:49Z</time>
      </trkpt>
      <trkpt lat="59.327353319497" lon="18.037157628526">
        <ele>0</ele>
        <time>2016-04-29T17:12:50Z</time>
      </trkpt>
      <trkpt lat="59.32743940161" lon="18.036721350631">
        <ele>0</ele>
        <time>2016-04-29T17:12:53Z</time>
      </trkpt>
      <trkpt lat="59.327559933332" lon="18.035843262787">
        <ele>0</ele>
        <time>2016-04-29T17:12:59Z</time>
      </trkpt>
      <trkpt lat="59.327591533095" lon="18.03543648918">
        <ele>0</ele>
        <time>2016-04-29T17:13:02Z</time>
      </trkpt>
      <trkpt lat="59.327559765694" lon="18.035316041277">
        <ele>0</ele>
        <time>2016-04-29T17:13:03Z</time>
      </trkpt>
      <trkpt lat="59.327560017151" lon="18.035077157127">
        <ele>0</ele>
        <time>2016-04-29T17:13:05Z</time>
      </trkpt>
      <trkpt lat="59.327590443448" lon="18.034959894346">
        <ele>0</ele>
        <time>2016-04-29T17:13:06Z</time>
      </trkpt>
      <trkpt lat="59.327634783699" lon="18.034715310504">
        <ele>0</ele>
        <time>2016-04-29T17:13:08Z</time>
      </trkpt>
      <trkpt lat="59.327715333758" lon="18.034312308752">
        <ele>0</ele>
        <time>2016-04-29T17:13:11Z</time>
      </trkpt>
      <trkpt lat="59.327829076141" lon="18.033592722637">
        <ele>0</ele>
        <time>2016-04-29T17:13:16Z</time>
      </trkpt>
      <trkpt lat="59.327990511535" lon="18.03258664318">
        <ele>0</ele>
        <time>2016-04-29T17:13:23Z</time>
      </trkpt>
      <trkpt lat="59.328077850933" lon="18.031845599401">
        <ele>0</ele>
        <time>2016-04-29T17:13:28Z</time>
      </trkpt>
      <trkpt lat="59.328180193932" lon="18.0309588782">
        <ele>0</ele>
        <time>2016-04-29T17:13:34Z</time>
      </trkpt>
      <trkpt lat="59.328241800897" lon="18.030388489905">
        <ele>0</ele>
        <time>2016-04-29T17:13:38Z</time>
      </trkpt>
      <trkpt lat="59.328275999049" lon="18.030123789503">
        <ele>0</ele>
        <time>2016-04-29T17:13:40Z</time>
      </trkpt>
      <trkpt lat="59.328292176116" lon="18.02979882324">
        <ele>0</ele>
        <time>2016-04-29T17:13:43Z</time>
      </trkpt>
      <trkpt lat="59.328275244678" lon="18.029693378938">
        <ele>0</ele>
        <time>2016-04-29T17:13:44Z</time>
      </trkpt>
      <trkpt lat="59.328349424493" lon="18.029433456219">
        <ele>0</ele>
        <time>2016-04-29T17:13:47Z</time>
      </trkpt>
      <trkpt lat="59.328431315656" lon="18.029101616798">
        <ele>0</ele>
        <time>2016-04-29T17:13:50Z</time>
      </trkpt>
      <trkpt lat="59.328458808288" lon="18.028980833619">
        <ele>0</ele>
        <time>2016-04-29T17:13:51Z</time>
      </trkpt>
      <trkpt lat="59.328552685568" lon="18.028513123599">
        <ele>0</ele>
        <time>2016-04-29T17:13:55Z</time>
      </trkpt>
      <trkpt lat="59.328566180427" lon="18.028398543026">
        <ele>0</ele>
        <time>2016-04-29T17:13:56Z</time>
      </trkpt>
      <trkpt lat="59.328546315324" lon="18.02829091943">
        <ele>0</ele>
        <time>2016-04-29T17:13:57Z</time>
      </trkpt>
      <trkpt lat="59.328504657281" lon="18.02819368939">
        <ele>0</ele>
        <time>2016-04-29T17:13:58Z</time>
      </trkpt>
      <trkpt lat="59.328456712813" lon="18.028112804055">
        <ele>0</ele>
        <time>2016-04-29T17:13:59Z</time>
      </trkpt>
      <trkpt lat="59.328385047568" lon="18.028043988656">
        <ele>0</ele>
        <time>2016-04-29T17:14:00Z</time>
      </trkpt>
      <trkpt lat="59.32826250419" lon="18.027841314314">
        <ele>0</ele>
        <time>2016-04-29T17:14:02Z</time>
      </trkpt>
      <trkpt lat="59.328137110966" lon="18.027628581692">
        <ele>0</ele>
        <time>2016-04-29T17:14:04Z</time>
      </trkpt>
      <trkpt lat="59.328009706086" lon="18.027420123839">
        <ele>0</ele>
        <time>2016-04-29T17:14:06Z</time>
      </trkpt>
      <trkpt lat="59.327878445532" lon="18.027230357623">
        <ele>0</ele>
        <time>2016-04-29T17:14:08Z</time>
      </trkpt>
      <trkpt lat="59.327811725608" lon="18.027133295221">
        <ele>0</ele>
        <time>2016-04-29T17:14:09Z</time>
      </trkpt>
      <trkpt lat="59.327746598245" lon="18.027038328294">
        <ele>0</ele>
        <time>2016-04-29T17:14:10Z</time>
      </trkpt>
      <trkpt lat="59.327682895805" lon="18.026939002779">
        <ele>0</ele>
        <time>2016-04-29T17:14:11Z</time>
      </trkpt>
      <trkpt lat="59.327622043211" lon="18.02684755625">
        <ele>0</ele>
        <time>2016-04-29T17:14:12Z</time>
      </trkpt>
      <trkpt lat="59.327426996398" lon="18.026625519719">
        <ele>0</ele>
        <time>2016-04-29T17:14:15Z</time>
      </trkpt>
      <trkpt lat="59.327362036673" lon="18.02656173346">
        <ele>0</ele>
        <time>2016-04-29T17:14:16Z</time>
      </trkpt>
      <trkpt lat="59.327297915138" lon="18.026480009935">
        <ele>0</ele>
        <time>2016-04-29T17:14:17Z</time>
      </trkpt>
      <trkpt lat="59.327063138119" lon="18.026178932087">
        <ele>0</ele>
        <time>2016-04-29T17:14:21Z</time>
      </trkpt>
      <trkpt lat="59.326801203744" lon="18.025754137395">
        <ele>0</ele>
        <time>2016-04-29T17:14:26Z</time>
      </trkpt>
      <trkpt lat="59.326615125564" lon="18.025404863622">
        <ele>0</ele>
        <time>2016-04-29T17:14:30Z</time>
      </trkpt>
      <trkpt lat="59.326570282399" lon="18.025326828133">
        <ele>0</ele>
        <time>2016-04-29T17:14:31Z</time>
      </trkpt>
      <trkpt lat="59.326523762854" lon="18.025240075468">
        <ele>0</ele>
        <time>2016-04-29T17:14:32Z</time>
      </trkpt>
      <trkpt lat="59.326485289933" lon="18.025134044433">
        <ele>0</ele>
        <time>2016-04-29T17:14:33Z</time>
      </trkpt>
      <trkpt lat="59.326448325754" lon="18.02502365481">
        <ele>0</ele>
        <time>2016-04-29T17:14:34Z</time>
      </trkpt>
      <trkpt lat="59.326387054065" lon="18.024826344884">
        <ele>0</ele>
        <time>2016-04-29T17:14:36Z</time>
      </trkpt>
      <trkpt lat="59.326383366029" lon="18.024706567533">
        <ele>0</ele>
        <time>2016-04-29T17:14:37Z</time>
      </trkpt>
      <trkpt lat="59.326401973847" lon="18.024582096318">
        <ele>0</ele>
        <time>2016-04-29T17:14:38Z</time>
      </trkpt>
      <trkpt lat="59.326430472307" lon="18.024456535456">
        <ele>0</ele>
        <time>2016-04-29T17:14:39Z</time>
      </trkpt>
      <trkpt lat="59.326480679888" lon="18.024360981796">
        <ele>0</ele>
        <time>2016-04-29T17:14:40Z</time>
      </trkpt>
      <trkpt lat="59.32652409813" lon="18.02430197322">
        <ele>0</ele>
        <time>2016-04-29T17:14:41Z</time>
      </trkpt>
      <trkpt lat="59.326563995974" lon="18.024244892481">
        <ele>0</ele>
        <time>2016-04-29T17:14:42Z</time>
      </trkpt>
      <trkpt lat="59.326597272117" lon="18.024195355452">
        <ele>0</ele>
        <time>2016-04-29T17:14:43Z</time>
      </trkpt>
      <trkpt lat="59.326624261835" lon="18.024151601934">
        <ele>0.4</ele>
        <time>2016-04-29T17:14:44Z</time>
      </trkpt>
      <trkpt lat="59.32665317939" lon="18.024109357158">
        <ele>1.2</ele>
        <time>2016-04-29T17:14:45Z</time>
      </trkpt>
      <trkpt lat="59.326664997869" lon="18.024077505938">
        <ele>2</ele>
        <time>2016-04-29T17:14:46Z</time>
      </trkpt>
      <trkpt lat="59.32668838337" lon="18.024070129866">
        <ele>2.6</ele>
        <time>2016-04-29T17:14:47Z</time>
      </trkpt>
      <trkpt lat="59.326721240418" lon="18.024039787388">
        <ele>3.4</ele>
        <time>2016-04-29T17:14:48Z</time>
      </trkpt>
      <trkpt lat="59.326745883204" lon="18.024032746592">
        <ele>4.2</ele>
        <time>2016-04-29T17:14:49Z</time>
      </trkpt>
      <trkpt lat="59.32677723151" lon="18.024004248132">
        <ele>4.8</ele>
        <time>2016-04-29T17:14:50Z</time>
      </trkpt>
      <trkpt lat="59.326799527364" lon="18.023980778812">
        <ele>5.2</ele>
        <time>2016-04-29T17:14:51Z</time>
      </trkpt>
      <trkpt lat="59.326840766312" lon="18.023949179049">
        <ele>6.6</ele>
        <time>2016-04-29T17:14:52Z</time>
      </trkpt>
      <trkpt lat="59.326882675812" lon="18.023915735268">
        <ele>7.2</ele>
        <time>2016-04-29T17:14:53Z</time>
      </trkpt>
      <trkpt lat="59.326919556172" lon="18.023887739722">
        <ele>8</ele>
        <time>2016-04-29T17:14:54Z</time>
      </trkpt>
      <trkpt lat="59.326953754324" lon="18.023843650928">
        <ele>8.6</ele>
        <time>2016-04-29T17:14:55Z</time>
      </trkpt>
      <trkpt lat="59.326990215589" lon="18.023820516884">
        <ele>9.4</ele>
        <time>2016-04-29T17:14:56Z</time>
      </trkpt>
      <trkpt lat="59.327018462592" lon="18.023860917642">
        <ele>10</ele>
        <time>2016-04-29T17:14:57Z</time>
      </trkpt>
      <trkpt lat="59.327014606918" lon="18.023871227379">
        <ele>10.8</ele>
        <time>2016-04-29T17:14:58Z</time>
      </trkpt>
      <trkpt lat="59.326998262213" lon="18.023893607052">
        <ele>11.4</ele>
        <time>2016-04-29T17:14:59Z</time>
      </trkpt>
      <trkpt lat="59.326983929164" lon="18.02391053849">
        <ele>11.4</ele>
        <time>2016-04-29T17:15:00Z</time>
      </trkpt>
      <trkpt lat="59.3269289439" lon="18.02397927007">
        <ele>11.4</ele>
        <time>2016-04-29T17:15:02Z</time>
      </trkpt>
      <trkpt lat="59.326852752429" lon="18.024056048274">
        <ele>11.4</ele>
        <time>2016-04-29T17:15:04Z</time>
      </trkpt>
      <trkpt lat="59.326620154704" lon="18.024316725364">
        <ele>11.4</ele>
        <time>2016-04-29T17:15:10Z</time>
      </trkpt>
      <trkpt lat="59.326486631037" lon="18.024518058602">
        <ele>11.4</ele>
        <time>2016-04-29T17:15:14Z</time>
      </trkpt>
      <trkpt lat="59.326413624688" lon="18.024608583122">
        <ele>11.4</ele>
        <time>2016-04-29T17:15:16Z</time>
      </trkpt>
      <trkpt lat="59.326114558496" lon="18.024994737255">
        <ele>11.4</ele>
        <time>2016-04-29T17:15:24Z</time>
      </trkpt>
      <trkpt lat="59.325896377639" lon="18.025232112663">
        <ele>12</ele>
        <time>2016-04-29T17:15:29Z</time>
      </trkpt>
      <trkpt lat="59.325860000193" lon="18.025282236425">
        <ele>12.4</ele>
        <time>2016-04-29T17:15:30Z</time>
      </trkpt>
      <trkpt lat="59.325823287471" lon="18.02532540321">
        <ele>13</ele>
        <time>2016-04-29T17:15:31Z</time>
      </trkpt>
      <trkpt lat="59.325782551437" lon="18.025374102049">
        <ele>13.6</ele>
        <time>2016-04-29T17:15:32Z</time>
      </trkpt>
      <trkpt lat="59.325745084344" lon="18.025419448128">
        <ele>14.2</ele>
        <time>2016-04-29T17:15:33Z</time>
      </trkpt>
      <trkpt lat="59.325707617251" lon="18.025467308777">
        <ele>14.8</ele>
        <time>2016-04-29T17:15:34Z</time>
      </trkpt>
      <trkpt lat="59.325670736891" lon="18.025512235761">
        <ele>15.4</ele>
        <time>2016-04-29T17:15:35Z</time>
      </trkpt>
      <trkpt lat="59.325634107988" lon="18.025551882148">
        <ele>16.2</ele>
        <time>2016-04-29T17:15:36Z</time>
      </trkpt>
      <trkpt lat="59.325490106946" lon="18.025741229269">
        <ele>16.2</ele>
        <time>2016-04-29T17:15:40Z</time>
      </trkpt>
      <trkpt lat="59.325346022085" lon="18.025900317731">
        <ele>16.6</ele>
        <time>2016-04-29T17:15:44Z</time>
      </trkpt>
      <trkpt lat="59.325310315191" lon="18.02593895829">
        <ele>17</ele>
        <time>2016-04-29T17:15:45Z</time>
      </trkpt>
      <trkpt lat="59.325275446487" lon="18.025986902758">
        <ele>17.4</ele>
        <time>2016-04-29T17:15:46Z</time>
      </trkpt>
      <trkpt lat="59.32524334381" lon="18.02603535014">
        <ele>17.8</ele>
        <time>2016-04-29T17:15:47Z</time>
      </trkpt>
      <trkpt lat="59.325209397115" lon="18.026079522753">
        <ele>18.2</ele>
        <time>2016-04-29T17:15:48Z</time>
      </trkpt>
      <trkpt lat="59.324963053074" lon="18.026391329433">
        <ele>18.6</ele>
        <time>2016-04-29T17:15:54Z</time>
      </trkpt>
      <trkpt lat="59.324918796642" lon="18.026448326353">
        <ele>19</ele>
        <time>2016-04-29T17:15:55Z</time>
      </trkpt>
      <trkpt lat="59.324876803323" lon="18.026504233626">
        <ele>19.4</ele>
        <time>2016-04-29T17:15:56Z</time>
      </trkpt>
      <trkpt lat="59.324833217443" lon="18.026559889442">
        <ele>20</ele>
        <time>2016-04-29T17:15:57Z</time>
      </trkpt>
      <trkpt lat="59.324788290459" lon="18.026619065656">
        <ele>20.4</ele>
        <time>2016-04-29T17:15:58Z</time>
      </trkpt>
      <trkpt lat="59.324603301926" lon="18.02684001254">
        <ele>20.4</ele>
        <time>2016-04-29T17:16:02Z</time>
      </trkpt>
      <trkpt lat="59.324452763002" lon="18.027025671625">
        <ele>20.8</ele>
        <time>2016-04-29T17:16:05Z</time>
      </trkpt>
      <trkpt lat="59.324400795222" lon="18.027087949142">
        <ele>21.8</ele>
        <time>2016-04-29T17:16:06Z</time>
      </trkpt>
      <trkpt lat="59.3243473187" lon="18.027149891383">
        <ele>22.2</ele>
        <time>2016-04-29T17:16:07Z</time>
      </trkpt>
      <trkpt lat="59.324297697852" lon="18.027216695126">
        <ele>22.6</ele>
        <time>2016-04-29T17:16:08Z</time>
      </trkpt>
      <trkpt lat="59.324244724244" lon="18.027274111141">
        <ele>22.6</ele>
        <time>2016-04-29T17:16:09Z</time>
      </trkpt>
      <trkpt lat="59.324030063785" lon="18.027542080484">
        <ele>22.2</ele>
        <time>2016-04-29T17:16:13Z</time>
      </trkpt>
      <trkpt lat="59.323974659426" lon="18.027604777096">
        <ele>21.6</ele>
        <time>2016-04-29T17:16:14Z</time>
      </trkpt>
      <trkpt lat="59.323919590343" lon="18.027673592495">
        <ele>21.2</ele>
        <time>2016-04-29T17:16:15Z</time>
      </trkpt>
      <trkpt lat="59.323862425785" lon="18.027738300763">
        <ele>20.6</ele>
        <time>2016-04-29T17:16:16Z</time>
      </trkpt>
      <trkpt lat="59.323804423037" lon="18.027813234949">
        <ele>20.2</ele>
        <time>2016-04-29T17:16:17Z</time>
      </trkpt>
      <trkpt lat="59.323684645686" lon="18.027946171883">
        <ele>20.6</ele>
        <time>2016-04-29T17:16:19Z</time>
      </trkpt>
      <trkpt lat="59.323621194703" lon="18.028014149092">
        <ele>21</ele>
        <time>2016-04-29T17:16:20Z</time>
      </trkpt>
      <trkpt lat="59.323560342109" lon="18.02808472469">
        <ele>21.4</ele>
        <time>2016-04-29T17:16:21Z</time>
      </trkpt>
      <trkpt lat="59.323503931922" lon="18.028153120994">
        <ele>21.8</ele>
        <time>2016-04-29T17:16:22Z</time>
      </trkpt>
      <trkpt lat="59.323443666061" lon="18.028222606945">
        <ele>22.2</ele>
        <time>2016-04-29T17:16:23Z</time>
      </trkpt>
      <trkpt lat="59.323269825455" lon="18.028442128906">
        <ele>21.8</ele>
        <time>2016-04-29T17:16:26Z</time>
      </trkpt>
      <trkpt lat="59.323208302309" lon="18.028519493843">
        <ele>21.4</ele>
        <time>2016-04-29T17:16:27Z</time>
      </trkpt>
      <trkpt lat="59.323144013136" lon="18.028592584011">
        <ele>21</ele>
        <time>2016-04-29T17:16:28Z</time>
      </trkpt>
      <trkpt lat="59.323078047583" lon="18.028672044423">
        <ele>20.6</ele>
        <time>2016-04-29T17:16:29Z</time>
      </trkpt>
      <trkpt lat="59.323011495297" lon="18.028757036889">
        <ele>20.2</ele>
        <time>2016-04-29T17:16:30Z</time>
      </trkpt>
      <trkpt lat="59.322595836876" lon="18.029261291993">
        <ele>20.2</ele>
        <time>2016-04-29T17:16:36Z</time>
      </trkpt>
      <trkpt lat="59.322519561586" lon="18.029337315826">
        <ele>19.6</ele>
        <time>2016-04-29T17:16:37Z</time>
      </trkpt>
      <trkpt lat="59.322448734531" lon="18.029429600545">
        <ele>19.2</ele>
        <time>2016-04-29T17:16:38Z</time>
      </trkpt>
      <trkpt lat="59.322371956327" lon="18.029522974911">
        <ele>18.6</ele>
        <time>2016-04-29T17:16:39Z</time>
      </trkpt>
      <trkpt lat="59.322297608874" lon="18.029604446979">
        <ele>18.2</ele>
        <time>2016-04-29T17:16:40Z</time>
      </trkpt>
      <trkpt lat="59.32222250705" lon="18.029691199644">
        <ele>17.6</ele>
        <time>2016-04-29T17:16:41Z</time>
      </trkpt>
      <trkpt lat="59.32214455538" lon="18.029786418028">
        <ele>17.2</ele>
        <time>2016-04-29T17:16:42Z</time>
      </trkpt>
      <trkpt lat="59.322067525719" lon="18.029876104358">
        <ele>16.8</ele>
        <time>2016-04-29T17:16:43Z</time>
      </trkpt>
      <trkpt lat="59.321985215461" lon="18.029957492607">
        <ele>16.2</ele>
        <time>2016-04-29T17:16:44Z</time>
      </trkpt>
      <trkpt lat="59.32190986218" lon="18.030042820349">
        <ele>15.8</ele>
        <time>2016-04-29T17:16:45Z</time>
      </trkpt>
      <trkpt lat="59.321827132827" lon="18.03012571734">
        <ele>15.2</ele>
        <time>2016-04-29T17:16:46Z</time>
      </trkpt>
      <trkpt lat="59.321749348795" lon="18.030194784196">
        <ele>14.6</ele>
        <time>2016-04-29T17:16:47Z</time>
      </trkpt>
      <trkpt lat="59.321667709089" lon="18.030261336482">
        <ele>14</ele>
        <time>2016-04-29T17:16:48Z</time>
      </trkpt>
      <trkpt lat="59.321585566469" lon="18.030323781637">
        <ele>13.4</ele>
        <time>2016-04-29T17:16:49Z</time>
      </trkpt>
      <trkpt lat="59.321504932591" lon="18.030384298955">
        <ele>12.8</ele>
        <time>2016-04-29T17:16:50Z</time>
      </trkpt>
      <trkpt lat="59.321340395894" lon="18.030505920324">
        <ele>12.8</ele>
        <time>2016-04-29T17:16:52Z</time>
      </trkpt>
      <trkpt lat="59.321173344627" lon="18.030613460101">
        <ele>12.4</ele>
        <time>2016-04-29T17:16:54Z</time>
      </trkpt>
      <trkpt lat="59.32108927417" lon="18.03066132075">
        <ele>12</ele>
        <time>2016-04-29T17:16:55Z</time>
      </trkpt>
      <trkpt lat="59.321007885921" lon="18.030702894974">
        <ele>11.2</ele>
        <time>2016-04-29T17:16:56Z</time>
      </trkpt>
      <trkpt lat="59.320923480188" lon="18.030749582157">
        <ele>10.8</ele>
        <time>2016-04-29T17:16:57Z</time>
      </trkpt>
      <trkpt lat="59.320840080283" lon="18.030793168037">
        <ele>10.2</ele>
        <time>2016-04-29T17:16:58Z</time>
      </trkpt>
      <trkpt lat="59.320760033138" lon="18.030834993718">
        <ele>9.8</ele>
        <time>2016-04-29T17:16:59Z</time>
      </trkpt>
      <trkpt lat="59.320680572726" lon="18.030881261806">
        <ele>9.4</ele>
        <time>2016-04-29T17:17:00Z</time>
      </trkpt>
      <trkpt lat="59.32059893302" lon="18.030927613713">
        <ele>9</ele>
        <time>2016-04-29T17:17:01Z</time>
      </trkpt>
      <trkpt lat="59.320513689097" lon="18.030975055267">
        <ele>8.4</ele>
        <time>2016-04-29T17:17:02Z</time>
      </trkpt>
      <trkpt lat="59.320260471898" lon="18.031115452092">
        <ele>8.4</ele>
        <time>2016-04-29T17:17:05Z</time>
      </trkpt>
      <trkpt lat="59.31980013795" lon="18.031343020677">
        <ele>8.4</ele>
        <time>2016-04-29T17:17:11Z</time>
      </trkpt>
      <trkpt lat="59.31941792331" lon="18.031572517099">
        <ele>8.4</ele>
        <time>2016-04-29T17:17:16Z</time>
      </trkpt>
      <trkpt lat="59.318977957379" lon="18.031747279714">
        <ele>8.4</ele>
        <time>2016-04-29T17:17:22Z</time>
      </trkpt>
      <trkpt lat="59.318681238119" lon="18.031842917193">
        <ele>8</ele>
        <time>2016-04-29T17:17:26Z</time>
      </trkpt>
      <trkpt lat="59.318615021109" lon="18.031858758984">
        <ele>7.6</ele>
        <time>2016-04-29T17:17:27Z</time>
      </trkpt>
      <trkpt lat="59.318546792443" lon="18.031875690422">
        <ele>7.2</ele>
        <time>2016-04-29T17:17:28Z</time>
      </trkpt>
      <trkpt lat="59.31848753241" lon="18.031873930223">
        <ele>6.8</ele>
        <time>2016-04-29T17:17:29Z</time>
      </trkpt>
      <trkpt lat="59.318439001209" lon="18.031869739273">
        <ele>6.2</ele>
        <time>2016-04-29T17:17:30Z</time>
      </trkpt>
      <trkpt lat="59.318400695926" lon="18.031871164196">
        <ele>6.2</ele>
        <time>2016-04-29T17:17:31Z</time>
      </trkpt>
      <trkpt lat="59.31836850943" lon="18.031881893028">
        <ele>6.6</ele>
        <time>2016-04-29T17:17:32Z</time>
      </trkpt>
      <trkpt lat="59.318345459205" lon="18.031888682367">
        <ele>7.2</ele>
        <time>2016-04-29T17:17:33Z</time>
      </trkpt>
      <trkpt lat="59.318331293794" lon="18.031901674312">
        <ele>7.6</ele>
        <time>2016-04-29T17:17:34Z</time>
      </trkpt>
      <trkpt lat="59.318335736201" lon="18.031905278529">
        <ele>8</ele>
        <time>2016-04-29T17:17:35Z</time>
      </trkpt>
      <trkpt lat="59.318313021252" lon="18.031924808356">
        <ele>8.4</ele>
        <time>2016-04-29T17:17:52Z</time>
      </trkpt>
      <trkpt lat="59.318300951316" lon="18.031960096155">
        <ele>8.4</ele>
        <time>2016-04-29T17:17:53Z</time>
      </trkpt>
      <trkpt lat="59.318273207227" lon="18.031983314018">
        <ele>8.4</ele>
        <time>2016-04-29T17:17:54Z</time>
      </trkpt>
      <trkpt lat="59.31816231469" lon="18.032031174667">
        <ele>8.4</ele>
        <time>2016-04-29T17:17:57Z</time>
      </trkpt>
      <trkpt lat="59.31813884537" lon="18.032031342305">
        <ele>8.4</ele>
        <time>2016-04-29T17:17:58Z</time>
      </trkpt>
      <trkpt lat="59.317973135207" lon="18.032116334771">
        <ele>8.4</ele>
        <time>2016-04-29T17:18:01Z</time>
      </trkpt>
      <trkpt lat="59.317909097491" lon="18.032177857917">
        <ele>8.4</ele>
        <time>2016-04-29T17:18:02Z</time>
      </trkpt>
      <trkpt lat="59.317821674274" lon="18.032300066019">
        <ele>8.4</ele>
        <time>2016-04-29T17:18:04Z</time>
      </trkpt>
      <trkpt lat="59.317776831109" lon="18.032361002432">
        <ele>8.4</ele>
        <time>2016-04-29T17:18:06Z</time>
      </trkpt>
      <trkpt lat="59.317761743689" lon="18.03237374292">
        <ele>8.4</ele>
        <time>2016-04-29T17:18:07Z</time>
      </trkpt>
      <trkpt lat="59.31775830711" lon="18.032375167843">
        <ele>8.4</ele>
        <time>2016-04-29T17:18:09Z</time>
      </trkpt>
      <trkpt lat="59.317717654895" lon="18.032490083692">
        <ele>8.4</ele>
        <time>2016-04-29T17:18:14Z</time>
      </trkpt>
      <trkpt lat="59.317699717629" lon="18.032501566895">
        <ele>8.4</ele>
        <time>2016-04-29T17:18:15Z</time>
      </trkpt>
      <trkpt lat="59.317539455701" lon="18.032590079759">
        <ele>8.4</ele>
        <time>2016-04-29T17:18:19Z</time>
      </trkpt>
      <trkpt lat="59.317329489106" lon="18.032676580967">
        <ele>8.4</ele>
        <time>2016-04-29T17:18:24Z</time>
      </trkpt>
      <trkpt lat="59.317211555773" lon="18.032764842374">
        <ele>8.4</ele>
        <time>2016-04-29T17:18:28Z</time>
      </trkpt>
      <trkpt lat="59.317166712608" lon="18.032787389685">
        <ele>8.4</ele>
        <time>2016-04-29T17:18:29Z</time>
      </trkpt>
      <trkpt lat="59.317019358806" lon="18.032867520649">
        <ele>7.8</ele>
        <time>2016-04-29T17:18:32Z</time>
      </trkpt>
      <trkpt lat="59.316962948619" lon="18.032893085444">
        <ele>7.4</ele>
        <time>2016-04-29T17:18:33Z</time>
      </trkpt>
      <trkpt lat="59.316920536205" lon="18.032947567794">
        <ele>6.8</ele>
        <time>2016-04-29T17:18:34Z</time>
      </trkpt>
      <trkpt lat="59.316854654471" lon="18.032993752063">
        <ele>5.8</ele>
        <time>2016-04-29T17:18:35Z</time>
      </trkpt>
      <trkpt lat="59.316788772737" lon="18.033050581345">
        <ele>5.8</ele>
        <time>2016-04-29T17:18:36Z</time>
      </trkpt>
      <trkpt lat="59.316419885318" lon="18.033240850475">
        <ele>5.8</ele>
        <time>2016-04-29T17:18:41Z</time>
      </trkpt>
      <trkpt lat="59.316283847081" lon="18.033303882363">
        <ele>5.4</ele>
        <time>2016-04-29T17:18:43Z</time>
      </trkpt>
      <trkpt lat="59.316233890957" lon="18.033319388878">
        <ele>5</ele>
        <time>2016-04-29T17:18:44Z</time>
      </trkpt>
      <trkpt lat="59.316188880154" lon="18.033345708044">
        <ele>4.4</ele>
        <time>2016-04-29T17:18:45Z</time>
      </trkpt>
      <trkpt lat="59.316143617894" lon="18.033368590631">
        <ele>4</ele>
        <time>2016-04-29T17:18:46Z</time>
      </trkpt>
      <trkpt lat="59.316114281244" lon="18.033381498757">
        <ele>3.6</ele>
        <time>2016-04-29T17:18:47Z</time>
      </trkpt>
      <trkpt lat="59.316105731706" lon="18.033390718847">
        <ele>3.6</ele>
        <time>2016-04-29T17:18:49Z</time>
      </trkpt>
      <trkpt lat="59.316090979562" lon="18.033395664168">
        <ele>5.6</ele>
        <time>2016-04-29T17:19:08Z</time>
      </trkpt>
      <trkpt lat="59.316030629882" lon="18.033432293071">
        <ele>5.6</ele>
        <time>2016-04-29T17:19:10Z</time>
      </trkpt>
      <trkpt lat="59.31591848006" lon="18.033521895582">
        <ele>5</ele>
        <time>2016-04-29T17:19:12Z</time>
      </trkpt>
      <trkpt lat="59.315866596099" lon="18.0335488853">
        <ele>4.6</ele>
        <time>2016-04-29T17:19:13Z</time>
      </trkpt>
      <trkpt lat="59.315816472337" lon="18.033569756231">
        <ele>4.2</ele>
        <time>2016-04-29T17:19:14Z</time>
      </trkpt>
      <trkpt lat="59.315773305552" lon="18.033590208067">
        <ele>3.8</ele>
        <time>2016-04-29T17:19:15Z</time>
      </trkpt>
      <trkpt lat="59.315735587002" lon="18.033609737894">
        <ele>3.2</ele>
        <time>2016-04-29T17:19:16Z</time>
      </trkpt>
      <trkpt lat="59.315614803823" lon="18.033658855828">
        <ele>3.2</ele>
        <time>2016-04-29T17:19:18Z</time>
      </trkpt>
      <trkpt lat="59.315519669258" lon="18.033674781438">
        <ele>3.2</ele>
        <time>2016-04-29T17:19:21Z</time>
      </trkpt>
      <trkpt lat="59.315507683141" lon="18.03366874647">
        <ele>3.2</ele>
        <time>2016-04-29T17:19:24Z</time>
      </trkpt>
      <trkpt lat="59.315463259071" lon="18.033673607972">
        <ele>3.2</ele>
        <time>2016-04-29T17:19:40Z</time>
      </trkpt>
      <trkpt lat="59.315398299346" lon="18.033672602144">
        <ele>3.2</ele>
        <time>2016-04-29T17:19:42Z</time>
      </trkpt>
      <trkpt lat="59.315359491149" lon="18.033700094776">
        <ele>3.2</ele>
        <time>2016-04-29T17:19:43Z</time>
      </trkpt>
      <trkpt lat="59.315240551988" lon="18.033840240144">
        <ele>3.2</ele>
        <time>2016-04-29T17:19:46Z</time>
      </trkpt>
      <trkpt lat="59.315196547013" lon="18.033882149644">
        <ele>3.2</ele>
        <time>2016-04-29T17:19:47Z</time>
      </trkpt>
      <trkpt lat="59.315083810458" lon="18.033946103541">
        <ele>3.2</ele>
        <time>2016-04-29T17:19:49Z</time>
      </trkpt>
      <trkpt lat="59.315023544597" lon="18.033966639196">
        <ele>3.6</ele>
        <time>2016-04-29T17:19:50Z</time>
      </trkpt>
      <trkpt lat="59.314958081958" lon="18.033980469331">
        <ele>4</ele>
        <time>2016-04-29T17:19:51Z</time>
      </trkpt>
      <trkpt lat="59.314898486649" lon="18.034002094633">
        <ele>4.6</ele>
        <time>2016-04-29T17:19:52Z</time>
      </trkpt>
      <trkpt lat="59.314824474472" lon="18.034031179826">
        <ele>5</ele>
        <time>2016-04-29T17:19:53Z</time>
      </trkpt>
      <trkpt lat="59.314749540286" lon="18.0340517993">
        <ele>5.4</ele>
        <time>2016-04-29T17:19:54Z</time>
      </trkpt>
      <trkpt lat="59.31469472266" lon="18.033991114344">
        <ele>5.4</ele>
        <time>2016-04-29T17:19:55Z</time>
      </trkpt>
      <trkpt lat="59.314558265328" lon="18.033764719225">
        <ele>5.4</ele>
        <time>2016-04-29T17:19:58Z</time>
      </trkpt>
      <trkpt lat="59.314333546589" lon="18.033426258103">
        <ele>6</ele>
        <time>2016-04-29T17:20:03Z</time>
      </trkpt>
      <trkpt lat="59.314282836094" lon="18.033337326144">
        <ele>6.4</ele>
        <time>2016-04-29T17:20:04Z</time>
      </trkpt>
      <trkpt lat="59.314232712332" lon="18.033277982292">
        <ele>7</ele>
        <time>2016-04-29T17:20:05Z</time>
      </trkpt>
      <trkpt lat="59.314190635194" lon="18.033213357843">
        <ele>7.6</ele>
        <time>2016-04-29T17:20:06Z</time>
      </trkpt>
      <trkpt lat="59.314160627992" lon="18.033168849954">
        <ele>8.4</ele>
        <time>2016-04-29T17:20:07Z</time>
      </trkpt>
      <trkpt lat="59.314140762889" lon="18.033130377033">
        <ele>9</ele>
        <time>2016-04-29T17:20:08Z</time>
      </trkpt>
      <trkpt lat="59.314115281913" lon="18.033083186936">
        <ele>9.6</ele>
        <time>2016-04-29T17:20:09Z</time>
      </trkpt>
      <trkpt lat="59.314073372413" lon="18.033017556659">
        <ele>10.4</ele>
        <time>2016-04-29T17:20:10Z</time>
      </trkpt>
      <trkpt lat="59.313986619748" lon="18.032852768505">
        <ele>10.4</ele>
        <time>2016-04-29T17:20:12Z</time>
      </trkpt>
      <trkpt lat="59.313841109964" lon="18.032589912121">
        <ele>10.4</ele>
        <time>2016-04-29T17:20:15Z</time>
      </trkpt>
      <trkpt lat="59.313784280682" lon="18.032493101176">
        <ele>10.8</ele>
        <time>2016-04-29T17:20:16Z</time>
      </trkpt>
      <trkpt lat="59.313733486368" lon="18.032395703498">
        <ele>11.2</ele>
        <time>2016-04-29T17:20:17Z</time>
      </trkpt>
      <trkpt lat="59.31368302733" lon="18.032304676064">
        <ele>11.6</ele>
        <time>2016-04-29T17:20:18Z</time>
      </trkpt>
      <trkpt lat="59.313632316835" lon="18.032211385517">
        <ele>12</ele>
        <time>2016-04-29T17:20:19Z</time>
      </trkpt>
      <trkpt lat="59.313578588856" lon="18.032126393051">
        <ele>12.6</ele>
        <time>2016-04-29T17:20:20Z</time>
      </trkpt>
      <trkpt lat="59.313412627236" lon="18.03182389028">
        <ele>12.6</ele>
        <time>2016-04-29T17:20:23Z</time>
      </trkpt>
      <trkpt lat="59.31305103207" lon="18.03114244181">
        <ele>12.2</ele>
        <time>2016-04-29T17:20:29Z</time>
      </trkpt>
      <trkpt lat="59.31298900601" lon="18.031021574812">
        <ele>11.6</ele>
        <time>2016-04-29T17:20:30Z</time>
      </trkpt>
      <trkpt lat="59.312926644674" lon="18.030896516864">
        <ele>11.2</ele>
        <time>2016-04-29T17:20:31Z</time>
      </trkpt>
      <trkpt lat="59.312866043537" lon="18.030766345957">
        <ele>10.8</ele>
        <time>2016-04-29T17:20:32Z</time>
      </trkpt>
      <trkpt lat="59.312793791559" lon="18.030635169222">
        <ele>10.4</ele>
        <time>2016-04-29T17:20:33Z</time>
      </trkpt>
      <trkpt lat="59.312660519349" lon="18.030388406086">
        <ele>9.8</ele>
        <time>2016-04-29T17:20:35Z</time>
      </trkpt>
      <trkpt lat="59.312594637615" lon="18.030271646219">
        <ele>9.4</ele>
        <time>2016-04-29T17:20:36Z</time>
      </trkpt>
      <trkpt lat="59.312529929347" lon="18.030154383438">
        <ele>8.4</ele>
        <time>2016-04-29T17:20:37Z</time>
      </trkpt>
      <trkpt lat="59.312469998762" lon="18.030030834232">
        <ele>7.6</ele>
        <time>2016-04-29T17:20:38Z</time>
      </trkpt>
      <trkpt lat="59.312410487272" lon="18.029914828736">
        <ele>5.8</ele>
        <time>2016-04-29T17:20:39Z</time>
      </trkpt>
      <trkpt lat="59.312344270262" lon="18.02978960315">
        <ele>5</ele>
        <time>2016-04-29T17:20:40Z</time>
      </trkpt>
      <trkpt lat="59.31221368026" lon="18.029561866927">
        <ele>5</ele>
        <time>2016-04-29T17:20:42Z</time>
      </trkpt>
      <trkpt lat="59.31203179303" lon="18.029195494078">
        <ele>4.6</ele>
        <time>2016-04-29T17:20:45Z</time>
      </trkpt>
      <trkpt lat="59.31198653077" lon="18.029057528004">
        <ele>4</ele>
        <time>2016-04-29T17:20:46Z</time>
      </trkpt>
      <trkpt lat="59.311946381469" lon="18.028923082328">
        <ele>3.6</ele>
        <time>2016-04-29T17:20:47Z</time>
      </trkpt>
      <trkpt lat="59.311901203028" lon="18.028795090715">
        <ele>3.2</ele>
        <time>2016-04-29T17:20:48Z</time>
      </trkpt>
      <trkpt lat="59.31187086055" lon="18.02867732502">
        <ele>2.8</ele>
        <time>2016-04-29T17:20:49Z</time>
      </trkpt>
      <trkpt lat="59.311803302436" lon="18.028496108342">
        <ele>2.8</ele>
        <time>2016-04-29T17:20:51Z</time>
      </trkpt>
      <trkpt lat="59.311784946075" lon="18.028450929901">
        <ele>3.2</ele>
        <time>2016-04-29T17:20:54Z</time>
      </trkpt>
      <trkpt lat="59.311784024066" lon="18.028451600453">
        <ele>3.6</ele>
        <time>2016-04-29T17:20:55Z</time>
      </trkpt>
      <trkpt lat="59.311771618854" lon="18.028433830825">
        <ele>4</ele>
        <time>2016-04-29T17:20:56Z</time>
      </trkpt>
      <trkpt lat="59.311746473154" lon="18.028400470863">
        <ele>4.4</ele>
        <time>2016-04-29T17:20:57Z</time>
      </trkpt>
      <trkpt lat="59.31170573712" lon="18.028363674322">
        <ele>5</ele>
        <time>2016-04-29T17:20:58Z</time>
      </trkpt>
      <trkpt lat="59.311601969198" lon="18.028299888063">
        <ele>5</ele>
        <time>2016-04-29T17:21:00Z</time>
      </trkpt>
      <trkpt lat="59.311421842167" lon="18.028217661624">
        <ele>4</ele>
        <time>2016-04-29T17:21:03Z</time>
      </trkpt>
      <trkpt lat="59.311357720632" lon="18.028162843998">
        <ele>3.6</ele>
        <time>2016-04-29T17:21:04Z</time>
      </trkpt>
      <trkpt lat="59.311290497794" lon="18.028104254517">
        <ele>3.2</ele>
        <time>2016-04-29T17:21:05Z</time>
      </trkpt>
      <trkpt lat="59.31122713063" lon="18.028019597327">
        <ele>2.8</ele>
        <time>2016-04-29T17:21:06Z</time>
      </trkpt>
      <trkpt lat="59.311104587252" lon="18.027853048974">
        <ele>2.8</ele>
        <time>2016-04-29T17:21:08Z</time>
      </trkpt>
      <trkpt lat="59.310621705993" lon="18.027189873046">
        <ele>3.2</ele>
        <time>2016-04-29T17:21:16Z</time>
      </trkpt>
      <trkpt lat="59.310552471499" lon="18.027113430118">
        <ele>3.6</ele>
        <time>2016-04-29T17:21:17Z</time>
      </trkpt>
      <trkpt lat="59.310487344136" lon="18.027042770701">
        <ele>4.2</ele>
        <time>2016-04-29T17:21:18Z</time>
      </trkpt>
      <trkpt lat="59.310416768538" lon="18.026969429076">
        <ele>4.6</ele>
        <time>2016-04-29T17:21:19Z</time>
      </trkpt>
      <trkpt lat="59.310347534044" lon="18.026903044428">
        <ele>5</ele>
        <time>2016-04-29T17:21:20Z</time>
      </trkpt>
      <trkpt lat="59.310277293722" lon="18.026841772739">
        <ele>5</ele>
        <time>2016-04-29T17:21:21Z</time>
      </trkpt>
      <trkpt lat="59.31015173286" lon="18.026670614341">
        <ele>5</ele>
        <time>2016-04-29T17:21:23Z</time>
      </trkpt>
      <trkpt lat="59.310011587492" lon="18.026482356867">
        <ele>5</ele>
        <time>2016-04-29T17:21:25Z</time>
      </trkpt>
      <trkpt lat="59.309805644209" lon="18.026207765823">
        <ele>4.2</ele>
        <time>2016-04-29T17:21:28Z</time>
      </trkpt>
      <trkpt lat="59.309746719452" lon="18.026114391457">
        <ele>3.8</ele>
        <time>2016-04-29T17:21:29Z</time>
      </trkpt>
      <trkpt lat="59.309682262641" lon="18.026021603824">
        <ele>3.4</ele>
        <time>2016-04-29T17:21:30Z</time>
      </trkpt>
      <trkpt lat="59.309618476382" lon="18.025926050164">
        <ele>3</ele>
        <time>2016-04-29T17:21:31Z</time>
      </trkpt>
      <trkpt lat="59.309266268944" lon="18.025412742608">
        <ele>3</ele>
        <time>2016-04-29T17:21:37Z</time>
      </trkpt>
      <trkpt lat="59.309230394412" lon="18.025303945546">
        <ele>3.6</ele>
        <time>2016-04-29T17:21:38Z</time>
      </trkpt>
      <trkpt lat="59.309242967262" lon="18.025160782694">
        <ele>4.2</ele>
        <time>2016-04-29T17:21:39Z</time>
      </trkpt>
      <trkpt lat="59.309271298084" lon="18.02505382965">
        <ele>4.8</ele>
        <time>2016-04-29T17:21:40Z</time>
      </trkpt>
      <trkpt lat="59.309274650844" lon="18.024941679828">
        <ele>5.2</ele>
        <time>2016-04-29T17:21:41Z</time>
      </trkpt>
      <trkpt lat="59.30924062033" lon="18.024851574403">
        <ele>5.8</ele>
        <time>2016-04-29T17:21:42Z</time>
      </trkpt>
      <trkpt lat="59.309107515758" lon="18.024741520056">
        <ele>5.8</ele>
        <time>2016-04-29T17:21:45Z</time>
      </trkpt>
      <trkpt lat="59.309066109172" lon="18.024780663529">
        <ele>5.8</ele>
        <time>2016-04-29T17:21:46Z</time>
      </trkpt>
      <trkpt lat="59.309032916848" lon="18.024864063434">
        <ele>5.8</ele>
        <time>2016-04-29T17:21:47Z</time>
      </trkpt>
      <trkpt lat="59.308839546415" lon="18.024810586912">
        <ele>5.8</ele>
        <time>2016-04-29T17:21:50Z</time>
      </trkpt>
      <trkpt lat="59.308717757408" lon="18.024641356351">
        <ele>5.8</ele>
        <time>2016-04-29T17:21:52Z</time>
      </trkpt>
      <trkpt lat="59.308598315333" lon="18.024490817427">
        <ele>5.8</ele>
        <time>2016-04-29T17:21:54Z</time>
      </trkpt>
      <trkpt lat="59.308244934429" lon="18.02401195948">
        <ele>5.8</ele>
        <time>2016-04-29T17:22:00Z</time>
      </trkpt>
      <trkpt lat="59.307810919647" lon="18.023448444343">
        <ele>5.8</ele>
        <time>2016-04-29T17:22:07Z</time>
      </trkpt>
      <trkpt lat="59.307506908134" lon="18.022976543373">
        <ele>5.8</ele>
        <time>2016-04-29T17:22:12Z</time>
      </trkpt>
      <trkpt lat="59.307349328414" lon="18.022657025345">
        <ele>5.8</ele>
        <time>2016-04-29T17:22:15Z</time>
      </trkpt>
      <trkpt lat="59.307256792238" lon="18.022420991041">
        <ele>5.8</ele>
        <time>2016-04-29T17:22:17Z</time>
      </trkpt>
      <trkpt lat="59.307075910836" lon="18.021838616629">
        <ele>5.8</ele>
        <time>2016-04-29T17:22:22Z</time>
      </trkpt>
      <trkpt lat="59.306987733248" lon="18.02145883274">
        <ele>5.8</ele>
        <time>2016-04-29T17:22:25Z</time>
      </trkpt>
      <trkpt lat="59.30695655258" lon="18.021195976356">
        <ele>5.8</ele>
        <time>2016-04-29T17:22:27Z</time>
      </trkpt>
      <trkpt lat="59.306945153196" lon="18.021063458517">
        <ele>6.2</ele>
        <time>2016-04-29T17:22:28Z</time>
      </trkpt>
      <trkpt lat="59.306937944762" lon="18.020928761384">
        <ele>6.6</ele>
        <time>2016-04-29T17:22:29Z</time>
      </trkpt>
      <trkpt lat="59.30692051041" lon="18.020800350676">
        <ele>7.2</ele>
        <time>2016-04-29T17:22:30Z</time>
      </trkpt>
      <trkpt lat="59.306900980583" lon="18.020662300783">
        <ele>7.6</ele>
        <time>2016-04-29T17:22:31Z</time>
      </trkpt>
      <trkpt lat="59.30688446824" lon="18.020541182328">
        <ele>8</ele>
        <time>2016-04-29T17:22:32Z</time>
      </trkpt>
      <trkpt lat="59.306837613419" lon="18.020050505902">
        <ele>8</ele>
        <time>2016-04-29T17:22:36Z</time>
      </trkpt>
      <trkpt lat="59.306808025312" lon="18.019816986168">
        <ele>8</ele>
        <time>2016-04-29T17:22:38Z</time>
      </trkpt>
      <trkpt lat="59.306805929837" lon="18.019705087803">
        <ele>8.4</ele>
        <time>2016-04-29T17:22:39Z</time>
      </trkpt>
      <trkpt lat="59.30679897286" lon="18.019596458379">
        <ele>8.8</ele>
        <time>2016-04-29T17:22:40Z</time>
      </trkpt>
      <trkpt lat="59.306792770254" lon="18.019491181715">
        <ele>9.2</ele>
        <time>2016-04-29T17:22:41Z</time>
      </trkpt>
      <trkpt lat="59.306781203232" lon="18.01938515068">
        <ele>10</ele>
        <time>2016-04-29T17:22:42Z</time>
      </trkpt>
      <trkpt lat="59.306771647866" lon="18.019285657527">
        <ele>10</ele>
        <time>2016-04-29T17:22:43Z</time>
      </trkpt>
      <trkpt lat="59.306757817731" lon="18.019087760868">
        <ele>10.4</ele>
        <time>2016-04-29T17:22:45Z</time>
      </trkpt>
      <trkpt lat="59.306749854926" lon="18.018995559968">
        <ele>10.8</ele>
        <time>2016-04-29T17:22:46Z</time>
      </trkpt>
      <trkpt lat="59.306743065587" lon="18.01890319143">
        <ele>11.2</ele>
        <time>2016-04-29T17:22:47Z</time>
      </trkpt>
      <trkpt lat="59.306727978167" lon="18.018814008014">
        <ele>11.6</ele>
        <time>2016-04-29T17:22:48Z</time>
      </trkpt>
      <trkpt lat="59.306722027018" lon="18.018725243693">
        <ele>12</ele>
        <time>2016-04-29T17:22:49Z</time>
      </trkpt>
      <trkpt lat="59.306717836068" lon="18.018645783281">
        <ele>12</ele>
        <time>2016-04-29T17:22:50Z</time>
      </trkpt>
      <trkpt lat="59.30670006644" lon="18.018400361249">
        <ele>12.4</ele>
        <time>2016-04-29T17:22:53Z</time>
      </trkpt>
      <trkpt lat="59.306697803327" lon="18.018319392095">
        <ele>13</ele>
        <time>2016-04-29T17:22:54Z</time>
      </trkpt>
      <trkpt lat="59.306682045355" lon="18.018229454308">
        <ele>13.4</ele>
        <time>2016-04-29T17:22:55Z</time>
      </trkpt>
      <trkpt lat="59.306675591292" lon="18.018124345282">
        <ele>13.8</ele>
        <time>2016-04-29T17:22:56Z</time>
      </trkpt>
      <trkpt lat="59.306661844976" lon="18.018022169921">
        <ele>14.4</ele>
        <time>2016-04-29T17:22:57Z</time>
      </trkpt>
      <trkpt lat="59.306621695675" lon="18.017674488709">
        <ele>14.8</ele>
        <time>2016-04-29T17:23:00Z</time>
      </trkpt>
      <trkpt lat="59.306615073974" lon="18.01756544019">
        <ele>15.2</ele>
        <time>2016-04-29T17:23:01Z</time>
      </trkpt>
      <trkpt lat="59.306608284635" lon="18.017461672268">
        <ele>15.6</ele>
        <time>2016-04-29T17:23:02Z</time>
      </trkpt>
      <trkpt lat="59.306602417305" lon="18.017359580726">
        <ele>16</ele>
        <time>2016-04-29T17:23:03Z</time>
      </trkpt>
      <trkpt lat="59.306596885251" lon="18.017263105057">
        <ele>16.6</ele>
        <time>2016-04-29T17:23:04Z</time>
      </trkpt>
      <trkpt lat="59.306580792003" lon="18.017077865067">
        <ele>16.6</ele>
        <time>2016-04-29T17:23:06Z</time>
      </trkpt>
      <trkpt lat="59.306566039859" lon="18.016859097477">
        <ele>16.6</ele>
        <time>2016-04-29T17:23:08Z</time>
      </trkpt>
      <trkpt lat="59.306512228061" lon="18.016298683643">
        <ele>16.6</ele>
        <time>2016-04-29T17:23:13Z</time>
      </trkpt>
      <trkpt lat="59.306494374614" lon="18.016176978455">
        <ele>16.6</ele>
        <time>2016-04-29T17:23:14Z</time>
      </trkpt>
      <trkpt lat="59.306424721025" lon="18.015440041807">
        <ele>16.6</ele>
        <time>2016-04-29T17:23:20Z</time>
      </trkpt>
      <trkpt lat="59.30636395225" lon="18.014714588362">
        <ele>16.6</ele>
        <time>2016-04-29T17:23:26Z</time>
      </trkpt>
      <trkpt lat="59.306286922589" lon="18.013838512174">
        <ele>16.6</ele>
        <time>2016-04-29T17:23:33Z</time>
      </trkpt>
      <trkpt lat="59.306267476581" lon="18.013544894217">
        <ele>16.6</ele>
        <time>2016-04-29T17:23:36Z</time>
      </trkpt>
      <trkpt lat="59.306251550971" lon="18.013473312791">
        <ele>17</ele>
        <time>2016-04-29T17:23:38Z</time>
      </trkpt>
      <trkpt lat="59.306253646446" lon="18.013455459344">
        <ele>17.4</ele>
        <time>2016-04-29T17:23:39Z</time>
      </trkpt>
      <trkpt lat="59.306249623134" lon="18.013449005281">
        <ele>17.8</ele>
        <time>2016-04-29T17:23:40Z</time>
      </trkpt>
      <trkpt lat="59.306245180727" lon="18.013388571782">
        <ele>18.6</ele>
        <time>2016-04-29T17:23:43Z</time>
      </trkpt>
      <trkpt lat="59.30621307805" lon="18.013131331271">
        <ele>18.6</ele>
        <time>2016-04-29T17:23:47Z</time>
      </trkpt>
      <trkpt lat="59.306155997311" lon="18.012487266075">
        <ele>18.6</ele>
        <time>2016-04-29T17:23:53Z</time>
      </trkpt>
      <trkpt lat="59.306106544101" lon="18.011957446176">
        <ele>18.6</ele>
        <time>2016-04-29T17:23:57Z</time>
      </trkpt>
      <trkpt lat="59.306039405082" lon="18.011311620781">
        <ele>19.2</ele>
        <time>2016-04-29T17:24:02Z</time>
      </trkpt>
      <trkpt lat="59.306028173336" lon="18.011184718815">
        <ele>19.6</ele>
        <time>2016-04-29T17:24:03Z</time>
      </trkpt>
      <trkpt lat="59.306016690133" lon="18.011057816849">
        <ele>20.2</ele>
        <time>2016-04-29T17:24:04Z</time>
      </trkpt>
      <trkpt lat="59.306003195274" lon="18.010931082521">
        <ele>20.6</ele>
        <time>2016-04-29T17:24:05Z</time>
      </trkpt>
      <trkpt lat="59.305989113682" lon="18.010798061768">
        <ele>21.2</ele>
        <time>2016-04-29T17:24:06Z</time>
      </trkpt>
      <trkpt lat="59.305948293829" lon="18.010426492141">
        <ele>21.2</ele>
        <time>2016-04-29T17:24:09Z</time>
      </trkpt>
      <trkpt lat="59.305902696293" lon="18.010065818984">
        <ele>21.6</ele>
        <time>2016-04-29T17:24:12Z</time>
      </trkpt>
      <trkpt lat="59.305884339932" lon="18.009941096312">
        <ele>22</ele>
        <time>2016-04-29T17:24:13Z</time>
      </trkpt>
      <trkpt lat="59.305873778738" lon="18.009802794962">
        <ele>22.4</ele>
        <time>2016-04-29T17:24:14Z</time>
      </trkpt>
      <trkpt lat="59.305863385182" lon="18.009671785865">
        <ele>22.8</ele>
        <time>2016-04-29T17:24:15Z</time>
      </trkpt>
      <trkpt lat="59.305854584187" lon="18.009538513655">
        <ele>23.2</ele>
        <time>2016-04-29T17:24:16Z</time>
      </trkpt>
      <trkpt lat="59.305847962486" lon="18.009413707164">
        <ele>23.2</ele>
        <time>2016-04-29T17:24:17Z</time>
      </trkpt>
      <trkpt lat="59.305833042704" lon="18.009210697546">
        <ele>23.2</ele>
        <time>2016-04-29T17:24:19Z</time>
      </trkpt>
      <trkpt lat="59.305810830669" lon="18.008989163929">
        <ele>23.2</ele>
        <time>2016-04-29T17:24:21Z</time>
      </trkpt>
      <trkpt lat="59.30579649762" lon="18.00886167523">
        <ele>23.2</ele>
        <time>2016-04-29T17:24:22Z</time>
      </trkpt>
      <trkpt lat="59.305770429911" lon="18.008471833061">
        <ele>23.2</ele>
        <time>2016-04-29T17:24:25Z</time>
      </trkpt>
      <trkpt lat="59.305760287812" lon="18.008337052109">
        <ele>23.6</ele>
        <time>2016-04-29T17:24:26Z</time>
      </trkpt>
      <trkpt lat="59.30575039717" lon="18.00819950513">
        <ele>24.2</ele>
        <time>2016-04-29T17:24:27Z</time>
      </trkpt>
      <trkpt lat="59.305742769641" lon="18.008064472721">
        <ele>24.6</ele>
        <time>2016-04-29T17:24:28Z</time>
      </trkpt>
      <trkpt lat="59.305739835976" lon="18.00792709338">
        <ele>25</ele>
        <time>2016-04-29T17:24:29Z</time>
      </trkpt>
      <trkpt lat="59.305736734673" lon="18.007786948012">
        <ele>25.4</ele>
        <time>2016-04-29T17:24:30Z</time>
      </trkpt>
      <trkpt lat="59.305731370257" lon="18.00765216706">
        <ele>25.4</ele>
        <time>2016-04-29T17:24:31Z</time>
      </trkpt>
      <trkpt lat="59.305700776322" lon="18.006950518211">
        <ele>25.4</ele>
        <time>2016-04-29T17:24:36Z</time>
      </trkpt>
      <trkpt lat="59.305699099942" lon="18.00619120189">
        <ele>25.4</ele>
        <time>2016-04-29T17:24:41Z</time>
      </trkpt>
      <trkpt lat="59.305701027779" lon="18.005182775501">
        <ele>25.4</ele>
        <time>2016-04-29T17:24:48Z</time>
      </trkpt>
      <trkpt lat="59.305701279236" lon="18.004410131959">
        <ele>25.4</ele>
        <time>2016-04-29T17:24:53Z</time>
      </trkpt>
      <trkpt lat="59.305698764666" lon="18.00425665937">
        <ele>25</ele>
        <time>2016-04-29T17:24:54Z</time>
      </trkpt>
      <trkpt lat="59.305697423562" lon="18.004106790998">
        <ele>24.4</ele>
        <time>2016-04-29T17:24:55Z</time>
      </trkpt>
      <trkpt lat="59.305697507381" lon="18.003960359205">
        <ele>24</ele>
        <time>2016-04-29T17:24:56Z</time>
      </trkpt>
      <trkpt lat="59.305689796033" lon="18.003820549113">
        <ele>23.6</ele>
        <time>2016-04-29T17:24:57Z</time>
      </trkpt>
      <trkpt lat="59.305687365282" lon="18.00367914646">
        <ele>23.2</ele>
        <time>2016-04-29T17:24:58Z</time>
      </trkpt>
      <trkpt lat="59.305689544576" lon="18.003532714667">
        <ele>23.2</ele>
        <time>2016-04-29T17:24:59Z</time>
      </trkpt>
      <trkpt lat="59.30568837111" lon="18.003391731109">
        <ele>23.2</ele>
        <time>2016-04-29T17:25:00Z</time>
      </trkpt>
      <trkpt lat="59.30566490179" lon="18.002783037531">
        <ele>23.2</ele>
        <time>2016-04-29T17:25:04Z</time>
      </trkpt>
      <trkpt lat="59.305637576796" lon="18.001829596406">
        <ele>22.6</ele>
        <time>2016-04-29T17:25:10Z</time>
      </trkpt>
      <trkpt lat="59.305622405557" lon="18.001666903727">
        <ele>22.2</ele>
        <time>2016-04-29T17:25:11Z</time>
      </trkpt>
      <trkpt lat="59.305608156327" lon="18.001503875772">
        <ele>21.8</ele>
        <time>2016-04-29T17:25:12Z</time>
      </trkpt>
      <trkpt lat="59.305601869902" lon="18.001339003799">
        <ele>21.4</ele>
        <time>2016-04-29T17:25:13Z</time>
      </trkpt>
      <trkpt lat="59.305596254029" lon="18.001165917564">
        <ele>21</ele>
        <time>2016-04-29T17:25:14Z</time>
      </trkpt>
      <trkpt lat="59.305597176038" lon="18.000998111926">
        <ele>21</ele>
        <time>2016-04-29T17:25:15Z</time>
      </trkpt>
      <trkpt lat="59.305601953721" lon="18.000174506432">
        <ele>21</ele>
        <time>2016-04-29T17:25:20Z</time>
      </trkpt>
      <trkpt lat="59.305566079189" lon="17.999355846259">
        <ele>21</ele>
        <time>2016-04-29T17:25:25Z</time>
      </trkpt>
      <trkpt lat="59.305539927661" lon="17.998205262846">
        <ele>21</ele>
        <time>2016-04-29T17:25:32Z</time>
      </trkpt>
      <trkpt lat="59.30553749691" lon="17.99804483328">
        <ele>21</ele>
        <time>2016-04-29T17:25:33Z</time>
      </trkpt>
      <trkpt lat="59.305520900748" lon="17.997893456166">
        <ele>21</ele>
        <time>2016-04-29T17:25:34Z</time>
      </trkpt>
      <trkpt lat="59.305464155285" lon="17.997580224563">
        <ele>21</ele>
        <time>2016-04-29T17:25:36Z</time>
      </trkpt>
      <trkpt lat="59.305449235503" lon="17.997413843848">
        <ele>21</ele>
        <time>2016-04-29T17:25:37Z</time>
      </trkpt>
      <trkpt lat="59.305437500843" lon="17.997053841243">
        <ele>21</ele>
        <time>2016-04-29T17:25:39Z</time>
      </trkpt>
      <trkpt lat="59.305404140881" lon="17.996505664983">
        <ele>20.6</ele>
        <time>2016-04-29T17:25:42Z</time>
      </trkpt>
      <trkpt lat="59.305389304918" lon="17.996317742785">
        <ele>20</ele>
        <time>2016-04-29T17:25:43Z</time>
      </trkpt>
      <trkpt lat="59.305377234982" lon="17.996138118668">
        <ele>19.6</ele>
        <time>2016-04-29T17:25:44Z</time>
      </trkpt>
      <trkpt lat="59.305370110367" lon="17.995964948614">
        <ele>19.2</ele>
        <time>2016-04-29T17:25:45Z</time>
      </trkpt>
      <trkpt lat="59.305361979924" lon="17.995790437456">
        <ele>18.6</ele>
        <time>2016-04-29T17:25:46Z</time>
      </trkpt>
      <trkpt lat="59.305352927472" lon="17.995621374533">
        <ele>18.6</ele>
        <time>2016-04-29T17:25:47Z</time>
      </trkpt>
      <trkpt lat="59.30531286199" lon="17.994898184201">
        <ele>18.2</ele>
        <time>2016-04-29T17:25:51Z</time>
      </trkpt>
      <trkpt lat="59.305300792054" lon="17.994712776573">
        <ele>17.8</ele>
        <time>2016-04-29T17:25:52Z</time>
      </trkpt>
      <trkpt lat="59.305288722118" lon="17.994523261814">
        <ele>17.2</ele>
        <time>2016-04-29T17:25:53Z</time>
      </trkpt>
      <trkpt lat="59.305276149268" lon="17.994330394295">
        <ele>16.8</ele>
        <time>2016-04-29T17:25:54Z</time>
      </trkpt>
      <trkpt lat="59.305263995513" lon="17.994135263663">
        <ele>16.4</ele>
        <time>2016-04-29T17:25:55Z</time>
      </trkpt>
      <trkpt lat="59.3052282048" lon="17.993148294938">
        <ele>16.4</ele>
        <time>2016-04-29T17:26:00Z</time>
      </trkpt>
      <trkpt lat="59.305200376892" lon="17.992540271912">
        <ele>15.8</ele>
        <time>2016-04-29T17:26:03Z</time>
      </trkpt>
      <trkpt lat="59.305188223137" lon="17.992341453244">
        <ele>15.2</ele>
        <time>2016-04-29T17:26:04Z</time>
      </trkpt>
      <trkpt lat="59.30517036969" lon="17.992145987336">
        <ele>14.4</ele>
        <time>2016-04-29T17:26:05Z</time>
      </trkpt>
      <trkpt lat="59.305148492931" lon="17.991940798424">
        <ele>13.6</ele>
        <time>2016-04-29T17:26:06Z</time>
      </trkpt>
      <trkpt lat="59.305131729131" lon="17.991743069403">
        <ele>12.8</ele>
        <time>2016-04-29T17:26:07Z</time>
      </trkpt>
      <trkpt lat="59.305119407738" lon="17.99154299345">
        <ele>12.8</ele>
        <time>2016-04-29T17:26:08Z</time>
      </trkpt>
      <trkpt lat="59.305108175992" lon="17.991346940809">
        <ele>13</ele>
        <time>2016-04-29T17:26:09Z</time>
      </trkpt>
      <trkpt lat="59.305094513495" lon="17.991144434105">
        <ele>13.2</ele>
        <time>2016-04-29T17:26:10Z</time>
      </trkpt>
      <trkpt lat="59.305081102455" lon="17.990942430315">
        <ele>13.4</ele>
        <time>2016-04-29T17:26:11Z</time>
      </trkpt>
      <trkpt lat="59.305071547089" lon="17.990742019086">
        <ele>13.4</ele>
        <time>2016-04-29T17:26:12Z</time>
      </trkpt>
      <trkpt lat="59.305014717807" lon="17.989580455384">
        <ele>13.4</ele>
        <time>2016-04-29T17:26:18Z</time>
      </trkpt>
      <trkpt lat="59.30500859902" lon="17.989393371376">
        <ele>13.4</ele>
        <time>2016-04-29T17:26:19Z</time>
      </trkpt>
      <trkpt lat="59.304992924867" lon="17.989021047378">
        <ele>13</ele>
        <time>2016-04-29T17:26:21Z</time>
      </trkpt>
      <trkpt lat="59.304981944578" lon="17.988839495424">
        <ele>12.4</ele>
        <time>2016-04-29T17:26:22Z</time>
      </trkpt>
      <trkpt lat="59.304970461375" lon="17.988654506891">
        <ele>12</ele>
        <time>2016-04-29T17:26:23Z</time>
      </trkpt>
      <trkpt lat="59.304956798878" lon="17.988465411227">
        <ele>11.4</ele>
        <time>2016-04-29T17:26:24Z</time>
      </trkpt>
      <trkpt lat="59.30493986744" lon="17.988273549536">
        <ele>11</ele>
        <time>2016-04-29T17:26:25Z</time>
      </trkpt>
      <trkpt lat="59.304841966848" lon="17.987231679366">
        <ele>11</ele>
        <time>2016-04-29T17:26:30Z</time>
      </trkpt>
      <trkpt lat="59.304760997694" lon="17.986153599388">
        <ele>11</ele>
        <time>2016-04-29T17:26:35Z</time>
      </trkpt>
      <trkpt lat="59.304749011577" lon="17.985944890078">
        <ele>10.6</ele>
        <time>2016-04-29T17:26:36Z</time>
      </trkpt>
      <trkpt lat="59.304738115107" lon="17.985737270415">
        <ele>10.2</ele>
        <time>2016-04-29T17:26:37Z</time>
      </trkpt>
      <trkpt lat="59.304728475922" lon="17.985533757883">
        <ele>9.8</ele>
        <time>2016-04-29T17:26:38Z</time>
      </trkpt>
      <trkpt lat="59.304717160357" lon="17.985334101025">
        <ele>9.4</ele>
        <time>2016-04-29T17:26:39Z</time>
      </trkpt>
      <trkpt lat="59.304707353534" lon="17.985138551298">
        <ele>9</ele>
        <time>2016-04-29T17:26:40Z</time>
      </trkpt>
      <trkpt lat="59.304665695491" lon="17.984163903966">
        <ele>9</ele>
        <time>2016-04-29T17:26:45Z</time>
      </trkpt>
      <trkpt lat="59.304619511222" lon="17.98302698305">
        <ele>9</ele>
        <time>2016-04-29T17:26:51Z</time>
      </trkpt>
      <trkpt lat="59.304601573956" lon="17.982675362345">
        <ele>9</ele>
        <time>2016-04-29T17:26:53Z</time>
      </trkpt>
      <trkpt lat="59.304569219822" lon="17.981829796273">
        <ele>9</ele>
        <time>2016-04-29T17:26:58Z</time>
      </trkpt>
      <trkpt lat="59.304565783243" lon="17.981665091938">
        <ele>9.4</ele>
        <time>2016-04-29T17:26:59Z</time>
      </trkpt>
      <trkpt lat="59.304558910085" lon="17.981498543585">
        <ele>10</ele>
        <time>2016-04-29T17:27:00Z</time>
      </trkpt>
      <trkpt lat="59.30455094728" lon="17.981333252517">
        <ele>10.4</ele>
        <time>2016-04-29T17:27:01Z</time>
      </trkpt>
      <trkpt lat="59.304543068294" lon="17.981170224562">
        <ele>11</ele>
        <time>2016-04-29T17:27:02Z</time>
      </trkpt>
      <trkpt lat="59.304533848204" lon="17.981010046453">
        <ele>11.4</ele>
        <time>2016-04-29T17:27:03Z</time>
      </trkpt>
      <trkpt lat="59.304523622286" lon="17.980850874172">
        <ele>11.4</ele>
        <time>2016-04-29T17:27:04Z</time>
      </trkpt>
      <trkpt lat="59.30449730312" lon="17.980381236315">
        <ele>11.8</ele>
        <time>2016-04-29T17:27:07Z</time>
      </trkpt>
      <trkpt lat="59.304492693075" lon="17.980236564721">
        <ele>12.2</ele>
        <time>2016-04-29T17:27:08Z</time>
      </trkpt>
      <trkpt lat="59.30449478855" lon="17.980096586991">
        <ele>12.6</ele>
        <time>2016-04-29T17:27:09Z</time>
      </trkpt>
      <trkpt lat="59.304495207645" lon="17.979956525442">
        <ele>13</ele>
        <time>2016-04-29T17:27:10Z</time>
      </trkpt>
      <trkpt lat="59.304494453274" lon="17.979810093649">
        <ele>13.4</ele>
        <time>2016-04-29T17:27:11Z</time>
      </trkpt>
      <trkpt lat="59.304489927048" lon="17.979649244988">
        <ele>14</ele>
        <time>2016-04-29T17:27:12Z</time>
      </trkpt>
      <trkpt lat="59.304485233184" lon="17.97949904134">
        <ele>14.4</ele>
        <time>2016-04-29T17:27:13Z</time>
      </trkpt>
      <trkpt lat="59.304480287863" lon="17.979352106633">
        <ele>14.8</ele>
        <time>2016-04-29T17:27:14Z</time>
      </trkpt>
      <trkpt lat="59.304473079429" lon="17.979209195238">
        <ele>15.6</ele>
        <time>2016-04-29T17:27:15Z</time>
      </trkpt>
      <trkpt lat="59.304455896534" lon="17.979055806468">
        <ele>16</ele>
        <time>2016-04-29T17:27:16Z</time>
      </trkpt>
      <trkpt lat="59.304438210725" lon="17.978900489861">
        <ele>16.4</ele>
        <time>2016-04-29T17:27:17Z</time>
      </trkpt>
      <trkpt lat="59.30441851326" lon="17.978750286213">
        <ele>16.8</ele>
        <time>2016-04-29T17:27:18Z</time>
      </trkpt>
      <trkpt lat="59.304397642329" lon="17.978609218836">
        <ele>17.4</ele>
        <time>2016-04-29T17:27:19Z</time>
      </trkpt>
      <trkpt lat="59.304370652611" lon="17.978464463423">
        <ele>17.8</ele>
        <time>2016-04-29T17:27:20Z</time>
      </trkpt>
      <trkpt lat="59.304339639581" lon="17.978329431014">
        <ele>17.8</ele>
        <time>2016-04-29T17:27:21Z</time>
      </trkpt>
      <trkpt lat="59.304311392578" lon="17.978199343926">
        <ele>17.8</ele>
        <time>2016-04-29T17:27:22Z</time>
      </trkpt>
      <trkpt lat="59.304282642661" lon="17.97807328015">
        <ele>18.2</ele>
        <time>2016-04-29T17:27:23Z</time>
      </trkpt>
      <trkpt lat="59.304250959079" lon="17.977948473659">
        <ele>18.8</ele>
        <time>2016-04-29T17:27:24Z</time>
      </trkpt>
      <trkpt lat="59.304216425651" lon="17.977825678824">
        <ele>19.2</ele>
        <time>2016-04-29T17:27:25Z</time>
      </trkpt>
      <trkpt lat="59.304179545291" lon="17.977703303084">
        <ele>19.8</ele>
        <time>2016-04-29T17:27:26Z</time>
      </trkpt>
      <trkpt lat="59.30414945427" lon="17.977590398891">
        <ele>20.2</ele>
        <time>2016-04-29T17:27:27Z</time>
      </trkpt>
      <trkpt lat="59.304073430437" lon="17.977245818982">
        <ele>20.2</ele>
        <time>2016-04-29T17:27:30Z</time>
      </trkpt>
      <trkpt lat="59.304039232285" lon="17.977138782119">
        <ele>20.6</ele>
        <time>2016-04-29T17:27:31Z</time>
      </trkpt>
      <trkpt lat="59.304002100468" lon="17.977036020025">
        <ele>21</ele>
        <time>2016-04-29T17:27:32Z</time>
      </trkpt>
      <trkpt lat="59.3039625379" lon="17.976921774728">
        <ele>21.6</ele>
        <time>2016-04-29T17:27:33Z</time>
      </trkpt>
      <trkpt lat="59.303928255929" lon="17.976806355965">
        <ele>22</ele>
        <time>2016-04-29T17:27:34Z</time>
      </trkpt>
      <trkpt lat="59.303893722501" lon="17.97668859027">
        <ele>22.4</ele>
        <time>2016-04-29T17:27:35Z</time>
      </trkpt>
      <trkpt lat="59.303830355337" lon="17.976443419695">
        <ele>22.4</ele>
        <time>2016-04-29T17:27:37Z</time>
      </trkpt>
      <trkpt lat="59.303591555006" lon="17.975421330809">
        <ele>22.4</ele>
        <time>2016-04-29T17:27:45Z</time>
      </trkpt>
      <trkpt lat="59.303378906203" lon="17.974549026476">
        <ele>22.4</ele>
        <time>2016-04-29T17:27:52Z</time>
      </trkpt>
      <trkpt lat="59.303160641527" lon="17.974056003118">
        <ele>22.4</ele>
        <time>2016-04-29T17:27:57Z</time>
      </trkpt>
      <trkpt lat="59.303014377372" lon="17.973776131477">
        <ele>22.8</ele>
        <time>2016-04-29T17:28:00Z</time>
      </trkpt>
      <trkpt lat="59.302967522551" lon="17.97368619369">
        <ele>23.2</ele>
        <time>2016-04-29T17:28:01Z</time>
      </trkpt>
      <trkpt lat="59.302918823712" lon="17.973595501532">
        <ele>23.8</ele>
        <time>2016-04-29T17:28:02Z</time>
      </trkpt>
      <trkpt lat="59.30286869995" lon="17.973504138822">
        <ele>24.2</ele>
        <time>2016-04-29T17:28:03Z</time>
      </trkpt>
      <trkpt lat="59.302822264224" lon="17.973419146356">
        <ele>24.6</ele>
        <time>2016-04-29T17:28:04Z</time>
      </trkpt>
      <trkpt lat="59.30257365707" lon="17.972907096085">
        <ele>25</ele>
        <time>2016-04-29T17:28:10Z</time>
      </trkpt>
      <trkpt lat="59.302528059534" lon="17.972819840506">
        <ele>25.4</ele>
        <time>2016-04-29T17:28:11Z</time>
      </trkpt>
      <trkpt lat="59.302482881093" lon="17.972729567443">
        <ele>25.8</ele>
        <time>2016-04-29T17:28:12Z</time>
      </trkpt>
      <trkpt lat="59.302435690996" lon="17.972637198905">
        <ele>26.2</ele>
        <time>2016-04-29T17:28:13Z</time>
      </trkpt>
      <trkpt lat="59.302388668537" lon="17.972547764032">
        <ele>26.6</ele>
        <time>2016-04-29T17:28:14Z</time>
      </trkpt>
      <trkpt lat="59.30229370161" lon="17.972372330865">
        <ele>26.6</ele>
        <time>2016-04-29T17:28:16Z</time>
      </trkpt>
      <trkpt lat="59.301912911893" lon="17.971675292061">
        <ele>26.6</ele>
        <time>2016-04-29T17:28:24Z</time>
      </trkpt>
      <trkpt lat="59.30175558363" lon="17.971280001657">
        <ele>26.6</ele>
        <time>2016-04-29T17:28:28Z</time>
      </trkpt>
      <trkpt lat="59.301590795476" lon="17.970596122436">
        <ele>26.6</ele>
        <time>2016-04-29T17:28:34Z</time>
      </trkpt>
      <trkpt lat="59.301564811586" lon="17.970484391709">
        <ele>27.2</ele>
        <time>2016-04-29T17:28:35Z</time>
      </trkpt>
      <trkpt lat="59.301538995334" lon="17.97036863767">
        <ele>27.6</ele>
        <time>2016-04-29T17:28:36Z</time>
      </trkpt>
      <trkpt lat="59.301511586521" lon="17.970252296898">
        <ele>28</ele>
        <time>2016-04-29T17:28:37Z</time>
      </trkpt>
      <trkpt lat="59.301483004242" lon="17.970140147076">
        <ele>28.4</ele>
        <time>2016-04-29T17:28:38Z</time>
      </trkpt>
      <trkpt lat="59.301450817746" lon="17.970020453544">
        <ele>28.8</ele>
        <time>2016-04-29T17:28:39Z</time>
      </trkpt>
      <trkpt lat="59.301399520518" lon="17.969784167783">
        <ele>28.8</ele>
        <time>2016-04-29T17:28:41Z</time>
      </trkpt>
      <trkpt lat="59.301234061812" lon="17.969062653831">
        <ele>28.8</ele>
        <time>2016-04-29T17:28:47Z</time>
      </trkpt>
      <trkpt lat="59.301025436321" lon="17.968180458856">
        <ele>28.8</ele>
        <time>2016-04-29T17:28:54Z</time>
      </trkpt>
      <trkpt lat="59.300974055274" lon="17.967921709603">
        <ele>29.4</ele>
        <time>2016-04-29T17:28:56Z</time>
      </trkpt>
      <trkpt lat="59.300950250678" lon="17.967791454877">
        <ele>29.8</ele>
        <time>2016-04-29T17:28:57Z</time>
      </trkpt>
      <trkpt lat="59.300919740562" lon="17.967663295626">
        <ele>30.2</ele>
        <time>2016-04-29T17:28:58Z</time>
      </trkpt>
      <trkpt lat="59.30088386603" lon="17.967527005932">
        <ele>30.8</ele>
        <time>2016-04-29T17:28:59Z</time>
      </trkpt>
      <trkpt lat="59.300859055606" lon="17.967383423985">
        <ele>31.2</ele>
        <time>2016-04-29T17:29:00Z</time>
      </trkpt>
      <trkpt lat="59.300820750323" lon="17.967078658101">
        <ele>31.2</ele>
        <time>2016-04-29T17:29:02Z</time>
      </trkpt>
      <trkpt lat="59.300809770034" lon="17.966932393946">
        <ele>31.2</ele>
        <time>2016-04-29T17:29:03Z</time>
      </trkpt>
      <trkpt lat="59.300792168044" lon="17.966633579211">
        <ele>31.2</ele>
        <time>2016-04-29T17:29:05Z</time>
      </trkpt>
      <trkpt lat="59.300752773114" lon="17.966207778691">
        <ele>31.2</ele>
        <time>2016-04-29T17:29:08Z</time>
      </trkpt>
      <trkpt lat="59.300733243287" lon="17.966057407405">
        <ele>31.6</ele>
        <time>2016-04-29T17:29:09Z</time>
      </trkpt>
      <trkpt lat="59.30071538984" lon="17.965911562345">
        <ele>32</ele>
        <time>2016-04-29T17:29:10Z</time>
      </trkpt>
      <trkpt lat="59.300699967144" lon="17.965762951258">
        <ele>32.4</ele>
        <time>2016-04-29T17:29:11Z</time>
      </trkpt>
      <trkpt lat="59.300682868068" lon="17.965615597456">
        <ele>32.8</ele>
        <time>2016-04-29T17:29:12Z</time>
      </trkpt>
      <trkpt lat="59.300667948286" lon="17.965473105156">
        <ele>33.2</ele>
        <time>2016-04-29T17:29:13Z</time>
      </trkpt>
      <trkpt lat="59.300614471764" lon="17.964608512171">
        <ele>33.2</ele>
        <time>2016-04-29T17:29:19Z</time>
      </trkpt>
      <trkpt lat="59.300529730755" lon="17.963895547757">
        <ele>33.2</ele>
        <time>2016-04-29T17:29:24Z</time>
      </trkpt>
      <trkpt lat="59.300520845941" lon="17.963750876163">
        <ele>33.2</ele>
        <time>2016-04-29T17:29:25Z</time>
      </trkpt>
      <trkpt lat="59.30048740216" lon="17.962710011821">
        <ele>33.2</ele>
        <time>2016-04-29T17:29:32Z</time>
      </trkpt>
      <trkpt lat="59.300462507917" lon="17.961921275031">
        <ele>33.2</ele>
        <time>2016-04-29T17:29:37Z</time>
      </trkpt>
      <trkpt lat="59.300469381075" lon="17.961766545157">
        <ele>33.2</ele>
        <time>2016-04-29T17:29:38Z</time>
      </trkpt>
      <trkpt lat="59.300547500383" lon="17.960833304411">
        <ele>33.2</ele>
        <time>2016-04-29T17:29:44Z</time>
      </trkpt>
      <trkpt lat="59.300730644898" lon="17.959902242959">
        <ele>33.2</ele>
        <time>2016-04-29T17:29:50Z</time>
      </trkpt>
      <trkpt lat="59.300827455843" lon="17.959458672811">
        <ele>32.8</ele>
        <time>2016-04-29T17:29:53Z</time>
      </trkpt>
      <trkpt lat="59.300860480529" lon="17.959308301525">
        <ele>32.4</ele>
        <time>2016-04-29T17:29:54Z</time>
      </trkpt>
      <trkpt lat="59.300894008129" lon="17.959156505316">
        <ele>32</ele>
        <time>2016-04-29T17:29:55Z</time>
      </trkpt>
      <trkpt lat="59.300926865177" lon="17.958993309723">
        <ele>31.6</ele>
        <time>2016-04-29T17:29:56Z</time>
      </trkpt>
      <trkpt lat="59.300957710569" lon="17.95883430508">
        <ele>31.2</ele>
        <time>2016-04-29T17:29:57Z</time>
      </trkpt>
      <trkpt lat="59.301072710237" lon="17.958102062296">
        <ele>31.2</ele>
        <time>2016-04-29T17:30:02Z</time>
      </trkpt>
      <trkpt lat="59.301077739377" lon="17.957968287172">
        <ele>31.6</ele>
        <time>2016-04-29T17:30:03Z</time>
      </trkpt>
      <trkpt lat="59.301077152644" lon="17.957830321098">
        <ele>32.2</ele>
        <time>2016-04-29T17:30:04Z</time>
      </trkpt>
      <trkpt lat="59.301074721893" lon="17.95769352849">
        <ele>32.6</ele>
        <time>2016-04-29T17:30:05Z</time>
      </trkpt>
      <trkpt lat="59.301072877875" lon="17.957555730054">
        <ele>33.2</ele>
        <time>2016-04-29T17:30:06Z</time>
      </trkpt>
      <trkpt lat="59.301068519287" lon="17.957427151708">
        <ele>33.6</ele>
        <time>2016-04-29T17:30:07Z</time>
      </trkpt>
      <trkpt lat="59.30104312213" lon="17.957308044909">
        <ele>33.6</ele>
        <time>2016-04-29T17:30:08Z</time>
      </trkpt>
      <trkpt lat="59.301001967001" lon="17.957213329439">
        <ele>33.6</ele>
        <time>2016-04-29T17:30:09Z</time>
      </trkpt>
      <trkpt lat="59.300881854374" lon="17.957133533751">
        <ele>33.6</ele>
        <time>2016-04-29T17:30:11Z</time>
      </trkpt>
      <trkpt lat="59.300813960984" lon="17.957138562891">
        <ele>33.6</ele>
        <time>2016-04-29T17:30:12Z</time>
      </trkpt>
      <trkpt lat="59.30074472649" lon="17.957126995869">
        <ele>33.6</ele>
        <time>2016-04-29T17:30:13Z</time>
      </trkpt>
      <trkpt lat="59.300618243619" lon="17.957117775779">
        <ele>33.6</ele>
        <time>2016-04-29T17:30:15Z</time>
      </trkpt>
      <trkpt lat="59.300486312513" lon="17.957093300631">
        <ele>33.6</ele>
        <time>2016-04-29T17:30:17Z</time>
      </trkpt>
      <trkpt lat="59.300343820213" lon="17.9571059573">
        <ele>33.6</ele>
        <time>2016-04-29T17:30:19Z</time>
      </trkpt>
      <trkpt lat="59.300207781976" lon="17.957112076087">
        <ele>33.6</ele>
        <time>2016-04-29T17:30:21Z</time>
      </trkpt>
      <trkpt lat="59.300072330472" lon="17.957096485753">
        <ele>33.6</ele>
        <time>2016-04-29T17:30:23Z</time>
      </trkpt>
      <trkpt lat="59.299754488824" lon="17.956978049506">
        <ele>33.6</ele>
        <time>2016-04-29T17:30:28Z</time>
      </trkpt>
      <trkpt lat="59.299690199651" lon="17.956953322901">
        <ele>34</ele>
        <time>2016-04-29T17:30:29Z</time>
      </trkpt>
      <trkpt lat="59.299626078116" lon="17.95692909921">
        <ele>34.4</ele>
        <time>2016-04-29T17:30:30Z</time>
      </trkpt>
      <trkpt lat="59.299560950753" lon="17.956900768388">
        <ele>35</ele>
        <time>2016-04-29T17:30:31Z</time>
      </trkpt>
      <trkpt lat="59.299496996856" lon="17.956869671539">
        <ele>35.8</ele>
        <time>2016-04-29T17:30:32Z</time>
      </trkpt>
      <trkpt lat="59.299433545873" lon="17.956841508355">
        <ele>35.8</ele>
        <time>2016-04-29T17:30:33Z</time>
      </trkpt>
      <trkpt lat="59.299083769186" lon="17.956716115131">
        <ele>35.8</ele>
        <time>2016-04-29T17:30:38Z</time>
      </trkpt>
      <trkpt lat="59.298661740521" lon="17.956607988621">
        <ele>35.8</ele>
        <time>2016-04-29T17:30:44Z</time>
      </trkpt>
      <trkpt lat="59.298594014769" lon="17.956582172369">
        <ele>35.8</ele>
        <time>2016-04-29T17:30:45Z</time>
      </trkpt>
      <trkpt lat="59.29845982055" lon="17.956535233729">
        <ele>35.8</ele>
        <time>2016-04-29T17:30:47Z</time>
      </trkpt>
      <trkpt lat="59.298390586056" lon="17.956503717785">
        <ele>35.8</ele>
        <time>2016-04-29T17:30:48Z</time>
      </trkpt>
      <trkpt lat="59.298319926639" lon="17.956481421931">
        <ele>36.2</ele>
        <time>2016-04-29T17:30:49Z</time>
      </trkpt>
      <trkpt lat="59.298250943602" lon="17.956462730294">
        <ele>36.6</ele>
        <time>2016-04-29T17:30:50Z</time>
      </trkpt>
      <trkpt lat="59.298179697452" lon="17.956445212123">
        <ele>37</ele>
        <time>2016-04-29T17:30:51Z</time>
      </trkpt>
      <trkpt lat="59.298108032207" lon="17.956423419183">
        <ele>37.6</ele>
        <time>2016-04-29T17:30:52Z</time>
      </trkpt>
      <trkpt lat="59.298033600935" lon="17.956412103618">
        <ele>38</ele>
        <time>2016-04-29T17:30:53Z</time>
      </trkpt>
      <trkpt lat="59.297745347394" lon="17.956355609612">
        <ele>38</ele>
        <time>2016-04-29T17:30:57Z</time>
      </trkpt>
      <trkpt lat="59.297276799184" lon="17.956166178672">
        <ele>38</ele>
        <time>2016-04-29T17:31:04Z</time>
      </trkpt>
      <trkpt lat="59.29702064832" lon="17.956054950859">
        <ele>38.8</ele>
        <time>2016-04-29T17:31:08Z</time>
      </trkpt>
      <trkpt lat="59.296958119346" lon="17.956024105467">
        <ele>39.2</ele>
        <time>2016-04-29T17:31:09Z</time>
      </trkpt>
      <trkpt lat="59.296898188761" lon="17.955997367206">
        <ele>39.8</ele>
        <time>2016-04-29T17:31:10Z</time>
      </trkpt>
      <trkpt lat="59.296836330339" lon="17.955972808239">
        <ele>40.2</ele>
        <time>2016-04-29T17:31:11Z</time>
      </trkpt>
      <trkpt lat="59.296768185492" lon="17.955943136313">
        <ele>40.2</ele>
        <time>2016-04-29T17:31:12Z</time>
      </trkpt>
      <trkpt lat="59.296437687175" lon="17.955817910727">
        <ele>40.2</ele>
        <time>2016-04-29T17:31:17Z</time>
      </trkpt>
      <trkpt lat="59.296100231881" lon="17.955649099261">
        <ele>40.2</ele>
        <time>2016-04-29T17:31:22Z</time>
      </trkpt>
      <trkpt lat="59.295724303666" lon="17.955476851216">
        <ele>40.2</ele>
        <time>2016-04-29T17:31:27Z</time>
      </trkpt>
      <trkpt lat="59.295368240554" lon="17.955213911013">
        <ele>40.2</ele>
        <time>2016-04-29T17:31:32Z</time>
      </trkpt>
      <trkpt lat="59.294966160811" lon="17.954880227574">
        <ele>40.2</ele>
        <time>2016-04-29T17:31:38Z</time>
      </trkpt>
      <trkpt lat="59.294638679978" lon="17.95452265572">
        <ele>40.2</ele>
        <time>2016-04-29T17:31:43Z</time>
      </trkpt>
      <trkpt lat="59.294231571095" lon="17.954111523525">
        <ele>40.2</ele>
        <time>2016-04-29T17:31:49Z</time>
      </trkpt>
      <trkpt lat="59.293824965126" lon="17.953738864251">
        <ele>40.2</ele>
        <time>2016-04-29T17:31:55Z</time>
      </trkpt>
      <trkpt lat="59.29339631476" lon="17.953361092018">
        <ele>40.2</ele>
        <time>2016-04-29T17:32:01Z</time>
      </trkpt>
      <trkpt lat="59.292977974131" lon="17.952922215734">
        <ele>40.2</ele>
        <time>2016-04-29T17:32:07Z</time>
      </trkpt>
      <trkpt lat="59.29251789164" lon="17.952364400289">
        <ele>40.2</ele>
        <time>2016-04-29T17:32:15Z</time>
      </trkpt>
      <trkpt lat="59.292120170485" lon="17.95191588482">
        <ele>40.2</ele>
        <time>2016-04-29T17:32:21Z</time>
      </trkpt>
      <trkpt lat="59.291647431325" lon="17.951359913393">
        <ele>40.2</ele>
        <time>2016-04-29T17:32:28Z</time>
      </trkpt>
      <trkpt lat="59.291511979821" lon="17.951204764424">
        <ele>39.8</ele>
        <time>2016-04-29T17:32:30Z</time>
      </trkpt>
      <trkpt lat="59.291445678992" lon="17.951128908229">
        <ele>39.2</ele>
        <time>2016-04-29T17:32:31Z</time>
      </trkpt>
      <trkpt lat="59.291379545801" lon="17.951045675962">
        <ele>38.8</ele>
        <time>2016-04-29T17:32:32Z</time>
      </trkpt>
      <trkpt lat="59.291312658239" lon="17.950966131731">
        <ele>38.4</ele>
        <time>2016-04-29T17:32:33Z</time>
      </trkpt>
      <trkpt lat="59.291243088469" lon="17.95088742569">
        <ele>38</ele>
        <time>2016-04-29T17:32:34Z</time>
      </trkpt>
      <trkpt lat="59.291172429052" lon="17.950808300554">
        <ele>38</ele>
        <time>2016-04-29T17:32:35Z</time>
      </trkpt>
      <trkpt lat="59.29088761209" lon="17.950490626544">
        <ele>37.6</ele>
        <time>2016-04-29T17:32:39Z</time>
      </trkpt>
      <trkpt lat="59.290816785035" lon="17.950418626023">
        <ele>37</ele>
        <time>2016-04-29T17:32:40Z</time>
      </trkpt>
      <trkpt lat="59.290743611048" lon="17.95034260219">
        <ele>36.6</ele>
        <time>2016-04-29T17:32:41Z</time>
      </trkpt>
      <trkpt lat="59.29067387364" lon="17.950260794846">
        <ele>36.2</ele>
        <time>2016-04-29T17:32:42Z</time>
      </trkpt>
      <trkpt lat="59.290607488992" lon="17.950178819864">
        <ele>35.8</ele>
        <time>2016-04-29T17:32:43Z</time>
      </trkpt>
      <trkpt lat="59.290261316522" lon="17.949780931071">
        <ele>35.8</ele>
        <time>2016-04-29T17:32:48Z</time>
      </trkpt>
      <trkpt lat="59.290199039005" lon="17.949697698804">
        <ele>35.8</ele>
        <time>2016-04-29T17:32:49Z</time>
      </trkpt>
      <trkpt lat="59.290029640806" lon="17.949374660378">
        <ele>35.8</ele>
        <time>2016-04-29T17:32:52Z</time>
      </trkpt>
      <trkpt lat="59.289981109605" lon="17.949254128656">
        <ele>35.8</ele>
        <time>2016-04-29T17:32:53Z</time>
      </trkpt>
      <trkpt lat="59.289818500745" lon="17.948727158603">
        <ele>36.2</ele>
        <time>2016-04-29T17:32:57Z</time>
      </trkpt>
      <trkpt lat="59.289790589018" lon="17.948596568601">
        <ele>36.6</ele>
        <time>2016-04-29T17:32:58Z</time>
      </trkpt>
      <trkpt lat="59.289767119698" lon="17.94846170383">
        <ele>37</ele>
        <time>2016-04-29T17:32:59Z</time>
      </trkpt>
      <trkpt lat="59.289750355898" lon="17.948333293122">
        <ele>37.4</ele>
        <time>2016-04-29T17:33:00Z</time>
      </trkpt>
      <trkpt lat="59.289734597926" lon="17.948207983717">
        <ele>37.8</ele>
        <time>2016-04-29T17:33:01Z</time>
      </trkpt>
      <trkpt lat="59.289721186886" lon="17.948085105063">
        <ele>37.8</ele>
        <time>2016-04-29T17:33:02Z</time>
      </trkpt>
      <trkpt lat="59.289673996789" lon="17.947421007126">
        <ele>37.8</ele>
        <time>2016-04-29T17:33:08Z</time>
      </trkpt>
      <trkpt lat="59.289663770871" lon="17.947296284454">
        <ele>38.2</ele>
        <time>2016-04-29T17:33:11Z</time>
      </trkpt>
      <trkpt lat="59.289661507758" lon="17.947293686065">
        <ele>38.6</ele>
        <time>2016-04-29T17:33:12Z</time>
      </trkpt>
      <trkpt lat="59.289661004844" lon="17.947283711604">
        <ele>40</ele>
        <time>2016-04-29T17:33:22Z</time>
      </trkpt>
      <trkpt lat="59.289664944337" lon="17.947245406321">
        <ele>40</ele>
        <time>2016-04-29T17:33:23Z</time>
      </trkpt>
      <trkpt lat="59.289648348175" lon="17.947048766947">
        <ele>40</ele>
        <time>2016-04-29T17:33:26Z</time>
      </trkpt>
      <trkpt lat="59.289520775657" lon="17.946841901655">
        <ele>40</ele>
        <time>2016-04-29T17:33:29Z</time>
      </trkpt>
      <trkpt lat="59.289312150166" lon="17.946878865834">
        <ele>40</ele>
        <time>2016-04-29T17:33:32Z</time>
      </trkpt>
      <trkpt lat="59.288816025505" lon="17.947125796608">
        <ele>40</ele>
        <time>2016-04-29T17:33:39Z</time>
      </trkpt>
      <trkpt lat="59.288428865544" lon="17.947442297152">
        <ele>40</ele>
        <time>2016-04-29T17:33:45Z</time>
      </trkpt>
      <trkpt lat="59.288055116623" lon="17.947777573152">
        <ele>40</ele>
        <time>2016-04-29T17:33:51Z</time>
      </trkpt>
      <trkpt lat="59.287608864267" lon="17.948168588787">
        <ele>40</ele>
        <time>2016-04-29T17:33:58Z</time>
      </trkpt>
      <trkpt lat="59.287415493834" lon="17.94834519542">
        <ele>40.4</ele>
        <time>2016-04-29T17:34:01Z</time>
      </trkpt>
      <trkpt lat="59.287350282652" lon="17.948406131833">
        <ele>40.8</ele>
        <time>2016-04-29T17:34:02Z</time>
      </trkpt>
      <trkpt lat="59.287284820013" lon="17.948468576988">
        <ele>41.2</ele>
        <time>2016-04-29T17:34:03Z</time>
      </trkpt>
      <trkpt lat="59.287219525012" lon="17.948526412098">
        <ele>41.6</ele>
        <time>2016-04-29T17:34:04Z</time>
      </trkpt>
      <trkpt lat="59.287154565287" lon="17.94858575595">
        <ele>42</ele>
        <time>2016-04-29T17:34:05Z</time>
      </trkpt>
      <trkpt lat="59.286736392296" lon="17.948968976418">
        <ele>42</ele>
        <time>2016-04-29T17:34:11Z</time>
      </trkpt>
      <trkpt lat="59.286279662565" lon="17.949331828869">
        <ele>41.6</ele>
        <time>2016-04-29T17:34:18Z</time>
      </trkpt>
      <trkpt lat="59.286238004522" lon="17.949337780018">
        <ele>41.2</ele>
        <time>2016-04-29T17:34:19Z</time>
      </trkpt>
      <trkpt lat="59.286203638732" lon="17.949337193285">
        <ele>40.8</ele>
        <time>2016-04-29T17:34:20Z</time>
      </trkpt>
      <trkpt lat="59.28617279334" lon="17.949323279331">
        <ele>40.4</ele>
        <time>2016-04-29T17:34:21Z</time>
      </trkpt>
      <trkpt lat="59.2861342366" lon="17.949300229106">
        <ele>40</ele>
        <time>2016-04-29T17:34:22Z</time>
      </trkpt>
      <trkpt lat="59.286085537761" lon="17.949263181108">
        <ele>40</ele>
        <time>2016-04-29T17:34:23Z</time>
      </trkpt>
      <trkpt lat="59.285973974672" lon="17.949243064548">
        <ele>40</ele>
        <time>2016-04-29T17:34:25Z</time>
      </trkpt>
      <trkpt lat="59.285787896492" lon="17.949426628158">
        <ele>40</ele>
        <time>2016-04-29T17:34:28Z</time>
      </trkpt>
      <trkpt lat="59.285568877445" lon="17.949423191579">
        <ele>40</ele>
        <time>2016-04-29T17:34:31Z</time>
      </trkpt>
      <trkpt lat="59.285341895593" lon="17.949279861089">
        <ele>40</ele>
        <time>2016-04-29T17:34:34Z</time>
      </trkpt>
      <trkpt lat="59.285266123217" lon="17.949209872224">
        <ele>40</ele>
        <time>2016-04-29T17:34:35Z</time>
      </trkpt>
      <trkpt lat="59.285115751931" lon="17.949041228396">
        <ele>39.6</ele>
        <time>2016-04-29T17:34:37Z</time>
      </trkpt>
      <trkpt lat="59.285046517437" lon="17.948937544293">
        <ele>39.2</ele>
        <time>2016-04-29T17:34:38Z</time>
      </trkpt>
      <trkpt lat="59.28498088716" lon="17.94883050743">
        <ele>38.8</ele>
        <time>2016-04-29T17:34:39Z</time>
      </trkpt>
      <trkpt lat="59.28491969929" lon="17.948715088667">
        <ele>38.4</ele>
        <time>2016-04-29T17:34:40Z</time>
      </trkpt>
      <trkpt lat="59.28485934961" lon="17.948587180873">
        <ele>38</ele>
        <time>2016-04-29T17:34:41Z</time>
      </trkpt>
      <trkpt lat="59.284758934448" lon="17.948306471042">
        <ele>38</ele>
        <time>2016-04-29T17:34:43Z</time>
      </trkpt>
      <trkpt lat="59.284573107725" lon="17.947572803335">
        <ele>38</ele>
        <time>2016-04-29T17:34:48Z</time>
      </trkpt>
      <trkpt lat="59.284547878206" lon="17.94742318642">
        <ele>38</ele>
        <time>2016-04-29T17:34:49Z</time>
      </trkpt>
      <trkpt lat="59.284535389175" lon="17.947265858157">
        <ele>38</ele>
        <time>2016-04-29T17:34:50Z</time>
      </trkpt>
      <trkpt lat="59.284521056126" lon="17.946961930463">
        <ele>38</ele>
        <time>2016-04-29T17:34:52Z</time>
      </trkpt>
      <trkpt lat="59.284390969038" lon="17.946603939514">
        <ele>38</ele>
        <time>2016-04-29T17:34:55Z</time>
      </trkpt>
      <trkpt lat="59.284355848877" lon="17.946479216842">
        <ele>38</ele>
        <time>2016-04-29T17:34:56Z</time>
      </trkpt>
      <trkpt lat="59.284293236084" lon="17.946185934161">
        <ele>38</ele>
        <time>2016-04-29T17:34:58Z</time>
      </trkpt>
      <trkpt lat="59.284223331038" lon="17.945871612911">
        <ele>37.4</ele>
        <time>2016-04-29T17:35:00Z</time>
      </trkpt>
      <trkpt lat="59.284190390171" lon="17.945698861952">
        <ele>37</ele>
        <time>2016-04-29T17:35:01Z</time>
      </trkpt>
      <trkpt lat="59.284161053521" lon="17.945533989979">
        <ele>36.4</ele>
        <time>2016-04-29T17:35:02Z</time>
      </trkpt>
      <trkpt lat="59.284128950844" lon="17.945367609264">
        <ele>36</ele>
        <time>2016-04-29T17:35:03Z</time>
      </trkpt>
      <trkpt lat="59.284096931986" lon="17.945201480006">
        <ele>35.4</ele>
        <time>2016-04-29T17:35:04Z</time>
      </trkpt>
      <trkpt lat="59.283866345917" lon="17.944074785008">
        <ele>35.4</ele>
        <time>2016-04-29T17:35:11Z</time>
      </trkpt>
      <trkpt lat="59.283834662335" lon="17.943927598844">
        <ele>35.4</ele>
        <time>2016-04-29T17:35:12Z</time>
      </trkpt>
      <trkpt lat="59.283664845041" lon="17.942995280107">
        <ele>35.4</ele>
        <time>2016-04-29T17:35:18Z</time>
      </trkpt>
      <trkpt lat="59.28354255312" lon="17.942382898493">
        <ele>35.4</ele>
        <time>2016-04-29T17:35:22Z</time>
      </trkpt>
      <trkpt lat="59.283392014196" lon="17.942269826662">
        <ele>35.4</ele>
        <time>2016-04-29T17:35:24Z</time>
      </trkpt>
      <trkpt lat="59.283164026516" lon="17.942082658835">
        <ele>35.4</ele>
        <time>2016-04-29T17:35:27Z</time>
      </trkpt>
      <trkpt lat="59.283086493941" lon="17.942008898115">
        <ele>35.4</ele>
        <time>2016-04-29T17:35:28Z</time>
      </trkpt>
      <trkpt lat="59.282656753928" lon="17.941608578571">
        <ele>35.4</ele>
        <time>2016-04-29T17:35:34Z</time>
      </trkpt>
      <trkpt lat="59.282268923415" lon="17.941453513421">
        <ele>35.4</ele>
        <time>2016-04-29T17:35:39Z</time>
      </trkpt>
      <trkpt lat="59.281873130097" lon="17.941474300533">
        <ele>35.4</ele>
        <time>2016-04-29T17:35:44Z</time>
      </trkpt>
      <trkpt lat="59.281381531662" lon="17.941691056467">
        <ele>35.4</ele>
        <time>2016-04-29T17:35:50Z</time>
      </trkpt>
      <trkpt lat="59.280838049266" lon="17.941980567293">
        <ele>35.4</ele>
        <time>2016-04-29T17:35:57Z</time>
      </trkpt>
      <trkpt lat="59.280766384021" lon="17.942018202024">
        <ele>35.4</ele>
        <time>2016-04-29T17:35:58Z</time>
      </trkpt>
      <trkpt lat="59.280328597384" lon="17.942247279351">
        <ele>35.4</ele>
        <time>2016-04-29T17:36:04Z</time>
      </trkpt>
      <trkpt lat="59.280038416006" lon="17.942396812447">
        <ele>35.8</ele>
        <time>2016-04-29T17:36:09Z</time>
      </trkpt>
      <trkpt lat="59.28000539132" lon="17.942413660066">
        <ele>36.4</ele>
        <time>2016-04-29T17:36:10Z</time>
      </trkpt>
      <trkpt lat="59.279973204824" lon="17.942429669495">
        <ele>36.8</ele>
        <time>2016-04-29T17:36:11Z</time>
      </trkpt>
      <trkpt lat="59.279939761043" lon="17.942450875702">
        <ele>37.2</ele>
        <time>2016-04-29T17:36:12Z</time>
      </trkpt>
      <trkpt lat="59.279904305606" lon="17.942466214579">
        <ele>37.6</ele>
        <time>2016-04-29T17:36:13Z</time>
      </trkpt>
      <trkpt lat="59.279756784166" lon="17.942489683899">
        <ele>37.6</ele>
        <time>2016-04-29T17:36:16Z</time>
      </trkpt>
      <trkpt lat="59.279697524133" lon="17.942477362506">
        <ele>37.6</ele>
        <time>2016-04-29T17:36:17Z</time>
      </trkpt>
      <trkpt lat="59.279515972179" lon="17.942579705505">
        <ele>37.6</ele>
        <time>2016-04-29T17:36:20Z</time>
      </trkpt>
      <trkpt lat="59.279397116837" lon="17.94271674957">
        <ele>37.6</ele>
        <time>2016-04-29T17:36:22Z</time>
      </trkpt>
      <trkpt lat="59.279334084949" lon="17.94276871735">
        <ele>37.6</ele>
        <time>2016-04-29T17:36:23Z</time>
      </trkpt>
      <trkpt lat="59.279269963414" lon="17.942811129764">
        <ele>37.6</ele>
        <time>2016-04-29T17:36:24Z</time>
      </trkpt>
      <trkpt lat="59.278765289215" lon="17.943181777382">
        <ele>37.6</ele>
        <time>2016-04-29T17:36:32Z</time>
      </trkpt>
      <trkpt lat="59.27833236408" lon="17.943547228222">
        <ele>37.6</ele>
        <time>2016-04-29T17:36:39Z</time>
      </trkpt>
      <trkpt lat="59.277912514709" lon="17.94388518643">
        <ele>37.6</ele>
        <time>2016-04-29T17:36:46Z</time>
      </trkpt>
      <trkpt lat="59.277543543471" lon="17.944245775768">
        <ele>37.2</ele>
        <time>2016-04-29T17:36:52Z</time>
      </trkpt>
      <trkpt lat="59.277485121628" lon="17.944316099909">
        <ele>36.8</ele>
        <time>2016-04-29T17:36:53Z</time>
      </trkpt>
      <trkpt lat="59.277430555459" lon="17.944388770982">
        <ele>36.2</ele>
        <time>2016-04-29T17:36:54Z</time>
      </trkpt>
      <trkpt lat="59.277376659842" lon="17.944460017132">
        <ele>35.8</ele>
        <time>2016-04-29T17:36:55Z</time>
      </trkpt>
      <trkpt lat="59.277327961003" lon="17.944521037364">
        <ele>35.2</ele>
        <time>2016-04-29T17:36:56Z</time>
      </trkpt>
      <trkpt lat="59.277184379056" lon="17.944712563779">
        <ele>35.2</ele>
        <time>2016-04-29T17:36:59Z</time>
      </trkpt>
      <trkpt lat="59.277096955839" lon="17.944842734686">
        <ele>35.8</ele>
        <time>2016-04-29T17:37:01Z</time>
      </trkpt>
      <trkpt lat="59.277045071878" lon="17.94490861642">
        <ele>36.2</ele>
        <time>2016-04-29T17:37:02Z</time>
      </trkpt>
      <trkpt lat="59.276994445202" lon="17.944976174534">
        <ele>36.6</ele>
        <time>2016-04-29T17:37:03Z</time>
      </trkpt>
      <trkpt lat="59.276939376119" lon="17.945029567237">
        <ele>37</ele>
        <time>2016-04-29T17:37:04Z</time>
      </trkpt>
      <trkpt lat="59.276883217389" lon="17.945099472283">
        <ele>37.6</ele>
        <time>2016-04-29T17:37:05Z</time>
      </trkpt>
      <trkpt lat="59.27659228164" lon="17.945491577565">
        <ele>37.6</ele>
        <time>2016-04-29T17:37:10Z</time>
      </trkpt>
      <trkpt lat="59.276535536177" lon="17.945584532836">
        <ele>37.6</ele>
        <time>2016-04-29T17:37:11Z</time>
      </trkpt>
      <trkpt lat="59.276398575931" lon="17.945935231532">
        <ele>37.6</ele>
        <time>2016-04-29T17:37:14Z</time>
      </trkpt>
      <trkpt lat="59.276349541816" lon="17.946049979743">
        <ele>37.6</ele>
        <time>2016-04-29T17:37:15Z</time>
      </trkpt>
      <trkpt lat="59.276151058424" lon="17.946488520751">
        <ele>37.6</ele>
        <time>2016-04-29T17:37:19Z</time>
      </trkpt>
      <trkpt lat="59.276008482305" lon="17.94679035297">
        <ele>37.6</ele>
        <time>2016-04-29T17:37:22Z</time>
      </trkpt>
      <trkpt lat="59.275926423504" lon="17.946884314069">
        <ele>37.6</ele>
        <time>2016-04-29T17:37:24Z</time>
      </trkpt>
      <trkpt lat="59.275867917842" lon="17.946975844417">
        <ele>37.6</ele>
        <time>2016-04-29T17:37:27Z</time>
      </trkpt>
      <trkpt lat="59.2758412634" lon="17.947173070524">
        <ele>37.6</ele>
        <time>2016-04-29T17:37:30Z</time>
      </trkpt>
      <trkpt lat="59.275764066101" lon="17.947357220867">
        <ele>37.6</ele>
        <time>2016-04-29T17:37:32Z</time>
      </trkpt>
      <trkpt lat="59.275726263732" lon="17.947450092319">
        <ele>37.6</ele>
        <time>2016-04-29T17:37:33Z</time>
      </trkpt>
      <trkpt lat="59.275501964088" lon="17.94800489028">
        <ele>37.6</ele>
        <time>2016-04-29T17:37:38Z</time>
      </trkpt>
      <trkpt lat="59.275314963899" lon="17.948436809587">
        <ele>37.2</ele>
        <time>2016-04-29T17:37:42Z</time>
      </trkpt>
      <trkpt lat="59.275263666671" lon="17.948543343536">
        <ele>36.8</ele>
        <time>2016-04-29T17:37:43Z</time>
      </trkpt>
      <trkpt lat="59.275208765226" lon="17.948659181394">
        <ele>36.2</ele>
        <time>2016-04-29T17:37:44Z</time>
      </trkpt>
      <trkpt lat="59.275152522677" lon="17.948765547705">
        <ele>35.8</ele>
        <time>2016-04-29T17:37:45Z</time>
      </trkpt>
      <trkpt lat="59.275100051983" lon="17.948862861564">
        <ele>35.4</ele>
        <time>2016-04-29T17:37:46Z</time>
      </trkpt>
      <trkpt lat="59.274940460607" lon="17.949151115105">
        <ele>35.4</ele>
        <time>2016-04-29T17:37:49Z</time>
      </trkpt>
      <trkpt lat="59.274597305621" lon="17.949686550877">
        <ele>35.4</ele>
        <time>2016-04-29T17:37:55Z</time>
      </trkpt>
      <trkpt lat="59.274197405172" lon="17.950276468999">
        <ele>35.4</ele>
        <time>2016-04-29T17:38:02Z</time>
      </trkpt>
      <trkpt lat="59.273787111167" lon="17.950863704913">
        <ele>35.4</ele>
        <time>2016-04-29T17:38:09Z</time>
      </trkpt>
      <trkpt lat="59.273465246207" lon="17.951298893161">
        <ele>35.4</ele>
        <time>2016-04-29T17:38:15Z</time>
      </trkpt>
      <trkpt lat="59.273335326757" lon="17.951459406546">
        <ele>35.4</ele>
        <time>2016-04-29T17:38:19Z</time>
      </trkpt>
      <trkpt lat="59.273216806691" lon="17.951552529455">
        <ele>35.4</ele>
        <time>2016-04-29T17:38:22Z</time>
      </trkpt>
      <trkpt lat="59.273163665445" lon="17.951595277145">
        <ele>35.4</ele>
        <time>2016-04-29T17:38:23Z</time>
      </trkpt>
      <trkpt lat="59.272990076296" lon="17.95170298456">
        <ele>35.4</ele>
        <time>2016-04-29T17:38:26Z</time>
      </trkpt>
      <trkpt lat="59.272925787123" lon="17.951743636775">
        <ele>35.4</ele>
        <time>2016-04-29T17:38:27Z</time>
      </trkpt>
      <trkpt lat="59.272613561348" lon="17.952013282498">
        <ele>35.4</ele>
        <time>2016-04-29T17:38:32Z</time>
      </trkpt>
      <trkpt lat="59.272500070422" lon="17.952138591903">
        <ele>35.4</ele>
        <time>2016-04-29T17:38:34Z</time>
      </trkpt>
      <trkpt lat="59.272445504253" lon="17.952209670415">
        <ele>35.8</ele>
        <time>2016-04-29T17:38:35Z</time>
      </trkpt>
      <trkpt lat="59.272399906717" lon="17.952294327605">
        <ele>36.2</ele>
        <time>2016-04-29T17:38:36Z</time>
      </trkpt>
      <trkpt lat="59.272352381344" lon="17.952392395835">
        <ele>36.6</ele>
        <time>2016-04-29T17:38:37Z</time>
      </trkpt>
      <trkpt lat="59.272307705817" lon="17.952495241748">
        <ele>37</ele>
        <time>2016-04-29T17:38:38Z</time>
      </trkpt>
      <trkpt lat="59.272259928987" lon="17.952596998014">
        <ele>37.6</ele>
        <time>2016-04-29T17:38:39Z</time>
      </trkpt>
      <trkpt lat="59.272161693119" lon="17.952797157786">
        <ele>37.6</ele>
        <time>2016-04-29T17:38:41Z</time>
      </trkpt>
      <trkpt lat="59.272057925197" lon="17.953009806589">
        <ele>37.6</ele>
        <time>2016-04-29T17:38:43Z</time>
      </trkpt>
      <trkpt lat="59.27190847592" lon="17.953331336273">
        <ele>37.6</ele>
        <time>2016-04-29T17:38:46Z</time>
      </trkpt>
      <trkpt lat="59.27162432951" lon="17.95396861213">
        <ele>37.6</ele>
        <time>2016-04-29T17:38:52Z</time>
      </trkpt>
      <trkpt lat="59.271364155334" lon="17.954429113716">
        <ele>37.6</ele>
        <time>2016-04-29T17:38:57Z</time>
      </trkpt>
      <trkpt lat="59.271022173814" lon="17.954858015539">
        <ele>37.6</ele>
        <time>2016-04-29T17:39:03Z</time>
      </trkpt>
      <trkpt lat="59.270583884263" lon="17.955327821034">
        <ele>37.6</ele>
        <time>2016-04-29T17:39:10Z</time>
      </trkpt>
      <trkpt lat="59.270403673413" lon="17.955488502057">
        <ele>37.6</ele>
        <time>2016-04-29T17:39:13Z</time>
      </trkpt>
      <trkpt lat="59.270287835555" lon="17.95560308263">
        <ele>37.6</ele>
        <time>2016-04-29T17:39:15Z</time>
      </trkpt>
      <trkpt lat="59.269979633092" lon="17.955900807718">
        <ele>37.6</ele>
        <time>2016-04-29T17:39:20Z</time>
      </trkpt>
      <trkpt lat="59.269551988554" lon="17.956320740908">
        <ele>37.6</ele>
        <time>2016-04-29T17:39:27Z</time>
      </trkpt>
      <trkpt lat="59.269492560883" lon="17.956368685376">
        <ele>37.6</ele>
        <time>2016-04-29T17:39:28Z</time>
      </trkpt>
      <trkpt lat="59.269313774956" lon="17.956542442163">
        <ele>37.6</ele>
        <time>2016-04-29T17:39:31Z</time>
      </trkpt>
      <trkpt lat="59.268951760695" lon="17.956953239082">
        <ele>37.6</ele>
        <time>2016-04-29T17:39:37Z</time>
      </trkpt>
      <trkpt lat="59.268708098862" lon="17.957251131808">
        <ele>37</ele>
        <time>2016-04-29T17:39:41Z</time>
      </trkpt>
      <trkpt lat="59.268647833001" lon="17.957324976347">
        <ele>36.6</ele>
        <time>2016-04-29T17:39:42Z</time>
      </trkpt>
      <trkpt lat="59.268582957095" lon="17.957387672959">
        <ele>36.2</ele>
        <time>2016-04-29T17:39:43Z</time>
      </trkpt>
      <trkpt lat="59.268511710945" lon="17.957445675707">
        <ele>35.8</ele>
        <time>2016-04-29T17:39:44Z</time>
      </trkpt>
      <trkpt lat="59.268445410116" lon="17.957509629604">
        <ele>35.2</ele>
        <time>2016-04-29T17:39:45Z</time>
      </trkpt>
      <trkpt lat="59.268314484838" lon="17.957675675043">
        <ele>35.2</ele>
        <time>2016-04-29T17:39:47Z</time>
      </trkpt>
      <trkpt lat="59.26826067304" lon="17.95774884903">
        <ele>35.2</ele>
        <time>2016-04-29T17:39:48Z</time>
      </trkpt>
      <trkpt lat="59.268139889861" lon="17.957891508968">
        <ele>35.2</ele>
        <time>2016-04-29T17:39:50Z</time>
      </trkpt>
      <trkpt lat="59.26795473369" lon="17.958116311526">
        <ele>35.2</ele>
        <time>2016-04-29T17:39:53Z</time>
      </trkpt>
      <trkpt lat="59.2678868403" lon="17.95818806059">
        <ele>35.2</ele>
        <time>2016-04-29T17:39:54Z</time>
      </trkpt>
      <trkpt lat="59.267694810971" lon="17.958414204252">
        <ele>35.2</ele>
        <time>2016-04-29T17:39:57Z</time>
      </trkpt>
      <trkpt lat="59.267637814051" lon="17.958500873098">
        <ele>35.2</ele>
        <time>2016-04-29T17:39:58Z</time>
      </trkpt>
      <trkpt lat="59.267479312322" lon="17.958803040593">
        <ele>35.2</ele>
        <time>2016-04-29T17:40:01Z</time>
      </trkpt>
      <trkpt lat="59.267260460913" lon="17.959366136635">
        <ele>35.2</ele>
        <time>2016-04-29T17:40:06Z</time>
      </trkpt>
      <trkpt lat="59.267060468779" lon="17.959927723935">
        <ele>35.2</ele>
        <time>2016-04-29T17:40:11Z</time>
      </trkpt>
      <trkpt lat="59.267022498772" lon="17.960047752743">
        <ele>35.2</ele>
        <time>2016-04-29T17:40:12Z</time>
      </trkpt>
      <trkpt lat="59.266755451438" lon="17.960826515072">
        <ele>35.2</ele>
        <time>2016-04-29T17:40:18Z</time>
      </trkpt>
      <trkpt lat="59.266569624715" lon="17.961392125684">
        <ele>35.2</ele>
        <time>2016-04-29T17:40:24Z</time>
      </trkpt>
      <trkpt lat="59.266267121944" lon="17.96229183883">
        <ele>35.2</ele>
        <time>2016-04-29T17:40:32Z</time>
      </trkpt>
      <trkpt lat="59.266132257173" lon="17.962730882752">
        <ele>35.6</ele>
        <time>2016-04-29T17:40:36Z</time>
      </trkpt>
      <trkpt lat="59.266101411781" lon="17.962822077824">
        <ele>36</ele>
        <time>2016-04-29T17:40:37Z</time>
      </trkpt>
      <trkpt lat="59.26607383533" lon="17.962925929565">
        <ele>36.6</ele>
        <time>2016-04-29T17:40:38Z</time>
      </trkpt>
      <trkpt lat="59.266038798988" lon="17.963019555388">
        <ele>37</ele>
        <time>2016-04-29T17:40:39Z</time>
      </trkpt>
      <trkpt lat="59.266001415714" lon="17.963118042713">
        <ele>37.4</ele>
        <time>2016-04-29T17:40:40Z</time>
      </trkpt>
      <trkpt lat="59.265894211213" lon="17.963403865503">
        <ele>37.4</ele>
        <time>2016-04-29T17:40:43Z</time>
      </trkpt>
      <trkpt lat="59.265653399226" lon="17.963942570216">
        <ele>37.4</ele>
        <time>2016-04-29T17:40:49Z</time>
      </trkpt>
      <trkpt lat="59.265585841112" lon="17.964118338659">
        <ele>37.8</ele>
        <time>2016-04-29T17:40:51Z</time>
      </trkpt>
      <trkpt lat="59.265549212209" lon="17.964192350836">
        <ele>38.4</ele>
        <time>2016-04-29T17:40:52Z</time>
      </trkpt>
      <trkpt lat="59.265510068736" lon="17.964270973058">
        <ele>39</ele>
        <time>2016-04-29T17:40:53Z</time>
      </trkpt>
      <trkpt lat="59.265473858928" lon="17.964348421814">
        <ele>39.4</ele>
        <time>2016-04-29T17:40:54Z</time>
      </trkpt>
      <trkpt lat="59.265441085699" lon="17.964423188362">
        <ele>40</ele>
        <time>2016-04-29T17:40:55Z</time>
      </trkpt>
      <trkpt lat="59.265405965538" lon="17.964488651001">
        <ele>40</ele>
        <time>2016-04-29T17:40:56Z</time>
      </trkpt>
      <trkpt lat="59.265317201217" lon="17.964685038918">
        <ele>40.4</ele>
        <time>2016-04-29T17:40:59Z</time>
      </trkpt>
      <trkpt lat="59.265290462956" lon="17.964758212905">
        <ele>40.8</ele>
        <time>2016-04-29T17:41:00Z</time>
      </trkpt>
      <trkpt lat="59.265257605908" lon="17.964835913118">
        <ele>41.2</ele>
        <time>2016-04-29T17:41:01Z</time>
      </trkpt>
      <trkpt lat="59.265220809367" lon="17.964900956662">
        <ele>41.8</ele>
        <time>2016-04-29T17:41:02Z</time>
      </trkpt>
      <trkpt lat="59.265184264283" lon="17.9649597976">
        <ele>42.2</ele>
        <time>2016-04-29T17:41:03Z</time>
      </trkpt>
      <trkpt lat="59.265155849642" lon="17.965029870284">
        <ele>42.6</ele>
        <time>2016-04-29T17:41:04Z</time>
      </trkpt>
      <trkpt lat="59.265131961227" lon="17.965097596036">
        <ele>43</ele>
        <time>2016-04-29T17:41:05Z</time>
      </trkpt>
      <trkpt lat="59.265101954025" lon="17.965169009824">
        <ele>43.4</ele>
        <time>2016-04-29T17:41:06Z</time>
      </trkpt>
      <trkpt lat="59.265069767529" lon="17.965223911269">
        <ele>43.8</ele>
        <time>2016-04-29T17:41:07Z</time>
      </trkpt>
      <trkpt lat="59.265040430879" lon="17.965289960641">
        <ele>44.2</ele>
        <time>2016-04-29T17:41:08Z</time>
      </trkpt>
      <trkpt lat="59.265017213016" lon="17.965365313922">
        <ele>44.2</ele>
        <time>2016-04-29T17:41:09Z</time>
      </trkpt>
      <trkpt lat="59.264995503895" lon="17.965429938371">
        <ele>44.2</ele>
        <time>2016-04-29T17:41:10Z</time>
      </trkpt>
      <trkpt lat="59.264948900531" lon="17.965589110652">
        <ele>44.6</ele>
        <time>2016-04-29T17:41:12Z</time>
      </trkpt>
      <trkpt lat="59.264925263573" lon="17.965677539697">
        <ele>45</ele>
        <time>2016-04-29T17:41:13Z</time>
      </trkpt>
      <trkpt lat="59.264906571936" lon="17.965755742824">
        <ele>45.4</ele>
        <time>2016-04-29T17:41:14Z</time>
      </trkpt>
      <trkpt lat="59.264886539195" lon="17.96584073529">
        <ele>45.8</ele>
        <time>2016-04-29T17:41:15Z</time>
      </trkpt>
      <trkpt lat="59.264862483142" lon="17.965921620625">
        <ele>46.2</ele>
        <time>2016-04-29T17:41:16Z</time>
      </trkpt>
      <trkpt lat="59.264753602261" lon="17.966255806978">
        <ele>46.2</ele>
        <time>2016-04-29T17:41:20Z</time>
      </trkpt>
      <trkpt lat="59.264683529577" lon="17.966597117946">
        <ele>46.2</ele>
        <time>2016-04-29T17:41:24Z</time>
      </trkpt>
      <trkpt lat="59.264650840167" lon="17.966916049241">
        <ele>46.2</ele>
        <time>2016-04-29T17:41:27Z</time>
      </trkpt>
      <trkpt lat="59.264628041399" lon="17.967027779968">
        <ele>46.2</ele>
        <time>2016-04-29T17:41:28Z</time>
      </trkpt>
      <trkpt lat="59.264539779992" lon="17.967461543293">
        <ele>46.2</ele>
        <time>2016-04-29T17:41:32Z</time>
      </trkpt>
      <trkpt lat="59.264424445048" lon="17.967906454545">
        <ele>46.2</ele>
        <time>2016-04-29T17:41:36Z</time>
      </trkpt>
      <trkpt lat="59.264266278595" lon="17.968384893397">
        <ele>45.8</ele>
        <time>2016-04-29T17:41:40Z</time>
      </trkpt>
      <trkpt lat="59.264232918633" lon="17.968510873354">
        <ele>45.4</ele>
        <time>2016-04-29T17:41:41Z</time>
      </trkpt>
      <trkpt lat="59.264194026617" lon="17.968631740352">
        <ele>45</ele>
        <time>2016-04-29T17:41:42Z</time>
      </trkpt>
      <trkpt lat="59.264148848176" lon="17.968758642318">
        <ele>44.6</ele>
        <time>2016-04-29T17:41:43Z</time>
      </trkpt>
      <trkpt lat="59.264104005011" lon="17.968876072737">
        <ele>44.2</ele>
        <time>2016-04-29T17:41:44Z</time>
      </trkpt>
      <trkpt lat="59.263994872673" lon="17.969110682118">
        <ele>44.2</ele>
        <time>2016-04-29T17:41:46Z</time>
      </trkpt>
      <trkpt lat="59.263938713943" lon="17.969220485008">
        <ele>43.8</ele>
        <time>2016-04-29T17:41:47Z</time>
      </trkpt>
      <trkpt lat="59.263879537729" lon="17.969328946794">
        <ele>43.4</ele>
        <time>2016-04-29T17:41:48Z</time>
      </trkpt>
      <trkpt lat="59.263817176393" lon="17.969429361956">
        <ele>43</ele>
        <time>2016-04-29T17:41:49Z</time>
      </trkpt>
      <trkpt lat="59.263753557772" lon="17.969528603652">
        <ele>42.6</ele>
        <time>2016-04-29T17:41:50Z</time>
      </trkpt>
      <trkpt lat="59.263693711006" lon="17.969613512299">
        <ele>42.2</ele>
        <time>2016-04-29T17:41:51Z</time>
      </trkpt>
      <trkpt lat="59.263625985254" lon="17.969706551389">
        <ele>42.2</ele>
        <time>2016-04-29T17:41:52Z</time>
      </trkpt>
      <trkpt lat="59.263237065094" lon="17.970221451506">
        <ele>42.2</ele>
        <time>2016-04-29T17:41:58Z</time>
      </trkpt>
      <trkpt lat="59.262786621788" lon="17.970807178678">
        <ele>42.2</ele>
        <time>2016-04-29T17:42:05Z</time>
      </trkpt>
      <trkpt lat="59.26239585761" lon="17.971313696895">
        <ele>41.8</ele>
        <time>2016-04-29T17:42:11Z</time>
      </trkpt>
      <trkpt lat="59.26233047879" lon="17.971403467044">
        <ele>41.4</ele>
        <time>2016-04-29T17:42:12Z</time>
      </trkpt>
      <trkpt lat="59.262263675047" lon="17.971480580524">
        <ele>40.8</ele>
        <time>2016-04-29T17:42:13Z</time>
      </trkpt>
      <trkpt lat="59.262194775829" lon="17.971576553279">
        <ele>40.4</ele>
        <time>2016-04-29T17:42:14Z</time>
      </trkpt>
      <trkpt lat="59.262128977914" lon="17.971660707555">
        <ele>40</ele>
        <time>2016-04-29T17:42:15Z</time>
      </trkpt>
      <trkpt lat="59.262066700397" lon="17.971745700021">
        <ele>40</ele>
        <time>2016-04-29T17:42:16Z</time>
      </trkpt>
      <trkpt lat="59.261934517834" lon="17.971918031885">
        <ele>39.6</ele>
        <time>2016-04-29T17:42:18Z</time>
      </trkpt>
      <trkpt lat="59.261872072679" lon="17.972006125654">
        <ele>39.2</ele>
        <time>2016-04-29T17:42:19Z</time>
      </trkpt>
      <trkpt lat="59.261812561189" lon="17.972097572183">
        <ele>38.8</ele>
        <time>2016-04-29T17:42:20Z</time>
      </trkpt>
      <trkpt lat="59.261754474622" lon="17.972179463346">
        <ele>38.4</ele>
        <time>2016-04-29T17:42:21Z</time>
      </trkpt>
      <trkpt lat="59.261693035295" lon="17.9722688144">
        <ele>38</ele>
        <time>2016-04-29T17:42:22Z</time>
      </trkpt>
      <trkpt lat="59.261419785355" lon="17.97260828135">
        <ele>38</ele>
        <time>2016-04-29T17:42:26Z</time>
      </trkpt>
      <trkpt lat="59.261151480736" lon="17.972956716933">
        <ele>37.2</ele>
        <time>2016-04-29T17:42:30Z</time>
      </trkpt>
      <trkpt lat="59.261088029753" lon="17.973039446286">
        <ele>36.8</ele>
        <time>2016-04-29T17:42:31Z</time>
      </trkpt>
      <trkpt lat="59.261025919874" lon="17.973123432924">
        <ele>36.4</ele>
        <time>2016-04-29T17:42:32Z</time>
      </trkpt>
      <trkpt lat="59.260963726176" lon="17.973201133137">
        <ele>36</ele>
        <time>2016-04-29T17:42:33Z</time>
      </trkpt>
      <trkpt lat="59.260677735748" lon="17.973653923375">
        <ele>36</ele>
        <time>2016-04-29T17:42:38Z</time>
      </trkpt>
      <trkpt lat="59.260465841316" lon="17.974049465236">
        <ele>36</ele>
        <time>2016-04-29T17:42:42Z</time>
      </trkpt>
      <trkpt lat="59.260140791234" lon="17.974619518255">
        <ele>36</ele>
        <time>2016-04-29T17:42:48Z</time>
      </trkpt>
      <trkpt lat="59.259817501351" lon="17.975087228275">
        <ele>36</ele>
        <time>2016-04-29T17:42:54Z</time>
      </trkpt>
      <trkpt lat="59.259701998769" lon="17.975009444243">
        <ele>36</ele>
        <time>2016-04-29T17:42:56Z</time>
      </trkpt>
      <trkpt lat="59.259533019665" lon="17.974686741093">
        <ele>36</ele>
        <time>2016-04-29T17:42:59Z</time>
      </trkpt>
      <trkpt lat="59.259343588725" lon="17.974281392409">
        <ele>35.6</ele>
        <time>2016-04-29T17:43:02Z</time>
      </trkpt>
      <trkpt lat="59.25927695262" lon="17.974162537067">
        <ele>35</ele>
        <time>2016-04-29T17:43:03Z</time>
      </trkpt>
      <trkpt lat="59.259203024262" lon="17.974052566539">
        <ele>34.6</ele>
        <time>2016-04-29T17:43:04Z</time>
      </trkpt>
      <trkpt lat="59.259124821135" lon="17.973949720626">
        <ele>34.2</ele>
        <time>2016-04-29T17:43:05Z</time>
      </trkpt>
      <trkpt lat="59.259041337411" lon="17.973856094803">
        <ele>33.8</ele>
        <time>2016-04-29T17:43:06Z</time>
      </trkpt>
      <trkpt lat="59.258951148167" lon="17.97375827803">
        <ele>33.8</ele>
        <time>2016-04-29T17:43:07Z</time>
      </trkpt>
      <trkpt lat="59.258859953095" lon="17.973683595301">
        <ele>33.8</ele>
        <time>2016-04-29T17:43:08Z</time>
      </trkpt>
      <trkpt lat="59.25866339754" lon="17.973539426621">
        <ele>33.2</ele>
        <time>2016-04-29T17:43:10Z</time>
      </trkpt>
      <trkpt lat="59.258568849708" lon="17.973462564598">
        <ele>32.8</ele>
        <time>2016-04-29T17:43:11Z</time>
      </trkpt>
      <trkpt lat="59.258472625496" lon="17.973394587389">
        <ele>32.2</ele>
        <time>2016-04-29T17:43:12Z</time>
      </trkpt>
      <trkpt lat="59.258374305809" lon="17.973326191085">
        <ele>31.8</ele>
        <time>2016-04-29T17:43:13Z</time>
      </trkpt>
      <trkpt lat="59.258277494864" lon="17.973252346546">
        <ele>31.2</ele>
        <time>2016-04-29T17:43:14Z</time>
      </trkpt>
      <trkpt lat="59.257982535803" lon="17.973040033019">
        <ele>31.2</ele>
        <time>2016-04-29T17:43:17Z</time>
      </trkpt>
      <trkpt lat="59.257723367455" lon="17.972768710916">
        <ele>31.8</ele>
        <time>2016-04-29T17:43:20Z</time>
      </trkpt>
      <trkpt lat="59.257646086337" lon="17.972666284098">
        <ele>32.4</ele>
        <time>2016-04-29T17:43:21Z</time>
      </trkpt>
      <trkpt lat="59.257568805219" lon="17.972553044629">
        <ele>32.8</ele>
        <time>2016-04-29T17:43:22Z</time>
      </trkpt>
      <trkpt lat="59.257511556842" lon="17.97243561421">
        <ele>33.4</ele>
        <time>2016-04-29T17:43:23Z</time>
      </trkpt>
      <trkpt lat="59.25744969842" lon="17.97231826761">
        <ele>34</ele>
        <time>2016-04-29T17:43:24Z</time>
      </trkpt>
      <trkpt lat="59.257387337084" lon="17.972215840792">
        <ele>34.4</ele>
        <time>2016-04-29T17:43:25Z</time>
      </trkpt>
      <trkpt lat="59.257332016544" lon="17.972108803929">
        <ele>35</ele>
        <time>2016-04-29T17:43:26Z</time>
      </trkpt>
      <trkpt lat="59.257275773995" lon="17.972004365455">
        <ele>35.6</ele>
        <time>2016-04-29T17:43:27Z</time>
      </trkpt>
      <trkpt lat="59.257222968025" lon="17.971902441551">
        <ele>36</ele>
        <time>2016-04-29T17:43:28Z</time>
      </trkpt>
      <trkpt lat="59.257169659141" lon="17.9718078099">
        <ele>36.6</ele>
        <time>2016-04-29T17:43:29Z</time>
      </trkpt>
      <trkpt lat="59.25711190785" lon="17.971699599571">
        <ele>37</ele>
        <time>2016-04-29T17:43:30Z</time>
      </trkpt>
      <trkpt lat="59.257057509319" lon="17.971606811938">
        <ele>37.4</ele>
        <time>2016-04-29T17:43:31Z</time>
      </trkpt>
      <trkpt lat="59.257001769684" lon="17.971527770621">
        <ele>38</ele>
        <time>2016-04-29T17:43:32Z</time>
      </trkpt>
      <trkpt lat="59.256947371153" lon="17.971457530299">
        <ele>38.6</ele>
        <time>2016-04-29T17:43:33Z</time>
      </trkpt>
      <trkpt lat="59.256891715337" lon="17.971388966357">
        <ele>39</ele>
        <time>2016-04-29T17:43:34Z</time>
      </trkpt>
      <trkpt lat="59.256833796408" lon="17.971314618904">
        <ele>39.6</ele>
        <time>2016-04-29T17:43:35Z</time>
      </trkpt>
      <trkpt lat="59.256777972954" lon="17.971254353043">
        <ele>40.2</ele>
        <time>2016-04-29T17:43:36Z</time>
      </trkpt>
      <trkpt lat="59.256706307709" lon="17.971179418857">
        <ele>40.8</ele>
        <time>2016-04-29T17:43:37Z</time>
      </trkpt>
      <trkpt lat="59.256630451514" lon="17.971130803837">
        <ele>40.8</ele>
        <time>2016-04-29T17:43:38Z</time>
      </trkpt>
      <trkpt lat="59.256550488188" lon="17.971087385595">
        <ele>40.8</ele>
        <time>2016-04-29T17:43:39Z</time>
      </trkpt>
      <trkpt lat="59.256130890274" lon="17.970889321298">
        <ele>40</ele>
        <time>2016-04-29T17:43:44Z</time>
      </trkpt>
      <trkpt lat="59.256051178405" lon="17.970845651599">
        <ele>39.6</ele>
        <time>2016-04-29T17:43:45Z</time>
      </trkpt>
      <trkpt lat="59.255975238391" lon="17.970796282208">
        <ele>39.2</ele>
        <time>2016-04-29T17:43:46Z</time>
      </trkpt>
      <trkpt lat="59.255905165707" lon="17.970749846482">
        <ele>38.8</ele>
        <time>2016-04-29T17:43:47Z</time>
      </trkpt>
      <trkpt lat="59.255763511597" lon="17.970665608387">
        <ele>38.8</ele>
        <time>2016-04-29T17:43:49Z</time>
      </trkpt>
      <trkpt lat="59.255695702026" lon="17.970624453258">
        <ele>38.4</ele>
        <time>2016-04-29T17:43:50Z</time>
      </trkpt>
      <trkpt lat="59.255629568835" lon="17.970596206255">
        <ele>38</ele>
        <time>2016-04-29T17:43:51Z</time>
      </trkpt>
      <trkpt lat="59.255562429816" lon="17.970572234021">
        <ele>37.6</ele>
        <time>2016-04-29T17:43:52Z</time>
      </trkpt>
      <trkpt lat="59.255487160354" lon="17.970547507416">
        <ele>37.2</ele>
        <time>2016-04-29T17:43:53Z</time>
      </trkpt>
      <trkpt lat="59.255409292503" lon="17.97053627567">
        <ele>36.8</ele>
        <time>2016-04-29T17:43:54Z</time>
      </trkpt>
      <trkpt lat="59.25499044896" lon="17.970594362237">
        <ele>36.2</ele>
        <time>2016-04-29T17:43:59Z</time>
      </trkpt>
      <trkpt lat="59.254902606648" lon="17.970610287847">
        <ele>35.8</ele>
        <time>2016-04-29T17:44:00Z</time>
      </trkpt>
      <trkpt lat="59.254823146236" lon="17.970616993367">
        <ele>35.2</ele>
        <time>2016-04-29T17:44:01Z</time>
      </trkpt>
      <trkpt lat="59.254743518186" lon="17.970624034163">
        <ele>34.8</ele>
        <time>2016-04-29T17:44:02Z</time>
      </trkpt>
      <trkpt lat="59.254664225412" lon="17.970628644208">
        <ele>34.2</ele>
        <time>2016-04-29T17:44:03Z</time>
      </trkpt>
      <trkpt lat="59.254436489189" lon="17.97058991983">
        <ele>34.2</ele>
        <time>2016-04-29T17:44:06Z</time>
      </trkpt>
      <trkpt lat="59.254097273696" lon="17.970371487516">
        <ele>34.2</ele>
        <time>2016-04-29T17:44:11Z</time>
      </trkpt>
      <trkpt lat="59.253911279335" lon="17.970161353283">
        <ele>34.6</ele>
        <time>2016-04-29T17:44:14Z</time>
      </trkpt>
      <trkpt lat="59.253842463936" lon="17.970078875387">
        <ele>35.2</ele>
        <time>2016-04-29T17:44:15Z</time>
      </trkpt>
      <trkpt lat="59.253779348229" lon="17.970008886522">
        <ele>35.6</ele>
        <time>2016-04-29T17:44:16Z</time>
      </trkpt>
      <trkpt lat="59.253715897246" lon="17.969936215449">
        <ele>36</ele>
        <time>2016-04-29T17:44:17Z</time>
      </trkpt>
      <trkpt lat="59.253651608073" lon="17.969859772521">
        <ele>36.4</ele>
        <time>2016-04-29T17:44:18Z</time>
      </trkpt>
      <trkpt lat="59.25330820163" lon="17.969478898985">
        <ele>37</ele>
        <time>2016-04-29T17:44:23Z</time>
      </trkpt>
      <trkpt lat="59.253247432855" lon="17.969406898464">
        <ele>37.4</ele>
        <time>2016-04-29T17:44:24Z</time>
      </trkpt>
      <trkpt lat="59.253187669908" lon="17.969331964278">
        <ele>37.8</ele>
        <time>2016-04-29T17:44:25Z</time>
      </trkpt>
      <trkpt lat="59.253125811486" lon="17.9692597123">
        <ele>38.4</ele>
        <time>2016-04-29T17:44:26Z</time>
      </trkpt>
      <trkpt lat="59.253062276684" lon="17.969181173897">
        <ele>38.8</ele>
        <time>2016-04-29T17:44:27Z</time>
      </trkpt>
      <trkpt lat="59.25300142409" lon="17.96910548534">
        <ele>39.4</ele>
        <time>2016-04-29T17:44:28Z</time>
      </trkpt>
      <trkpt lat="59.252935626175" lon="17.969032814267">
        <ele>39.8</ele>
        <time>2016-04-29T17:44:29Z</time>
      </trkpt>
      <trkpt lat="59.252868654794" lon="17.968954108226">
        <ele>40.4</ele>
        <time>2016-04-29T17:44:30Z</time>
      </trkpt>
      <trkpt lat="59.252807047829" lon="17.968876743289">
        <ele>40.8</ele>
        <time>2016-04-29T17:44:31Z</time>
      </trkpt>
      <trkpt lat="59.252740998457" lon="17.96879954599">
        <ele>41.2</ele>
        <time>2016-04-29T17:44:32Z</time>
      </trkpt>
      <trkpt lat="59.252680062044" lon="17.9687232707">
        <ele>42.2</ele>
        <time>2016-04-29T17:44:33Z</time>
      </trkpt>
      <trkpt lat="59.25262088583" lon="17.968646241039">
        <ele>42.8</ele>
        <time>2016-04-29T17:44:34Z</time>
      </trkpt>
      <trkpt lat="59.252562883082" lon="17.968577593278">
        <ele>43.4</ele>
        <time>2016-04-29T17:44:35Z</time>
      </trkpt>
      <trkpt lat="59.252515357709" lon="17.968522691833">
        <ele>44</ele>
        <time>2016-04-29T17:44:36Z</time>
      </trkpt>
      <trkpt lat="59.252471436553" lon="17.968483464541">
        <ele>44.6</ele>
        <time>2016-04-29T17:44:37Z</time>
      </trkpt>
      <trkpt lat="59.252448973061" lon="17.968461168687">
        <ele>45.2</ele>
        <time>2016-04-29T17:44:38Z</time>
      </trkpt>
      <trkpt lat="59.252429443234" lon="17.96843241877">
        <ele>45.8</ele>
        <time>2016-04-29T17:44:39Z</time>
      </trkpt>
      <trkpt lat="59.252403878439" lon="17.968401489559">
        <ele>46.4</ele>
        <time>2016-04-29T17:44:40Z</time>
      </trkpt>
      <trkpt lat="59.252371356667" lon="17.968366620855">
        <ele>46.8</ele>
        <time>2016-04-29T17:44:41Z</time>
      </trkpt>
      <trkpt lat="59.252334476307" lon="17.968323286432">
        <ele>47.4</ele>
        <time>2016-04-29T17:44:42Z</time>
      </trkpt>
      <trkpt lat="59.252300613431" lon="17.968255812137">
        <ele>47.8</ele>
        <time>2016-04-29T17:44:43Z</time>
      </trkpt>
      <trkpt lat="59.252263900709" lon="17.968192528792">
        <ele>47.8</ele>
        <time>2016-04-29T17:44:44Z</time>
      </trkpt>
      <trkpt lat="59.252005486732" lon="17.967747030807">
        <ele>47.8</ele>
        <time>2016-04-29T17:44:50Z</time>
      </trkpt>
      <trkpt lat="59.251804404951" lon="17.967409156418">
        <ele>47.8</ele>
        <time>2016-04-29T17:44:54Z</time>
      </trkpt>
      <trkpt lat="59.251749838782" lon="17.967321146468">
        <ele>47.8</ele>
        <time>2016-04-29T17:44:55Z</time>
      </trkpt>
      <trkpt lat="59.251568203009" lon="17.967030629814">
        <ele>47</ele>
        <time>2016-04-29T17:44:58Z</time>
      </trkpt>
      <trkpt lat="59.251502656551" lon="17.966932477765">
        <ele>46.4</ele>
        <time>2016-04-29T17:44:59Z</time>
      </trkpt>
      <trkpt lat="59.25143736155" lon="17.966840193046">
        <ele>45.8</ele>
        <time>2016-04-29T17:45:00Z</time>
      </trkpt>
      <trkpt lat="59.251370222531" lon="17.966751177268">
        <ele>45.2</ele>
        <time>2016-04-29T17:45:01Z</time>
      </trkpt>
      <trkpt lat="59.251305514263" lon="17.966661490938">
        <ele>44.6</ele>
        <time>2016-04-29T17:45:02Z</time>
      </trkpt>
      <trkpt lat="59.251237117959" lon="17.966573648626">
        <ele>44</ele>
        <time>2016-04-29T17:45:03Z</time>
      </trkpt>
      <trkpt lat="59.25116411161" lon="17.966495110223">
        <ele>43.4</ele>
        <time>2016-04-29T17:45:04Z</time>
      </trkpt>
      <trkpt lat="59.25109035089" lon="17.966410117757">
        <ele>43.4</ele>
        <time>2016-04-29T17:45:05Z</time>
      </trkpt>
      <trkpt lat="59.250928412582" lon="17.96623552278">
        <ele>42.8</ele>
        <time>2016-04-29T17:45:07Z</time>
      </trkpt>
      <trkpt lat="59.250849706541" lon="17.966150195038">
        <ele>42.2</ele>
        <time>2016-04-29T17:45:08Z</time>
      </trkpt>
      <trkpt lat="59.250764965532" lon="17.966061598355">
        <ele>41.4</ele>
        <time>2016-04-29T17:45:09Z</time>
      </trkpt>
      <trkpt lat="59.250679889247" lon="17.965969984188">
        <ele>40.6</ele>
        <time>2016-04-29T17:45:10Z</time>
      </trkpt>
      <trkpt lat="59.250598500998" lon="17.965867641189">
        <ele>39.6</ele>
        <time>2016-04-29T17:45:11Z</time>
      </trkpt>
      <trkpt lat="59.250521722794" lon="17.965735542445">
        <ele>38.8</ele>
        <time>2016-04-29T17:45:12Z</time>
      </trkpt>
      <trkpt lat="59.250476376715" lon="17.965553655215">
        <ele>38</ele>
        <time>2016-04-29T17:45:13Z</time>
      </trkpt>
      <trkpt lat="59.250474700335" lon="17.96535039414">
        <ele>37</ele>
        <time>2016-04-29T17:45:14Z</time>
      </trkpt>
      <trkpt lat="59.250505713365" lon="17.965173871326">
        <ele>36.2</ele>
        <time>2016-04-29T17:45:15Z</time>
      </trkpt>
      <trkpt lat="59.250550305073" lon="17.965013525579">
        <ele>35.2</ele>
        <time>2016-04-29T17:45:16Z</time>
      </trkpt>
      <trkpt lat="59.250696988323" lon="17.96460189047">
        <ele>35.2</ele>
        <time>2016-04-29T17:45:19Z</time>
      </trkpt>
      <trkpt lat="59.250741244755" lon="17.964472306296">
        <ele>35.2</ele>
        <time>2016-04-29T17:45:20Z</time>
      </trkpt>
      <trkpt lat="59.250842581926" lon="17.964009122502">
        <ele>35.8</ele>
        <time>2016-04-29T17:45:24Z</time>
      </trkpt>
      <trkpt lat="59.250795140372" lon="17.963920190543">
        <ele>36.2</ele>
        <time>2016-04-29T17:45:25Z</time>
      </trkpt>
      <trkpt lat="59.250743172592" lon="17.963860762872">
        <ele>36.6</ele>
        <time>2016-04-29T17:45:26Z</time>
      </trkpt>
      <trkpt lat="59.250687432957" lon="17.963787756523">
        <ele>37.2</ele>
        <time>2016-04-29T17:45:27Z</time>
      </trkpt>
      <trkpt lat="59.250626915639" lon="17.963717432382">
        <ele>37.6</ele>
        <time>2016-04-29T17:45:28Z</time>
      </trkpt>
      <trkpt lat="59.25049104504" lon="17.963560607033">
        <ele>37.2</ele>
        <time>2016-04-29T17:45:30Z</time>
      </trkpt>
      <trkpt lat="59.25042650441" lon="17.963483409734">
        <ele>36.8</ele>
        <time>2016-04-29T17:45:31Z</time>
      </trkpt>
      <trkpt lat="59.250359533029" lon="17.963406212435">
        <ele>36.2</ele>
        <time>2016-04-29T17:45:32Z</time>
      </trkpt>
      <trkpt lat="59.250291723458" lon="17.963330775335">
        <ele>35.8</ele>
        <time>2016-04-29T17:45:33Z</time>
      </trkpt>
      <trkpt lat="59.250221902231" lon="17.963247040154">
        <ele>35.2</ele>
        <time>2016-04-29T17:45:34Z</time>
      </trkpt>
      <trkpt lat="59.250145543122" lon="17.963177135108">
        <ele>34.6</ele>
        <time>2016-04-29T17:45:35Z</time>
      </trkpt>
      <trkpt lat="59.25007195004" lon="17.963108068252">
        <ele>34</ele>
        <time>2016-04-29T17:45:36Z</time>
      </trkpt>
      <trkpt lat="59.250003553736" lon="17.963042354156">
        <ele>33.6</ele>
        <time>2016-04-29T17:45:37Z</time>
      </trkpt>
      <trkpt lat="59.249948652291" lon="17.962999774104">
        <ele>33</ele>
        <time>2016-04-29T17:45:38Z</time>
      </trkpt>
      <trkpt lat="59.249877238503" lon="17.962945375573">
        <ele>33</ele>
        <time>2016-04-29T17:45:40Z</time>
      </trkpt>
      <trkpt lat="59.249653777049" lon="17.962755609357">
        <ele>33</ele>
        <time>2016-04-29T17:45:45Z</time>
      </trkpt>
      <trkpt lat="59.249368876268" lon="17.962540194527">
        <ele>33</ele>
        <time>2016-04-29T17:45:50Z</time>
      </trkpt>
      <trkpt lat="59.249125298254" lon="17.962306507155">
        <ele>33</ele>
        <time>2016-04-29T17:45:55Z</time>
      </trkpt>
      <trkpt lat="59.24894877544" lon="17.962131157807">
        <ele>33.4</ele>
        <time>2016-04-29T17:45:59Z</time>
      </trkpt>
      <trkpt lat="59.24890770413" lon="17.962081704597">
        <ele>33.8</ele>
        <time>2016-04-29T17:46:00Z</time>
      </trkpt>
      <trkpt lat="59.248867219553" lon="17.962037112889">
        <ele>34.2</ele>
        <time>2016-04-29T17:46:01Z</time>
      </trkpt>
      <trkpt lat="59.248826483519" lon="17.961989755154">
        <ele>34.6</ele>
        <time>2016-04-29T17:46:02Z</time>
      </trkpt>
      <trkpt lat="59.248784574019" lon="17.961943403247">
        <ele>35.2</ele>
        <time>2016-04-29T17:46:03Z</time>
      </trkpt>
      <trkpt lat="59.248739479397" lon="17.961906355249">
        <ele>35.2</ele>
        <time>2016-04-29T17:46:04Z</time>
      </trkpt>
      <trkpt lat="59.248549294086" lon="17.961724300381">
        <ele>35.2</ele>
        <time>2016-04-29T17:46:08Z</time>
      </trkpt>
      <trkpt lat="59.248496907211" lon="17.961691275695">
        <ele>35.6</ele>
        <time>2016-04-29T17:46:09Z</time>
      </trkpt>
      <trkpt lat="59.2484492142" lon="17.961657580457">
        <ele>36</ele>
        <time>2016-04-29T17:46:10Z</time>
      </trkpt>
      <trkpt lat="59.248400766818" lon="17.9616321833">
        <ele>36.4</ele>
        <time>2016-04-29T17:46:11Z</time>
      </trkpt>
      <trkpt lat="59.248352906169" lon="17.961600415899">
        <ele>37.2</ele>
        <time>2016-04-29T17:46:12Z</time>
      </trkpt>
      <trkpt lat="59.248257436328" lon="17.961537048735">
        <ele>37.2</ele>
        <time>2016-04-29T17:46:14Z</time>
      </trkpt>
      <trkpt lat="59.247904725976" lon="17.961417019927">
        <ele>37.6</ele>
        <time>2016-04-29T17:46:21Z</time>
      </trkpt>
      <trkpt lat="59.247853093472" lon="17.961415259728">
        <ele>38.2</ele>
        <time>2016-04-29T17:46:22Z</time>
      </trkpt>
      <trkpt lat="59.247801963882" lon="17.961413331891">
        <ele>38.6</ele>
        <time>2016-04-29T17:46:23Z</time>
      </trkpt>
      <trkpt lat="59.247752007758" lon="17.961413080434">
        <ele>39</ele>
        <time>2016-04-29T17:46:24Z</time>
      </trkpt>
      <trkpt lat="59.247700542892" lon="17.961427413483">
        <ele>39.4</ele>
        <time>2016-04-29T17:46:25Z</time>
      </trkpt>
      <trkpt lat="59.24760599506" lon="17.961454067925">
        <ele>39.4</ele>
        <time>2016-04-29T17:46:27Z</time>
      </trkpt>
      <trkpt lat="59.24750373588" lon="17.961506957714">
        <ele>39.4</ele>
        <time>2016-04-29T17:46:29Z</time>
      </trkpt>
      <trkpt lat="59.247300558624" lon="17.961627657074">
        <ele>39.4</ele>
        <time>2016-04-29T17:46:33Z</time>
      </trkpt>
      <trkpt lat="59.247111630598" lon="17.961812226512">
        <ele>39.8</ele>
        <time>2016-04-29T17:46:37Z</time>
      </trkpt>
      <trkpt lat="59.247069721098" lon="17.961869223432">
        <ele>40.4</ele>
        <time>2016-04-29T17:46:38Z</time>
      </trkpt>
      <trkpt lat="59.24702596758" lon="17.961934183157">
        <ele>40.8</ele>
        <time>2016-04-29T17:46:39Z</time>
      </trkpt>
      <trkpt lat="59.246987578478" lon="17.962004004384">
        <ele>41.4</ele>
        <time>2016-04-29T17:46:40Z</time>
      </trkpt>
      <trkpt lat="59.246943992598" lon="17.962074831439">
        <ele>41.8</ele>
        <time>2016-04-29T17:46:41Z</time>
      </trkpt>
      <trkpt lat="59.24690191546" lon="17.962147502512">
        <ele>42.2</ele>
        <time>2016-04-29T17:46:42Z</time>
      </trkpt>
      <trkpt lat="59.246857826666" lon="17.96221975449">
        <ele>42.6</ele>
        <time>2016-04-29T17:46:43Z</time>
      </trkpt>
      <trkpt lat="59.24681725827" lon="17.962288737527">
        <ele>43</ele>
        <time>2016-04-29T17:46:44Z</time>
      </trkpt>
      <trkpt lat="59.246777779521" lon="17.96236308498">
        <ele>43.4</ele>
        <time>2016-04-29T17:46:45Z</time>
      </trkpt>
      <trkpt lat="59.24673679203" lon="17.962437516252">
        <ele>43.8</ele>
        <time>2016-04-29T17:46:46Z</time>
      </trkpt>
      <trkpt lat="59.246415849079" lon="17.963003043045">
        <ele>43.8</ele>
        <time>2016-04-29T17:46:54Z</time>
      </trkpt>
      <trkpt lat="59.246198087317" lon="17.963277801727">
        <ele>43.8</ele>
        <time>2016-04-29T17:46:59Z</time>
      </trkpt>
      <trkpt lat="59.246104964408" lon="17.963371679007">
        <ele>44.2</ele>
        <time>2016-04-29T17:47:01Z</time>
      </trkpt>
      <trkpt lat="59.246060037424" lon="17.963416354534">
        <ele>44.6</ele>
        <time>2016-04-29T17:47:02Z</time>
      </trkpt>
      <trkpt lat="59.246021480684" lon="17.963462287346">
        <ele>45.2</ele>
        <time>2016-04-29T17:47:03Z</time>
      </trkpt>
      <trkpt lat="59.245980157917" lon="17.963506292321">
        <ele>45.6</ele>
        <time>2016-04-29T17:47:04Z</time>
      </trkpt>
      <trkpt lat="59.245938667512" lon="17.963544346147">
        <ele>46</ele>
        <time>2016-04-29T17:47:05Z</time>
      </trkpt>
      <trkpt lat="59.245697771706" lon="17.963791696016">
        <ele>46.4</ele>
        <time>2016-04-29T17:47:11Z</time>
      </trkpt>
      <trkpt lat="59.245653347636" lon="17.963846262185">
        <ele>47</ele>
        <time>2016-04-29T17:47:12Z</time>
      </trkpt>
      <trkpt lat="59.245611019041" lon="17.963893703739">
        <ele>47.4</ele>
        <time>2016-04-29T17:47:13Z</time>
      </trkpt>
      <trkpt lat="59.245569109541" lon="17.963934104497">
        <ele>48</ele>
        <time>2016-04-29T17:47:14Z</time>
      </trkpt>
      <trkpt lat="59.245527200041" lon="17.963978528567">
        <ele>48.4</ele>
        <time>2016-04-29T17:47:15Z</time>
      </trkpt>
      <trkpt lat="59.245484117075" lon="17.964027311225">
        <ele>48.8</ele>
        <time>2016-04-29T17:47:16Z</time>
      </trkpt>
      <trkpt lat="59.245441704661" lon="17.964081290661">
        <ele>49.2</ele>
        <time>2016-04-29T17:47:17Z</time>
      </trkpt>
      <trkpt lat="59.245401806817" lon="17.964136778839">
        <ele>49.6</ele>
        <time>2016-04-29T17:47:18Z</time>
      </trkpt>
      <trkpt lat="59.245361908973" lon="17.964194613949">
        <ele>50</ele>
        <time>2016-04-29T17:47:19Z</time>
      </trkpt>
      <trkpt lat="59.245319077464" lon="17.96425990895">
        <ele>50.4</ele>
        <time>2016-04-29T17:47:20Z</time>
      </trkpt>
      <trkpt lat="59.245283705846" lon="17.964330484548">
        <ele>50.4</ele>
        <time>2016-04-29T17:47:21Z</time>
      </trkpt>
      <trkpt lat="59.245170466377" lon="17.96455076088">
        <ele>50.4</ele>
        <time>2016-04-29T17:47:24Z</time>
      </trkpt>
      <trkpt lat="59.244955386823" lon="17.964994247209">
        <ele>50.4</ele>
        <time>2016-04-29T17:47:29Z</time>
      </trkpt>
      <trkpt lat="59.244846841218" lon="17.965213098618">
        <ele>49.8</ele>
        <time>2016-04-29T17:47:31Z</time>
      </trkpt>
      <trkpt lat="59.244788503194" lon="17.965331451046">
        <ele>49.2</ele>
        <time>2016-04-29T17:47:32Z</time>
      </trkpt>
      <trkpt lat="59.244730751903" lon="17.965438068814">
        <ele>48.8</ele>
        <time>2016-04-29T17:47:33Z</time>
      </trkpt>
      <trkpt lat="59.244668390567" lon="17.965551308283">
        <ele>48.2</ele>
        <time>2016-04-29T17:47:34Z</time>
      </trkpt>
      <trkpt lat="59.244610136362" lon="17.965666894684">
        <ele>47.6</ele>
        <time>2016-04-29T17:47:35Z</time>
      </trkpt>
      <trkpt lat="59.244553893813" lon="17.965769572959">
        <ele>47</ele>
        <time>2016-04-29T17:47:36Z</time>
      </trkpt>
      <trkpt lat="59.244499160006" lon="17.965866048628">
        <ele>46.6</ele>
        <time>2016-04-29T17:47:37Z</time>
      </trkpt>
      <trkpt lat="59.244447359864" lon="17.965959087718">
        <ele>46</ele>
        <time>2016-04-29T17:47:38Z</time>
      </trkpt>
      <trkpt lat="59.244395392084" lon="17.966057910319">
        <ele>45.6</ele>
        <time>2016-04-29T17:47:39Z</time>
      </trkpt>
      <trkpt lat="59.244342334657" lon="17.966157068196">
        <ele>45.6</ele>
        <time>2016-04-29T17:47:40Z</time>
      </trkpt>
      <trkpt lat="59.244218701632" lon="17.966337614322">
        <ele>45.6</ele>
        <time>2016-04-29T17:47:42Z</time>
      </trkpt>
      <trkpt lat="59.244034970384" lon="17.966602566181">
        <ele>45.6</ele>
        <time>2016-04-29T17:47:45Z</time>
      </trkpt>
      <trkpt lat="59.243899267423" lon="17.966765510317">
        <ele>45</ele>
        <time>2016-04-29T17:47:47Z</time>
      </trkpt>
      <trkpt lat="59.243831876947" lon="17.966848910222">
        <ele>44.6</ele>
        <time>2016-04-29T17:47:48Z</time>
      </trkpt>
      <trkpt lat="59.24375702658" lon="17.96693205867">
        <ele>43.6</ele>
        <time>2016-04-29T17:47:49Z</time>
      </trkpt>
      <trkpt lat="59.243682260032" lon="17.967006070847">
        <ele>43.2</ele>
        <time>2016-04-29T17:47:50Z</time>
      </trkpt>
      <trkpt lat="59.243612606443" lon="17.967084273974">
        <ele>42.6</ele>
        <time>2016-04-29T17:47:51Z</time>
      </trkpt>
      <trkpt lat="59.243542030845" lon="17.967150490984">
        <ele>42.2</ele>
        <time>2016-04-29T17:47:52Z</time>
      </trkpt>
      <trkpt lat="59.243472209618" lon="17.967220060754">
        <ele>41.6</ele>
        <time>2016-04-29T17:47:53Z</time>
      </trkpt>
      <trkpt lat="59.243403394219" lon="17.967286277764">
        <ele>41</ele>
        <time>2016-04-29T17:47:54Z</time>
      </trkpt>
      <trkpt lat="59.243267355982" lon="17.967410329884">
        <ele>41</ele>
        <time>2016-04-29T17:47:56Z</time>
      </trkpt>
      <trkpt lat="59.242878687279" lon="17.967789359402">
        <ele>40.6</ele>
        <time>2016-04-29T17:48:02Z</time>
      </trkpt>
      <trkpt lat="59.242806016206" lon="17.967850966367">
        <ele>40.2</ele>
        <time>2016-04-29T17:48:03Z</time>
      </trkpt>
      <trkpt lat="59.242734350961" lon="17.967917518653">
        <ele>39.8</ele>
        <time>2016-04-29T17:48:04Z</time>
      </trkpt>
      <trkpt lat="59.242662769535" lon="17.967958925239">
        <ele>39.4</ele>
        <time>2016-04-29T17:48:05Z</time>
      </trkpt>
      <trkpt lat="59.242594037955" lon="17.967991698468">
        <ele>38.8</ele>
        <time>2016-04-29T17:48:06Z</time>
      </trkpt>
      <trkpt lat="59.242457748261" lon="17.968060849143">
        <ele>38.8</ele>
        <time>2016-04-29T17:48:08Z</time>
      </trkpt>
      <trkpt lat="59.242022895289" lon="17.968310713582">
        <ele>38.8</ele>
        <time>2016-04-29T17:48:14Z</time>
      </trkpt>
      <trkpt lat="59.241815275626" lon="17.96852126691">
        <ele>38.4</ele>
        <time>2016-04-29T17:48:17Z</time>
      </trkpt>
      <trkpt lat="59.241750148263" lon="17.96860424772">
        <ele>38</ele>
        <time>2016-04-29T17:48:18Z</time>
      </trkpt>
      <trkpt lat="59.241684098891" lon="17.968680774467">
        <ele>37.6</ele>
        <time>2016-04-29T17:48:19Z</time>
      </trkpt>
      <trkpt lat="59.241629784179" lon="17.968784710027">
        <ele>37.2</ele>
        <time>2016-04-29T17:48:20Z</time>
      </trkpt>
      <trkpt lat="59.241578319313" lon="17.968880682782">
        <ele>36.8</ele>
        <time>2016-04-29T17:48:21Z</time>
      </trkpt>
      <trkpt lat="59.241476898323" lon="17.969058630519">
        <ele>36.8</ele>
        <time>2016-04-29T17:48:23Z</time>
      </trkpt>
      <trkpt lat="59.241435324099" lon="17.969160051509">
        <ele>36.8</ele>
        <time>2016-04-29T17:48:24Z</time>
      </trkpt>
      <trkpt lat="59.241271374135" lon="17.96933682578">
        <ele>36.8</ele>
        <time>2016-04-29T17:48:27Z</time>
      </trkpt>
      <trkpt lat="59.241146232368" lon="17.969163488088">
        <ele>36.8</ele>
        <time>2016-04-29T17:48:29Z</time>
      </trkpt>
      <trkpt lat="59.241085463593" lon="17.96882469169">
        <ele>36.8</ele>
        <time>2016-04-29T17:48:31Z</time>
      </trkpt>
      <trkpt lat="59.241087307611" lon="17.968417666626">
        <ele>36.4</ele>
        <time>2016-04-29T17:48:33Z</time>
      </trkpt>
      <trkpt lat="59.241118907374" lon="17.96821281299">
        <ele>36</ele>
        <time>2016-04-29T17:48:34Z</time>
      </trkpt>
      <trkpt lat="59.241155955372" lon="17.968015083969">
        <ele>35.6</ele>
        <time>2016-04-29T17:48:35Z</time>
      </trkpt>
      <trkpt lat="59.241166013652" lon="17.967809475962">
        <ele>35.2</ele>
        <time>2016-04-29T17:48:36Z</time>
      </trkpt>
      <trkpt lat="59.241181101072" lon="17.96760093429">
        <ele>34.8</ele>
        <time>2016-04-29T17:48:37Z</time>
      </trkpt>
      <trkpt lat="59.24123491287" lon="17.966796020433">
        <ele>35.2</ele>
        <time>2016-04-29T17:48:41Z</time>
      </trkpt>
      <trkpt lat="59.241242875675" lon="17.966586053838">
        <ele>35.6</ele>
        <time>2016-04-29T17:48:42Z</time>
      </trkpt>
      <trkpt lat="59.241251425213" lon="17.966392431948">
        <ele>36</ele>
        <time>2016-04-29T17:48:43Z</time>
      </trkpt>
      <trkpt lat="59.241254694154" lon="17.966193110366">
        <ele>36.4</ele>
        <time>2016-04-29T17:48:44Z</time>
      </trkpt>
      <trkpt lat="59.241257795457" lon="17.966008038014">
        <ele>36.8</ele>
        <time>2016-04-29T17:48:45Z</time>
      </trkpt>
      <trkpt lat="59.241251006118" lon="17.965630181962">
        <ele>37.2</ele>
        <time>2016-04-29T17:48:47Z</time>
      </trkpt>
      <trkpt lat="59.241252850136" lon="17.965432452941">
        <ele>37.8</ele>
        <time>2016-04-29T17:48:48Z</time>
      </trkpt>
      <trkpt lat="59.241252933955" lon="17.965249392245">
        <ele>38.2</ele>
        <time>2016-04-29T17:48:49Z</time>
      </trkpt>
      <trkpt lat="59.24125419124" lon="17.965090219964">
        <ele>38.6</ele>
        <time>2016-04-29T17:48:50Z</time>
      </trkpt>
      <trkpt lat="59.241245474064" lon="17.964928952208">
        <ele>39.2</ele>
        <time>2016-04-29T17:48:51Z</time>
      </trkpt>
      <trkpt lat="59.241245641702" lon="17.964764750787">
        <ele>39.8</ele>
        <time>2016-04-29T17:48:52Z</time>
      </trkpt>
      <trkpt lat="59.241249916471" lon="17.964587557421">
        <ele>40.4</ele>
        <time>2016-04-29T17:48:53Z</time>
      </trkpt>
      <trkpt lat="59.241250670842" lon="17.964408939132">
        <ele>41</ele>
        <time>2016-04-29T17:48:54Z</time>
      </trkpt>
      <trkpt lat="59.241251425213" lon="17.964228225368">
        <ele>41.6</ele>
        <time>2016-04-29T17:48:55Z</time>
      </trkpt>
      <trkpt lat="59.241249245919" lon="17.963881298527">
        <ele>41.6</ele>
        <time>2016-04-29T17:48:57Z</time>
      </trkpt>
      <trkpt lat="59.2412491621" lon="17.963552225133">
        <ele>42</ele>
        <time>2016-04-29T17:48:59Z</time>
      </trkpt>
      <trkpt lat="59.241247318082" lon="17.963396405612">
        <ele>42.4</ele>
        <time>2016-04-29T17:49:00Z</time>
      </trkpt>
      <trkpt lat="59.241247653358" lon="17.963244190308">
        <ele>42.8</ele>
        <time>2016-04-29T17:49:01Z</time>
      </trkpt>
      <trkpt lat="59.241255616163" lon="17.963079066878">
        <ele>43.2</ele>
        <time>2016-04-29T17:49:02Z</time>
      </trkpt>
      <trkpt lat="59.241259639475" lon="17.962909752498">
        <ele>43.6</ele>
        <time>2016-04-29T17:49:03Z</time>
      </trkpt>
      <trkpt lat="59.241244635874" lon="17.962021187279">
        <ele>43.6</ele>
        <time>2016-04-29T17:49:08Z</time>
      </trkpt>
      <trkpt lat="59.241233655585" lon="17.961088365628">
        <ele>43.6</ele>
        <time>2016-04-29T17:49:13Z</time>
      </trkpt>
      <trkpt lat="59.241236756888" lon="17.959975249308">
        <ele>43.6</ele>
        <time>2016-04-29T17:49:19Z</time>
      </trkpt>
      <trkpt lat="59.241182023081" lon="17.959421792451">
        <ele>43.6</ele>
        <time>2016-04-29T17:49:22Z</time>
      </trkpt>
      <trkpt lat="59.241155368639" lon="17.959228422018">
        <ele>43.6</ele>
        <time>2016-04-29T17:49:23Z</time>
      </trkpt>
      <trkpt lat="59.241083954851" lon="17.958641018466">
        <ele>43.2</ele>
        <time>2016-04-29T17:49:26Z</time>
      </trkpt>
      <trkpt lat="59.241064089748" lon="17.958446390748">
        <ele>42.6</ele>
        <time>2016-04-29T17:49:27Z</time>
      </trkpt>
      <trkpt lat="59.241042715903" lon="17.95824924846">
        <ele>41.8</ele>
        <time>2016-04-29T17:49:28Z</time>
      </trkpt>
      <trkpt lat="59.241023102257" lon="17.958056045665">
        <ele>41.4</ele>
        <time>2016-04-29T17:49:29Z</time>
      </trkpt>
      <trkpt lat="59.241003488611" lon="17.957853287504">
        <ele>41.4</ele>
        <time>2016-04-29T17:49:30Z</time>
      </trkpt>
      <trkpt lat="59.240868707659" lon="17.956660291677">
        <ele>41.4</ele>
        <time>2016-04-29T17:49:36Z</time>
      </trkpt>
      <trkpt lat="59.240853787877" lon="17.956462897932">
        <ele>41.4</ele>
        <time>2016-04-29T17:49:37Z</time>
      </trkpt>
      <trkpt lat="59.240708781007" lon="17.955320444962">
        <ele>41.4</ele>
        <time>2016-04-29T17:49:43Z</time>
      </trkpt>
      <trkpt lat="59.24062471055" lon="17.954970919732">
        <ele>41.4</ele>
        <time>2016-04-29T17:49:45Z</time>
      </trkpt>
      <trkpt lat="59.240532090555" lon="17.954648300401">
        <ele>41.4</ele>
        <time>2016-04-29T17:49:47Z</time>
      </trkpt>
      <trkpt lat="59.240237885865" lon="17.953646160437">
        <ele>41.4</ele>
        <time>2016-04-29T17:49:53Z</time>
      </trkpt>
      <trkpt lat="59.240093884823" lon="17.953122207868">
        <ele>40.8</ele>
        <time>2016-04-29T17:49:56Z</time>
      </trkpt>
      <trkpt lat="59.240045018346" lon="17.952963035587">
        <ele>40.4</ele>
        <time>2016-04-29T17:49:57Z</time>
      </trkpt>
      <trkpt lat="59.239998666439" lon="17.952808892446">
        <ele>39.8</ele>
        <time>2016-04-29T17:49:58Z</time>
      </trkpt>
      <trkpt lat="59.239952817446" lon="17.952661454825">
        <ele>39.4</ele>
        <time>2016-04-29T17:49:59Z</time>
      </trkpt>
      <trkpt lat="59.239913841611" lon="17.952521560914">
        <ele>38.8</ele>
        <time>2016-04-29T17:50:00Z</time>
      </trkpt>
      <trkpt lat="59.239821975987" lon="17.952316455821">
        <ele>38.8</ele>
        <time>2016-04-29T17:50:02Z</time>
      </trkpt>
      <trkpt lat="59.239762883592" lon="17.952268427534">
        <ele>39.2</ele>
        <time>2016-04-29T17:50:03Z</time>
      </trkpt>
      <trkpt lat="59.239688368501" lon="17.952271696475">
        <ele>39.8</ele>
        <time>2016-04-29T17:50:04Z</time>
      </trkpt>
      <trkpt lat="59.239604214225" lon="17.952289801379">
        <ele>40.2</ele>
        <time>2016-04-29T17:50:05Z</time>
      </trkpt>
      <trkpt lat="59.239513773524" lon="17.952291645397">
        <ele>40.6</ele>
        <time>2016-04-29T17:50:06Z</time>
      </trkpt>
      <trkpt lat="59.239423332823" lon="17.952256106141">
        <ele>41.2</ele>
        <time>2016-04-29T17:50:07Z</time>
      </trkpt>
      <trkpt lat="59.239311350639" lon="17.952014036869">
        <ele>41.2</ele>
        <time>2016-04-29T17:50:09Z</time>
      </trkpt>
      <trkpt lat="59.239255527185" lon="17.951704409483">
        <ele>41.2</ele>
        <time>2016-04-29T17:50:11Z</time>
      </trkpt>
      <trkpt lat="59.239227280182" lon="17.951522103158">
        <ele>41.2</ele>
        <time>2016-04-29T17:50:12Z</time>
      </trkpt>
      <trkpt lat="59.239105826451" lon="17.950778041895">
        <ele>40.6</ele>
        <time>2016-04-29T17:50:16Z</time>
      </trkpt>
      <trkpt lat="59.239076238344" lon="17.95058903005">
        <ele>40.2</ele>
        <time>2016-04-29T17:50:17Z</time>
      </trkpt>
      <trkpt lat="59.239064587503" lon="17.950396749264">
        <ele>39.4</ele>
        <time>2016-04-29T17:50:18Z</time>
      </trkpt>
      <trkpt lat="59.239064168408" lon="17.950203965564">
        <ele>39</ele>
        <time>2016-04-29T17:50:19Z</time>
      </trkpt>
      <trkpt lat="59.239062156752" lon="17.950018474117">
        <ele>39</ele>
        <time>2016-04-29T17:50:20Z</time>
      </trkpt>
      <trkpt lat="59.239036927233" lon="17.949641288617">
        <ele>39</ele>
        <time>2016-04-29T17:50:22Z</time>
      </trkpt>
      <trkpt lat="59.238977415743" lon="17.949258319606">
        <ele>39</ele>
        <time>2016-04-29T17:50:24Z</time>
      </trkpt>
      <trkpt lat="59.238900134625" lon="17.94889001892">
        <ele>39</ele>
        <time>2016-04-29T17:50:26Z</time>
      </trkpt>
      <trkpt lat="59.238814974521" lon="17.948495063792">
        <ele>39</ele>
        <time>2016-04-29T17:50:28Z</time>
      </trkpt>
      <trkpt lat="59.238795444694" lon="17.948279732781">
        <ele>39</ele>
        <time>2016-04-29T17:50:29Z</time>
      </trkpt>
      <trkpt lat="59.238777088333" lon="17.948060797553">
        <ele>38.6</ele>
        <time>2016-04-29T17:50:30Z</time>
      </trkpt>
      <trkpt lat="59.238752613185" lon="17.947864325817">
        <ele>38.2</ele>
        <time>2016-04-29T17:50:31Z</time>
      </trkpt>
      <trkpt lat="59.238712128608" lon="17.94767045247">
        <ele>37.6</ele>
        <time>2016-04-29T17:50:32Z</time>
      </trkpt>
      <trkpt lat="59.238663932683" lon="17.947465431196">
        <ele>37.2</ele>
        <time>2016-04-29T17:50:33Z</time>
      </trkpt>
      <trkpt lat="59.238605594659" lon="17.947300140128">
        <ele>36.8</ele>
        <time>2016-04-29T17:50:34Z</time>
      </trkpt>
      <trkpt lat="59.238355897858" lon="17.946716173155">
        <ele>36.8</ele>
        <time>2016-04-29T17:50:38Z</time>
      </trkpt>
      <trkpt lat="59.238149703118" lon="17.94629665906">
        <ele>36.8</ele>
        <time>2016-04-29T17:50:42Z</time>
      </trkpt>
      <trkpt lat="59.238108631808" lon="17.946226083462">
        <ele>37.2</ele>
        <time>2016-04-29T17:50:43Z</time>
      </trkpt>
      <trkpt lat="59.238070829439" lon="17.946166823429">
        <ele>37.6</ele>
        <time>2016-04-29T17:50:44Z</time>
      </trkpt>
      <trkpt lat="59.238036798925" lon="17.946109239776">
        <ele>38</ele>
        <time>2016-04-29T17:50:45Z</time>
      </trkpt>
      <trkpt lat="59.238000086203" lon="17.946060876213">
        <ele>38.4</ele>
        <time>2016-04-29T17:50:46Z</time>
      </trkpt>
      <trkpt lat="59.237951974097" lon="17.946030617554">
        <ele>38.8</ele>
        <time>2016-04-29T17:50:47Z</time>
      </trkpt>
      <trkpt lat="59.237857426265" lon="17.946127093223">
        <ele>38.8</ele>
        <time>2016-04-29T17:50:49Z</time>
      </trkpt>
      <trkpt lat="59.237759693311" lon="17.946306465883">
        <ele>38.8</ele>
        <time>2016-04-29T17:50:51Z</time>
      </trkpt>
      <trkpt lat="59.237682998926" lon="17.946508134397">
        <ele>38.8</ele>
        <time>2016-04-29T17:50:53Z</time>
      </trkpt>
      <trkpt lat="59.237611668957" lon="17.946713574766">
        <ele>38.4</ele>
        <time>2016-04-29T17:50:55Z</time>
      </trkpt>
      <trkpt lat="59.237570513828" lon="17.946813319376">
        <ele>38</ele>
        <time>2016-04-29T17:50:56Z</time>
      </trkpt>
      <trkpt lat="59.237533046735" lon="17.946924211913">
        <ele>37.4</ele>
        <time>2016-04-29T17:50:57Z</time>
      </trkpt>
      <trkpt lat="59.237487197742" lon="17.947019933211">
        <ele>37</ele>
        <time>2016-04-29T17:50:58Z</time>
      </trkpt>
      <trkpt lat="59.2374437795" lon="17.947116744156">
        <ele>36.6</ele>
        <time>2016-04-29T17:50:59Z</time>
      </trkpt>
      <trkpt lat="59.237235740742" lon="17.94754472397">
        <ele>36.6</ele>
        <time>2016-04-29T17:51:04Z</time>
      </trkpt>
      <trkpt lat="59.23718645517" lon="17.947572468059">
        <ele>36.6</ele>
        <time>2016-04-29T17:51:05Z</time>
      </trkpt>
      <trkpt lat="59.237074389167" lon="17.947479596607">
        <ele>37</ele>
        <time>2016-04-29T17:51:07Z</time>
      </trkpt>
      <trkpt lat="59.237018146618" lon="17.947418911651">
        <ele>37.6</ele>
        <time>2016-04-29T17:51:08Z</time>
      </trkpt>
      <trkpt lat="59.236965424467" lon="17.947345737664">
        <ele>38</ele>
        <time>2016-04-29T17:51:09Z</time>
      </trkpt>
      <trkpt lat="59.236911277393" lon="17.947270803478">
        <ele>38.4</ele>
        <time>2016-04-29T17:51:10Z</time>
      </trkpt>
      <trkpt lat="59.236858052328" lon="17.947190504876">
        <ele>39</ele>
        <time>2016-04-29T17:51:11Z</time>
      </trkpt>
      <trkpt lat="59.236741543918" lon="17.947059579598">
        <ele>38.6</ele>
        <time>2016-04-29T17:51:13Z</time>
      </trkpt>
      <trkpt lat="59.236684295541" lon="17.947009791112">
        <ele>38</ele>
        <time>2016-04-29T17:51:14Z</time>
      </trkpt>
      <trkpt lat="59.236623107671" lon="17.9469722402">
        <ele>37.6</ele>
        <time>2016-04-29T17:51:15Z</time>
      </trkpt>
      <trkpt lat="59.236564853466" lon="17.946939215514">
        <ele>37.2</ele>
        <time>2016-04-29T17:51:16Z</time>
      </trkpt>
      <trkpt lat="59.236501737759" lon="17.946911722882">
        <ele>36.8</ele>
        <time>2016-04-29T17:51:17Z</time>
      </trkpt>
      <trkpt lat="59.23632311947" lon="17.946897808928">
        <ele>36.8</ele>
        <time>2016-04-29T17:51:20Z</time>
      </trkpt>
      <trkpt lat="59.236258159745" lon="17.946906777561">
        <ele>36.8</ele>
        <time>2016-04-29T17:51:21Z</time>
      </trkpt>
      <trkpt lat="59.236131257779" lon="17.946959834988">
        <ele>36.8</ele>
        <time>2016-04-29T17:51:23Z</time>
      </trkpt>
      <trkpt lat="59.236008965858" lon="17.947036026459">
        <ele>36.8</ele>
        <time>2016-04-29T17:51:25Z</time>
      </trkpt>
      <trkpt lat="59.235953393861" lon="17.947090341171">
        <ele>36.8</ele>
        <time>2016-04-29T17:51:26Z</time>
      </trkpt>
      <trkpt lat="59.235739068678" lon="17.947393933589">
        <ele>36.8</ele>
        <time>2016-04-29T17:51:30Z</time>
      </trkpt>
      <trkpt lat="59.23568022774" lon="17.947478758417">
        <ele>36.8</ele>
        <time>2016-04-29T17:51:31Z</time>
      </trkpt>
      <trkpt lat="59.235619710422" lon="17.947541455029">
        <ele>36.8</ele>
        <time>2016-04-29T17:51:32Z</time>
      </trkpt>
      <trkpt lat="59.235485348565" lon="17.947675649248">
        <ele>36.4</ele>
        <time>2016-04-29T17:51:34Z</time>
      </trkpt>
      <trkpt lat="59.235419383012" lon="17.94771906749">
        <ele>35.8</ele>
        <time>2016-04-29T17:51:35Z</time>
      </trkpt>
      <trkpt lat="59.235338749134" lon="17.947748739416">
        <ele>35.4</ele>
        <time>2016-04-29T17:51:36Z</time>
      </trkpt>
      <trkpt lat="59.235257947618" lon="17.947748739416">
        <ele>34.8</ele>
        <time>2016-04-29T17:51:37Z</time>
      </trkpt>
      <trkpt lat="59.23517647555" lon="17.947761563723">
        <ele>34</ele>
        <time>2016-04-29T17:51:38Z</time>
      </trkpt>
      <trkpt lat="59.235094752025" lon="17.947775142401">
        <ele>33.4</ele>
        <time>2016-04-29T17:51:39Z</time>
      </trkpt>
      <trkpt lat="59.235013279957" lon="17.947791403287">
        <ele>32.8</ele>
        <time>2016-04-29T17:51:40Z</time>
      </trkpt>
      <trkpt lat="59.234933987183" lon="17.947806155431">
        <ele>32</ele>
        <time>2016-04-29T17:51:41Z</time>
      </trkpt>
      <trkpt lat="59.234560824995" lon="17.947883688006">
        <ele>32</ele>
        <time>2016-04-29T17:51:46Z</time>
      </trkpt>
      <trkpt lat="59.234412130089" lon="17.947905061851">
        <ele>31.6</ele>
        <time>2016-04-29T17:51:48Z</time>
      </trkpt>
      <trkpt lat="59.234335603342" lon="17.947917467063">
        <ele>31.2</ele>
        <time>2016-04-29T17:51:49Z</time>
      </trkpt>
      <trkpt lat="59.234261926441" lon="17.947923082936">
        <ele>30.8</ele>
        <time>2016-04-29T17:51:50Z</time>
      </trkpt>
      <trkpt lat="59.234177855984" lon="17.947918891986">
        <ele>30.4</ele>
        <time>2016-04-29T17:51:51Z</time>
      </trkpt>
      <trkpt lat="59.234100491047" lon="17.947918724348">
        <ele>30</ele>
        <time>2016-04-29T17:51:52Z</time>
      </trkpt>
      <trkpt lat="59.233631104647" lon="17.947925765144">
        <ele>30</ele>
        <time>2016-04-29T17:51:58Z</time>
      </trkpt>
      <trkpt lat="59.233173369088" lon="17.947998352398">
        <ele>30</ele>
        <time>2016-04-29T17:52:04Z</time>
      </trkpt>
      <trkpt lat="59.232748825853" lon="17.948161799448">
        <ele>30</ele>
        <time>2016-04-29T17:52:10Z</time>
      </trkpt>
      <trkpt lat="59.232350517965" lon="17.948473689947">
        <ele>30</ele>
        <time>2016-04-29T17:52:16Z</time>
      </trkpt>
      <trkpt lat="59.232225124741" lon="17.948573099281">
        <ele>29.6</ele>
        <time>2016-04-29T17:52:18Z</time>
      </trkpt>
      <trkpt lat="59.232162679586" lon="17.948611069288">
        <ele>29.2</ele>
        <time>2016-04-29T17:52:19Z</time>
      </trkpt>
      <trkpt lat="59.232096211119" lon="17.948661109231">
        <ele>28.8</ele>
        <time>2016-04-29T17:52:20Z</time>
      </trkpt>
      <trkpt lat="59.232030413204" lon="17.948696145573">
        <ele>28</ele>
        <time>2016-04-29T17:52:21Z</time>
      </trkpt>
      <trkpt lat="59.231967548954" lon="17.948737635978">
        <ele>28</ele>
        <time>2016-04-29T17:52:22Z</time>
      </trkpt>
      <trkpt lat="59.231581981554" lon="17.948979537612">
        <ele>28</ele>
        <time>2016-04-29T17:52:29Z</time>
      </trkpt>
      <trkpt lat="59.231206472434" lon="17.949182966325">
        <ele>28</ele>
        <time>2016-04-29T17:52:35Z</time>
      </trkpt>
      <trkpt lat="59.231075882432" lon="17.949202412333">
        <ele>28</ele>
        <time>2016-04-29T17:52:37Z</time>
      </trkpt>
      <trkpt lat="59.230943364593" lon="17.949101745714">
        <ele>28</ele>
        <time>2016-04-29T17:52:39Z</time>
      </trkpt>
      <trkpt lat="59.230854181177" lon="17.948868561256">
        <ele>28</ele>
        <time>2016-04-29T17:52:41Z</time>
      </trkpt>
      <trkpt lat="59.230793915316" lon="17.948602435931">
        <ele>28</ele>
        <time>2016-04-29T17:52:43Z</time>
      </trkpt>
      <trkpt lat="59.230732978903" lon="17.948362210677">
        <ele>28</ele>
        <time>2016-04-29T17:52:45Z</time>
      </trkpt>
      <trkpt lat="59.230655613966" lon="17.94785820703">
        <ele>28</ele>
        <time>2016-04-29T17:52:49Z</time>
      </trkpt>
      <trkpt lat="59.230643795487" lon="17.94773247853">
        <ele>28</ele>
        <time>2016-04-29T17:52:50Z</time>
      </trkpt>
      <trkpt lat="59.230611860448" lon="17.947336433755">
        <ele>28.4</ele>
        <time>2016-04-29T17:52:53Z</time>
      </trkpt>
      <trkpt lat="59.23060666367" lon="17.947202910088">
        <ele>28.8</ele>
        <time>2016-04-29T17:52:54Z</time>
      </trkpt>
      <trkpt lat="59.230603562367" lon="17.947068212955">
        <ele>29.2</ele>
        <time>2016-04-29T17:52:55Z</time>
      </trkpt>
      <trkpt lat="59.230604484376" lon="17.946932174718">
        <ele>29.6</ele>
        <time>2016-04-29T17:52:56Z</time>
      </trkpt>
      <trkpt lat="59.230608088593" lon="17.946794376282">
        <ele>30</ele>
        <time>2016-04-29T17:52:57Z</time>
      </trkpt>
      <trkpt lat="59.230643627849" lon="17.945763989315">
        <ele>30</ele>
        <time>2016-04-29T17:53:04Z</time>
      </trkpt>
      <trkpt lat="59.230655781604" lon="17.945297704218">
        <ele>30.4</ele>
        <time>2016-04-29T17:53:07Z</time>
      </trkpt>
      <trkpt lat="59.230660224011" lon="17.945145153638">
        <ele>30.8</ele>
        <time>2016-04-29T17:53:08Z</time>
      </trkpt>
      <trkpt lat="59.230667097169" lon="17.94499494999">
        <ele>31.2</ele>
        <time>2016-04-29T17:53:09Z</time>
      </trkpt>
      <trkpt lat="59.230673886508" lon="17.944844494885">
        <ele>31.6</ele>
        <time>2016-04-29T17:53:10Z</time>
      </trkpt>
      <trkpt lat="59.230679502381" lon="17.944693872142">
        <ele>32</ele>
        <time>2016-04-29T17:53:11Z</time>
      </trkpt>
      <trkpt lat="59.230682603684" lon="17.944541908295">
        <ele>32</ele>
        <time>2016-04-29T17:53:12Z</time>
      </trkpt>
      <trkpt lat="59.23071143742" lon="17.94349123713">
        <ele>32</ele>
        <time>2016-04-29T17:53:19Z</time>
      </trkpt>
      <trkpt lat="59.23071562837" lon="17.943344470061">
        <ele>32</ele>
        <time>2016-04-29T17:53:20Z</time>
      </trkpt>
      <trkpt lat="59.230729458505" lon="17.942898552981">
        <ele>32.6</ele>
        <time>2016-04-29T17:53:23Z</time>
      </trkpt>
      <trkpt lat="59.230732727446" lon="17.942758239975">
        <ele>33</ele>
        <time>2016-04-29T17:53:24Z</time>
      </trkpt>
      <trkpt lat="59.230733062722" lon="17.942619016616">
        <ele>33.4</ele>
        <time>2016-04-29T17:53:25Z</time>
      </trkpt>
      <trkpt lat="59.230738091862" lon="17.942479122705">
        <ele>33.8</ele>
        <time>2016-04-29T17:53:26Z</time>
      </trkpt>
      <trkpt lat="59.230742953364" lon="17.942344006477">
        <ele>34.2</ele>
        <time>2016-04-29T17:53:27Z</time>
      </trkpt>
      <trkpt lat="59.230748988332" lon="17.942193886648">
        <ele>34.2</ele>
        <time>2016-04-29T17:53:28Z</time>
      </trkpt>
      <trkpt lat="59.230794837325" lon="17.941275230408">
        <ele>34.2</ele>
        <time>2016-04-29T17:53:34Z</time>
      </trkpt>
      <trkpt lat="59.2308304604" lon="17.940150882342">
        <ele>34.2</ele>
        <time>2016-04-29T17:53:41Z</time>
      </trkpt>
      <trkpt lat="59.230894330478" lon="17.939088308879">
        <ele>34.2</ele>
        <time>2016-04-29T17:53:48Z</time>
      </trkpt>
      <trkpt lat="59.230898018514" lon="17.938944140199">
        <ele>34.2</ele>
        <time>2016-04-29T17:53:49Z</time>
      </trkpt>
      <trkpt lat="59.230916542513" lon="17.938221368962">
        <ele>34.2</ele>
        <time>2016-04-29T17:53:55Z</time>
      </trkpt>
      <trkpt lat="59.230913944124" lon="17.938145848043">
        <ele>34.2</ele>
        <time>2016-04-29T17:53:58Z</time>
      </trkpt>
      <trkpt lat="59.230913944124" lon="17.938145848043">
        <ele>34.2</ele>
        <time>2016-04-29T17:53:59Z</time>
      </trkpt>
      <trkpt lat="59.230915285228" lon="17.938110476425">
        <ele>34.2</ele>
        <time>2016-04-29T17:54:55Z</time>
      </trkpt>
      <trkpt lat="59.230908244432" lon="17.937989022694">
        <ele>34.2</ele>
        <time>2016-04-29T17:54:57Z</time>
      </trkpt>
      <trkpt lat="59.230805817614" lon="17.937805039989">
        <ele>34.2</ele>
        <time>2016-04-29T17:55:00Z</time>
      </trkpt>
      <trkpt lat="59.230627702239" lon="17.937788024732">
        <ele>33.4</ele>
        <time>2016-04-29T17:55:01Z</time>
      </trkpt>
      <trkpt lat="59.230627702239" lon="17.937788024732">
        <ele>33.4</ele>
        <time>2016-04-29T17:55:03Z</time>
      </trkpt>
      <trkpt lat="59.230559054478" lon="17.937764471593">
        <ele>32.8</ele>
        <time>2016-04-29T17:55:04Z</time>
      </trkpt>
      <trkpt lat="59.230480767532" lon="17.937737230418">
        <ele>32.4</ele>
        <time>2016-04-29T17:55:05Z</time>
      </trkpt>
      <trkpt lat="59.230405246613" lon="17.937705798293">
        <ele>32</ele>
        <time>2016-04-29T17:55:06Z</time>
      </trkpt>
      <trkpt lat="59.230164434626" lon="17.937620219094">
        <ele>32</ele>
        <time>2016-04-29T17:55:09Z</time>
      </trkpt>
      <trkpt lat="59.230087907879" lon="17.937587529684">
        <ele>31.4</ele>
        <time>2016-04-29T17:55:10Z</time>
      </trkpt>
      <trkpt lat="59.230006938725" lon="17.937548637668">
        <ele>31</ele>
        <time>2016-04-29T17:55:11Z</time>
      </trkpt>
      <trkpt lat="59.229929154693" lon="17.937516283534">
        <ele>30.4</ele>
        <time>2016-04-29T17:55:12Z</time>
      </trkpt>
      <trkpt lat="59.229849945738" lon="17.937489964368">
        <ele>29.8</ele>
        <time>2016-04-29T17:55:13Z</time>
      </trkpt>
      <trkpt lat="59.229773838086" lon="17.937459370433">
        <ele>29.4</ele>
        <time>2016-04-29T17:55:14Z</time>
      </trkpt>
      <trkpt lat="59.229700161185" lon="17.937430201421">
        <ele>29.4</ele>
        <time>2016-04-29T17:55:15Z</time>
      </trkpt>
      <trkpt lat="59.229488769667" lon="17.937356943615">
        <ele>29.8</ele>
        <time>2016-04-29T17:55:18Z</time>
      </trkpt>
      <trkpt lat="59.229418026431" lon="17.937335150675">
        <ele>30.2</ele>
        <time>2016-04-29T17:55:19Z</time>
      </trkpt>
      <trkpt lat="59.229347953747" lon="17.937309502061">
        <ele>30.6</ele>
        <time>2016-04-29T17:55:20Z</time>
      </trkpt>
      <trkpt lat="59.229274025389" lon="17.937281338877">
        <ele>31.2</ele>
        <time>2016-04-29T17:55:21Z</time>
      </trkpt>
      <trkpt lat="59.229207556922" lon="17.937258791566">
        <ele>31.6</ele>
        <time>2016-04-29T17:55:22Z</time>
      </trkpt>
      <trkpt lat="59.228771362846" lon="17.937091237385">
        <ele>31.6</ele>
        <time>2016-04-29T17:55:29Z</time>
      </trkpt>
      <trkpt lat="59.228712689546" lon="17.937077155793">
        <ele>32</ele>
        <time>2016-04-29T17:55:30Z</time>
      </trkpt>
      <trkpt lat="59.228655692626" lon="17.937054189387">
        <ele>32.4</ele>
        <time>2016-04-29T17:55:31Z</time>
      </trkpt>
      <trkpt lat="59.228595762041" lon="17.937032564085">
        <ele>32.8</ele>
        <time>2016-04-29T17:55:32Z</time>
      </trkpt>
      <trkpt lat="59.228533735981" lon="17.937010184412">
        <ele>33.2</ele>
        <time>2016-04-29T17:55:33Z</time>
      </trkpt>
      <trkpt lat="59.228475314138" lon="17.936986212178">
        <ele>33.6</ele>
        <time>2016-04-29T17:55:34Z</time>
      </trkpt>
      <trkpt lat="59.228420245055" lon="17.936959054822">
        <ele>33.6</ele>
        <time>2016-04-29T17:55:35Z</time>
      </trkpt>
      <trkpt lat="59.22836450542" lon="17.936930556362">
        <ele>34.2</ele>
        <time>2016-04-29T17:55:36Z</time>
      </trkpt>
      <trkpt lat="59.228310106889" lon="17.936898118409">
        <ele>34.6</ele>
        <time>2016-04-29T17:55:37Z</time>
      </trkpt>
      <trkpt lat="59.228254534892" lon="17.936874313813">
        <ele>35.2</ele>
        <time>2016-04-29T17:55:38Z</time>
      </trkpt>
      <trkpt lat="59.228203992035" lon="17.936840702394">
        <ele>35.6</ele>
        <time>2016-04-29T17:55:39Z</time>
      </trkpt>
      <trkpt lat="59.22815160516" lon="17.936809102631">
        <ele>36</ele>
        <time>2016-04-29T17:55:40Z</time>
      </trkpt>
      <trkpt lat="59.228049765075" lon="17.936754368824">
        <ele>36.6</ele>
        <time>2016-04-29T17:55:42Z</time>
      </trkpt>
      <trkpt lat="59.228000479503" lon="17.936717656102">
        <ele>37</ele>
        <time>2016-04-29T17:55:43Z</time>
      </trkpt>
      <trkpt lat="59.227955971614" lon="17.936679099362">
        <ele>37.4</ele>
        <time>2016-04-29T17:55:44Z</time>
      </trkpt>
      <trkpt lat="59.22791020644" lon="17.936644733572">
        <ele>37.8</ele>
        <time>2016-04-29T17:55:45Z</time>
      </trkpt>
      <trkpt lat="59.227868129302" lon="17.936607601755">
        <ele>38.2</ele>
        <time>2016-04-29T17:55:46Z</time>
      </trkpt>
      <trkpt lat="59.227825800707" lon="17.936567452454">
        <ele>38.8</ele>
        <time>2016-04-29T17:55:47Z</time>
      </trkpt>
      <trkpt lat="59.227789423261" lon="17.936516825778">
        <ele>39.2</ele>
        <time>2016-04-29T17:55:48Z</time>
      </trkpt>
      <trkpt lat="59.227750698883" lon="17.936459828858">
        <ele>39.8</ele>
        <time>2016-04-29T17:55:49Z</time>
      </trkpt>
      <trkpt lat="59.227719434396" lon="17.936388582708">
        <ele>40.2</ele>
        <time>2016-04-29T17:55:50Z</time>
      </trkpt>
      <trkpt lat="59.227729408857" lon="17.936177358828">
        <ele>40.2</ele>
        <time>2016-04-29T17:55:52Z</time>
      </trkpt>
      <trkpt lat="59.227751034159" lon="17.935987844069">
        <ele>40.2</ele>
        <time>2016-04-29T17:55:54Z</time>
      </trkpt>
      <trkpt lat="59.227775928402" lon="17.935809980151">
        <ele>40.2</ele>
        <time>2016-04-29T17:55:56Z</time>
      </trkpt>
      <trkpt lat="59.227784561759" lon="17.935660614693">
        <ele>40.8</ele>
        <time>2016-04-29T17:55:58Z</time>
      </trkpt>
      <trkpt lat="59.227790680546" lon="17.935597247529">
        <ele>41.2</ele>
        <time>2016-04-29T17:55:59Z</time>
      </trkpt>
      <trkpt lat="59.227802163749" lon="17.935526336655">
        <ele>41.6</ele>
        <time>2016-04-29T17:56:00Z</time>
      </trkpt>
      <trkpt lat="59.22780627088" lon="17.935456934523">
        <ele>42</ele>
        <time>2016-04-29T17:56:01Z</time>
      </trkpt>
      <trkpt lat="59.227809204545" lon="17.935378563758">
        <ele>42.4</ele>
        <time>2016-04-29T17:56:02Z</time>
      </trkpt>
      <trkpt lat="59.227808953088" lon="17.935297762242">
        <ele>42.8</ele>
        <time>2016-04-29T17:56:03Z</time>
      </trkpt>
      <trkpt lat="59.227815574789" lon="17.935214613794">
        <ele>43.2</ele>
        <time>2016-04-29T17:56:04Z</time>
      </trkpt>
      <trkpt lat="59.2278213583" lon="17.935125849473">
        <ele>44</ele>
        <time>2016-04-29T17:56:05Z</time>
      </trkpt>
      <trkpt lat="59.22782806382" lon="17.935033816211">
        <ele>44.4</ele>
        <time>2016-04-29T17:56:06Z</time>
      </trkpt>
      <trkpt lat="59.227834853159" lon="17.934943124053">
        <ele>45</ele>
        <time>2016-04-29T17:56:07Z</time>
      </trkpt>
      <trkpt lat="59.227828985829" lon="17.934857712492">
        <ele>45.4</ele>
        <time>2016-04-29T17:56:08Z</time>
      </trkpt>
      <trkpt lat="59.22782638744" lon="17.934771462741">
        <ele>45.8</ele>
        <time>2016-04-29T17:56:09Z</time>
      </trkpt>
      <trkpt lat="59.227836780996" lon="17.934666186077">
        <ele>46.4</ele>
        <time>2016-04-29T17:56:10Z</time>
      </trkpt>
      <trkpt lat="59.227852790425" lon="17.934576583566">
        <ele>46.8</ele>
        <time>2016-04-29T17:56:11Z</time>
      </trkpt>
      <trkpt lat="59.227863770714" lon="17.934277685012">
        <ele>46.8</ele>
        <time>2016-04-29T17:56:14Z</time>
      </trkpt>
      <trkpt lat="59.227869805682" lon="17.934173833271">
        <ele>46.8</ele>
        <time>2016-04-29T17:56:15Z</time>
      </trkpt>
      <trkpt lat="59.227894197011" lon="17.933976020431">
        <ele>47.2</ele>
        <time>2016-04-29T17:56:17Z</time>
      </trkpt>
      <trkpt lat="59.227909452069" lon="17.933880718228">
        <ele>47.6</ele>
        <time>2016-04-29T17:56:18Z</time>
      </trkpt>
      <trkpt lat="59.227919677987" lon="17.933772088804">
        <ele>48</ele>
        <time>2016-04-29T17:56:19Z</time>
      </trkpt>
      <trkpt lat="59.227931747923" lon="17.933661112448">
        <ele>48.4</ele>
        <time>2016-04-29T17:56:20Z</time>
      </trkpt>
      <trkpt lat="59.227945158963" lon="17.9335528183">
        <ele>48.8</ele>
        <time>2016-04-29T17:56:21Z</time>
      </trkpt>
      <trkpt lat="59.228038365691" lon="17.932671629153">
        <ele>48.8</ele>
        <time>2016-04-29T17:56:29Z</time>
      </trkpt>
      <trkpt lat="59.228109192746" lon="17.931618527237">
        <ele>48.8</ele>
        <time>2016-04-29T17:56:38Z</time>
      </trkpt>
      <trkpt lat="59.228157807766" lon="17.93064346081">
        <ele>48.8</ele>
        <time>2016-04-29T17:56:46Z</time>
      </trkpt>
      <trkpt lat="59.228212625392" lon="17.930002161641">
        <ele>48.8</ele>
        <time>2016-04-29T17:56:52Z</time>
      </trkpt>
      <trkpt lat="59.228246488268" lon="17.929674261713">
        <ele>49.2</ele>
        <time>2016-04-29T17:56:55Z</time>
      </trkpt>
      <trkpt lat="59.228254367254" lon="17.929561106063">
        <ele>50.2</ele>
        <time>2016-04-29T17:56:56Z</time>
      </trkpt>
      <trkpt lat="59.228265766638" lon="17.929431102794">
        <ele>50.6</ele>
        <time>2016-04-29T17:56:57Z</time>
      </trkpt>
      <trkpt lat="59.228275489642" lon="17.92931409147">
        <ele>51</ele>
        <time>2016-04-29T17:56:58Z</time>
      </trkpt>
      <trkpt lat="59.228300132428" lon="17.929083756858">
        <ele>51</ele>
        <time>2016-04-29T17:57:00Z</time>
      </trkpt>
      <trkpt lat="59.228347993077" lon="17.928623255272">
        <ele>51</ele>
        <time>2016-04-29T17:57:04Z</time>
      </trkpt>
      <trkpt lat="59.228378000279" lon="17.928251853283">
        <ele>51</ele>
        <time>2016-04-29T17:57:07Z</time>
      </trkpt>
      <trkpt lat="59.228429968059" lon="17.927546181122">
        <ele>51</ele>
        <time>2016-04-29T17:57:13Z</time>
      </trkpt>
      <trkpt lat="59.228476487604" lon="17.926818716021">
        <ele>51</ele>
        <time>2016-04-29T17:57:19Z</time>
      </trkpt>
      <trkpt lat="59.228478666898" lon="17.926684354164">
        <ele>51</ele>
        <time>2016-04-29T17:57:20Z</time>
      </trkpt>
      <trkpt lat="59.228452850646" lon="17.926302558619">
        <ele>51</ele>
        <time>2016-04-29T17:57:23Z</time>
      </trkpt>
      <trkpt lat="59.228418065761" lon="17.926056801311">
        <ele>51</ele>
        <time>2016-04-29T17:57:25Z</time>
      </trkpt>
      <trkpt lat="59.228297282582" lon="17.925183155874">
        <ele>51</ele>
        <time>2016-04-29T17:57:32Z</time>
      </trkpt>
      <trkpt lat="59.228269370855" lon="17.92492281406">
        <ele>51</ele>
        <time>2016-04-29T17:57:34Z</time>
      </trkpt>
      <trkpt lat="59.228197873248" lon="17.924538420126">
        <ele>51</ele>
        <time>2016-04-29T17:57:37Z</time>
      </trkpt>
      <trkpt lat="59.228056805871" lon="17.923762842919">
        <ele>51</ele>
        <time>2016-04-29T17:57:43Z</time>
      </trkpt>
      <trkpt lat="59.228022020986" lon="17.923651112192">
        <ele>51</ele>
        <time>2016-04-29T17:57:44Z</time>
      </trkpt>
      <trkpt lat="59.227911715182" lon="17.923466375116">
        <ele>51.4</ele>
        <time>2016-04-29T17:57:46Z</time>
      </trkpt>
      <trkpt lat="59.227836697177" lon="17.923389177817">
        <ele>51.8</ele>
        <time>2016-04-29T17:57:47Z</time>
      </trkpt>
      <trkpt lat="59.227765786303" lon="17.923327822309">
        <ele>52.2</ele>
        <time>2016-04-29T17:57:48Z</time>
      </trkpt>
      <trkpt lat="59.227683978959" lon="17.923266885896">
        <ele>52.6</ele>
        <time>2016-04-29T17:57:49Z</time>
      </trkpt>
      <trkpt lat="59.227597729208" lon="17.923198405773">
        <ele>53</ele>
        <time>2016-04-29T17:57:50Z</time>
      </trkpt>
      <trkpt lat="59.227513658751" lon="17.923126405252">
        <ele>53</ele>
        <time>2016-04-29T17:57:51Z</time>
      </trkpt>
      <trkpt lat="59.227436293814" lon="17.923047447754">
        <ele>53</ele>
        <time>2016-04-29T17:57:52Z</time>
      </trkpt>
      <trkpt lat="59.227238900069" lon="17.922788363225">
        <ele>53</ele>
        <time>2016-04-29T17:57:55Z</time>
      </trkpt>
      <trkpt lat="59.22706614911" lon="17.922515783837">
        <ele>53.4</ele>
        <time>2016-04-29T17:57:58Z</time>
      </trkpt>
      <trkpt lat="59.227015354796" lon="17.92242500786">
        <ele>53.8</ele>
        <time>2016-04-29T17:57:59Z</time>
      </trkpt>
      <trkpt lat="59.226964141387" lon="17.922330543847">
        <ele>54.4</ele>
        <time>2016-04-29T17:58:00Z</time>
      </trkpt>
      <trkpt lat="59.226914520539" lon="17.922231469789">
        <ele>54.8</ele>
        <time>2016-04-29T17:58:01Z</time>
      </trkpt>
      <trkpt lat="59.226865151148" lon="17.92213583231">
        <ele>55.2</ele>
        <time>2016-04-29T17:58:02Z</time>
      </trkpt>
      <trkpt lat="59.22662777574" lon="17.921646916083">
        <ele>55.2</ele>
        <time>2016-04-29T17:58:07Z</time>
      </trkpt>
      <trkpt lat="59.226538843781" lon="17.921432842357">
        <ele>55.6</ele>
        <time>2016-04-29T17:58:09Z</time>
      </trkpt>
      <trkpt lat="59.22650372362" lon="17.921315998671">
        <ele>56.6</ele>
        <time>2016-04-29T17:58:10Z</time>
      </trkpt>
      <trkpt lat="59.226464496328" lon="17.921197646243">
        <ele>57</ele>
        <time>2016-04-29T17:58:11Z</time>
      </trkpt>
      <trkpt lat="59.226427615968" lon="17.921081976023">
        <ele>57.4</ele>
        <time>2016-04-29T17:58:12Z</time>
      </trkpt>
      <trkpt lat="59.226213626061" lon="17.920263148212">
        <ele>57.4</ele>
        <time>2016-04-29T17:58:19Z</time>
      </trkpt>
      <trkpt lat="59.226028637528" lon="17.919552698368">
        <ele>57.4</ele>
        <time>2016-04-29T17:58:25Z</time>
      </trkpt>
      <trkpt lat="59.225912967308" lon="17.919206525898">
        <ele>57.8</ele>
        <time>2016-04-29T17:58:28Z</time>
      </trkpt>
      <trkpt lat="59.225868710876" lon="17.91910409908">
        <ele>58.2</ele>
        <time>2016-04-29T17:58:29Z</time>
      </trkpt>
      <trkpt lat="59.225822945702" lon="17.919004186832">
        <ele>58.6</ele>
        <time>2016-04-29T17:58:30Z</time>
      </trkpt>
      <trkpt lat="59.225770977922" lon="17.918910393371">
        <ele>59</ele>
        <time>2016-04-29T17:58:31Z</time>
      </trkpt>
      <trkpt lat="59.225712975174" lon="17.918824059801">
        <ele>59.6</ele>
        <time>2016-04-29T17:58:32Z</time>
      </trkpt>
      <trkpt lat="59.225582385172" lon="17.918691961057">
        <ele>59.6</ele>
        <time>2016-04-29T17:58:34Z</time>
      </trkpt>
      <trkpt lat="59.225469648617" lon="17.918575033552">
        <ele>59.6</ele>
        <time>2016-04-29T17:58:36Z</time>
      </trkpt>
      <trkpt lat="59.225413322249" lon="17.918526837627">
        <ele>59.6</ele>
        <time>2016-04-29T17:58:37Z</time>
      </trkpt>
      <trkpt lat="59.225106377071" lon="17.918381663119">
        <ele>59.6</ele>
        <time>2016-04-29T17:58:41Z</time>
      </trkpt>
      <trkpt lat="59.224644366743" lon="17.918190639618">
        <ele>59.6</ele>
        <time>2016-04-29T17:58:47Z</time>
      </trkpt>
      <trkpt lat="59.224207166839" lon="17.917996095719">
        <ele>59.6</ele>
        <time>2016-04-29T17:58:53Z</time>
      </trkpt>
      <trkpt lat="59.223855629953" lon="17.917860811853">
        <ele>59</ele>
        <time>2016-04-29T17:58:58Z</time>
      </trkpt>
      <trkpt lat="59.22377206241" lon="17.917855447437">
        <ele>58.2</ele>
        <time>2016-04-29T17:58:59Z</time>
      </trkpt>
      <trkpt lat="59.223676257293" lon="17.917858800197">
        <ele>57.4</ele>
        <time>2016-04-29T17:59:00Z</time>
      </trkpt>
      <trkpt lat="59.223572405552" lon="17.917858632559">
        <ele>56.6</ele>
        <time>2016-04-29T17:59:01Z</time>
      </trkpt>
      <trkpt lat="59.223472660942" lon="17.917852849048">
        <ele>55.8</ele>
        <time>2016-04-29T17:59:02Z</time>
      </trkpt>
      <trkpt lat="59.22338230406" lon="17.91783759399">
        <ele>54.8</ele>
        <time>2016-04-29T17:59:03Z</time>
      </trkpt>
      <trkpt lat="59.223301083449" lon="17.917809011711">
        <ele>53.8</ele>
        <time>2016-04-29T17:59:04Z</time>
      </trkpt>
      <trkpt lat="59.223232016593" lon="17.91774120214">
        <ele>53</ele>
        <time>2016-04-29T17:59:05Z</time>
      </trkpt>
      <trkpt lat="59.223187424885" lon="17.917646989584">
        <ele>52</ele>
        <time>2016-04-29T17:59:06Z</time>
      </trkpt>
      <trkpt lat="59.223126153196" lon="17.91739083872">
        <ele>52</ele>
        <time>2016-04-29T17:59:08Z</time>
      </trkpt>
      <trkpt lat="59.223077035262" lon="17.917128652888">
        <ele>52</ele>
        <time>2016-04-29T17:59:10Z</time>
      </trkpt>
      <trkpt lat="59.222828176651" lon="17.916276381296">
        <ele>52</ele>
        <time>2016-04-29T17:59:17Z</time>
      </trkpt>
      <trkpt lat="59.222782579115" lon="17.916164399112">
        <ele>52</ele>
        <time>2016-04-29T17:59:18Z</time>
      </trkpt>
      <trkpt lat="59.222681158125" lon="17.915938339269">
        <ele>52</ele>
        <time>2016-04-29T17:59:20Z</time>
      </trkpt>
      <trkpt lat="59.222616868952" lon="17.915815209158">
        <ele>52</ele>
        <time>2016-04-29T17:59:21Z</time>
      </trkpt>
      <trkpt lat="59.222487200959" lon="17.91557699556">
        <ele>51.6</ele>
        <time>2016-04-29T17:59:23Z</time>
      </trkpt>
      <trkpt lat="59.222418888474" lon="17.915453027259">
        <ele>50.8</ele>
        <time>2016-04-29T17:59:24Z</time>
      </trkpt>
      <trkpt lat="59.222350911265" lon="17.915328304587">
        <ele>50.4</ele>
        <time>2016-04-29T17:59:25Z</time>
      </trkpt>
      <trkpt lat="59.222286454454" lon="17.915199390965">
        <ele>50</ele>
        <time>2016-04-29T17:59:26Z</time>
      </trkpt>
      <trkpt lat="59.222223590204" lon="17.915074249198">
        <ele>49.4</ele>
        <time>2016-04-29T17:59:27Z</time>
      </trkpt>
      <trkpt lat="59.222159217212" lon="17.914953130743">
        <ele>49</ele>
        <time>2016-04-29T17:59:28Z</time>
      </trkpt>
      <trkpt lat="59.222090485632" lon="17.914828240433">
        <ele>48.4</ele>
        <time>2016-04-29T17:59:29Z</time>
      </trkpt>
      <trkpt lat="59.222026196459" lon="17.914709049815">
        <ele>48</ele>
        <time>2016-04-29T17:59:30Z</time>
      </trkpt>
      <trkpt lat="59.221775326192" lon="17.914217954294">
        <ele>48</ele>
        <time>2016-04-29T17:59:34Z</time>
      </trkpt>
      <trkpt lat="59.221720089471" lon="17.914082921885">
        <ele>47.6</ele>
        <time>2016-04-29T17:59:35Z</time>
      </trkpt>
      <trkpt lat="59.221667115863" lon="17.913938082653">
        <ele>47.2</ele>
        <time>2016-04-29T17:59:36Z</time>
      </trkpt>
      <trkpt lat="59.22161372316" lon="17.913805648633">
        <ele>46.8</ele>
        <time>2016-04-29T17:59:37Z</time>
      </trkpt>
      <trkpt lat="59.221553960213" lon="17.913688972585">
        <ele>46.4</ele>
        <time>2016-04-29T17:59:38Z</time>
      </trkpt>
      <trkpt lat="59.221486485918" lon="17.913588054509">
        <ele>46</ele>
        <time>2016-04-29T17:59:39Z</time>
      </trkpt>
      <trkpt lat="59.221297641711" lon="17.913231991397">
        <ele>46</ele>
        <time>2016-04-29T17:59:42Z</time>
      </trkpt>
      <trkpt lat="59.221239722782" lon="17.913086816889">
        <ele>46</ele>
        <time>2016-04-29T17:59:43Z</time>
      </trkpt>
      <trkpt lat="59.22091970184" lon="17.912286680715">
        <ele>46</ele>
        <time>2016-04-29T17:59:49Z</time>
      </trkpt>
      <trkpt lat="59.220807803475" lon="17.912012257309">
        <ele>45.4</ele>
        <time>2016-04-29T17:59:51Z</time>
      </trkpt>
      <trkpt lat="59.220753321125" lon="17.911875883796">
        <ele>45</ele>
        <time>2016-04-29T17:59:52Z</time>
      </trkpt>
      <trkpt lat="59.220701353345" lon="17.911731212202">
        <ele>44.6</ele>
        <time>2016-04-29T17:59:53Z</time>
      </trkpt>
      <trkpt lat="59.220648631194" lon="17.911586624427">
        <ele>44</ele>
        <time>2016-04-29T17:59:54Z</time>
      </trkpt>
      <trkpt lat="59.220593478292" lon="17.911441952833">
        <ele>43.6</ele>
        <time>2016-04-29T17:59:55Z</time>
      </trkpt>
      <trkpt lat="59.220222746855" lon="17.910469820071">
        <ele>43.6</ele>
        <time>2016-04-29T18:00:02Z</time>
      </trkpt>
      <trkpt lat="59.220026358938" lon="17.909961625474">
        <ele>43.6</ele>
        <time>2016-04-29T18:00:06Z</time>
      </trkpt>
      <trkpt lat="59.219975145529" lon="17.909843105408">
        <ele>43.6</ele>
        <time>2016-04-29T18:00:07Z</time>
      </trkpt>
      <trkpt lat="59.219926865785" lon="17.909726345541">
        <ele>43.6</ele>
        <time>2016-04-29T18:00:08Z</time>
      </trkpt>
      <trkpt lat="59.219901384809" lon="17.909462483329">
        <ele>43.6</ele>
        <time>2016-04-29T18:00:10Z</time>
      </trkpt>
      <trkpt lat="59.220005488007" lon="17.909170625571">
        <ele>43.6</ele>
        <time>2016-04-29T18:00:13Z</time>
      </trkpt>
      <trkpt lat="59.220117051096" lon="17.909031066936">
        <ele>43.6</ele>
        <time>2016-04-29T18:00:15Z</time>
      </trkpt>
      <trkpt lat="59.220318803429" lon="17.908747507259">
        <ele>43.6</ele>
        <time>2016-04-29T18:00:19Z</time>
      </trkpt>
      <trkpt lat="59.220367250811" lon="17.908494625336">
        <ele>43.6</ele>
        <time>2016-04-29T18:00:22Z</time>
      </trkpt>
      <trkpt lat="59.220310589167" lon="17.908362023678">
        <ele>43.6</ele>
        <time>2016-04-29T18:00:24Z</time>
      </trkpt>
      <trkpt lat="59.220274882273" lon="17.908281808895">
        <ele>43.6</ele>
        <time>2016-04-29T18:00:25Z</time>
      </trkpt>
      <trkpt lat="59.220007918758" lon="17.90772399345">
        <ele>43.6</ele>
        <time>2016-04-29T18:00:31Z</time>
      </trkpt>
      <trkpt lat="59.219891829443" lon="17.907446133465">
        <ele>43.6</ele>
        <time>2016-04-29T18:00:34Z</time>
      </trkpt>
      <trkpt lat="59.219828546098" lon="17.907281596768">
        <ele>43.6</ele>
        <time>2016-04-29T18:00:36Z</time>
      </trkpt>
      <trkpt lat="59.219778254698" lon="17.907168524937">
        <ele>43.6</ele>
        <time>2016-04-29T18:00:38Z</time>
      </trkpt>
    </trkseg>
  </trk>
</gpx>